     2              OBSERVATION DATA    GPS                 RINEX VERSION / TYPE
teqc 1997Sep10 19971030 21:27:03UTC                         PGM / RUN BY / DATE
                                                            COMMENT
Original Marker Name: 55458.FRIN                            COMMENT
Campaign Name: NGS Imperial Valley 1990                     COMMENT
4-Character Station Name: FRIN                              COMMENT
6-Character Antenna Code: TI4100                            COMMENT
Vertical Measurement Point: PAE                             COMMENT
Vertical Offset to Rinex Ref. Point: 0.0000                 COMMENT
Radial Measurement Point: RRP                               COMMENT
Radial Offset to Rinex Ref. Point: 0.0000                   COMMENT
Antenna Height from Field Measurement: 1.0830 m             COMMENT
Original XYZ: -2308061.0121 -4807175.8293 3487364.7092      COMMENT
New XYZ position is based on association with SCEC monument COMMENT
E1D0J4A3+0011. Position of that monument is believed to be  COMMENT
valid to within 1 m horizontally; vertical accuracy         COMMENT
should be no worse than 3-times this value.                 COMMENT
                                                            COMMENT
Revised Rinex header created by UCSD GPS archive for        COMMENT
GSAC on 12-Apr-1999 (1999:102) 06:09:05 GMT                 COMMENT
For assistance contact dagnew@ucsd.edu or hjohnson@ucsd.edu COMMENT
                                                            COMMENT
FRINK 1938                                                  MARKER NAME
5 NATIONAL GEODETIC SURVEY                                  OBSERVER / AGENCY
UT18 TI 4100 1.9                                            REC # / TYPE / VERS
4014 TI 4100                                                ANT # / TYPE
 -2308056.0000 -4807160.0000  3487357.0000                  APPROX POSITION XYZ
        1.0830        0.0000        0.0000                  ANTENNA: DELTA H/E/N
     1     1     0                                          WAVELENGTH FACT L1/2
     4    P1    P2    L1    L2                              # / TYPES OF OBSERV
    15                                                      INTERVAL
  1990     3     3     4     7   29.000000                  TIME OF FIRST OBS
  1990     3     3     8    17   29.000000                  TIME OF LAST OBS
     0                                                      # OF SATELLITES
                                                            END OF HEADER
 90  3  3  4  7 29.0800000  0  4G 6G 9G11G13
  20565809.315    20565811.058     2772394.554 9  -4256816.931 8
  22105932.428    22105936.077      466697.039 9   -964681.032 8
  20956012.736    20956017.673      654967.663 8   -918532.469 8
  23893643.064    23893652.666      329215.000 9   -973345.551 8
 90  3  3  4  7 44.0800000  0  4G 6G 9G11G13
  20563193.566    20563196.091     2758652.642 8  -4267524.914 8
  22097890.569    22097894.487      424443.678 9   -997605.670 9
  20951734.432    20951737.676      632478.088 8   -936056.778 8
  23882942.679    23882951.404      272982.762 9  -1017162.747 9
 90  3  3  4  7 59.0800000  0  4G 6G 9G11G13
  20560598.075    20560600.727     2745015.049 8  -4278151.584 8
  22089858.665    22089863.333      382236.441 8  -1030494.376 9
  20947478.687    20947483.238      610119.768 7   -953478.816 8
  23872252.407    23872260.340      216803.492 9  -1060938.647 9
 90  3  3  4  8 14.0800000  0  4G 6G 9G11G13
  20558022.768    20558026.234     2731482.116 9  -4288696.712 8
  22081835.965    22081839.564      340075.744 8  -1063346.816 9
  20943250.568    20943253.320      587892.902 9   -970798.438 7
  23861571.167    23861580.683      160677.631 9  -1104672.948 9
 90  3  3  4  8 29.0800000  0  4G 6G 9G11G13
  20555467.425    20555471.000     2718054.372 8  -4299159.870 8
  22073822.208    22073826.452      297962.229 9  -1096162.491 8
  20939044.239    20939048.228      565797.898 8   -988015.302 9
  23850900.729    23850911.289      104605.901 8  -1148365.046 8
 90  3  3  4  8 44.0800000  0  4G 6G 9G11G13
  20552932.322    20552934.991     2704732.171 9  -4309540.794 8
  22065818.015    22065820.912      255896.010 8  -1128941.316 8
  20934865.618    20934869.115      543834.667 8  -1005129.468 8
  23840240.409    23840249.756       48588.453 8  -1192014.856 9
 90  3  3  4  8 59.0800000  0  4G 6G 9G11G13
  20550417.625    20550419.470     2691515.728 8  -4319839.320 8
  22057821.924    22057825.191      213877.616 8  -1161682.874 9
  20930712.288    20930715.538      522003.278 8  -1022140.916 9
  23829592.281    23829600.363       -7374.797 8  -1235622.419 9
 90  3  3  4  9 14.0800000  0  4G 6G 9G11G13
  20547923.096    20547925.613     2678405.694 8  -4330054.916 8
  22049834.616    22049838.082      171907.455 8  -1194386.837 9
  20926581.377    20926586.619      500304.259 8  -1039049.217 7
  23818953.900    23818961.235      -63282.703 8  -1279186.866 8
 90  3  3  4  9 29.0800000  0  4G 6G 9G11G13
  20545448.391    20545450.685     2665402.678 9  -4340187.113 8
  22041857.734    22041861.276      129986.362 9  -1227052.575 9
  20922476.518    20922482.213      478737.921 8  -1055854.131 8
  23808324.861    23808333.000     -119134.778 8  -1322707.817 9
 90  3  3  4  9 44.0800000  0  4G 6G 9G11G13
  20542993.783    20542997.100     2652505.945 9  -4350236.510 8
  22033888.916    22033894.771       88113.750 9  -1259680.542 9
  20918399.466    20918403.188      457303.534 8  -1072556.232 8
  23797706.072    23797715.259     -174931.881 8  -1366185.906 9
 90  3  3  4  9 59.0800000  0  4G 6G 9G11G13
  20540561.005    20540564.087     2639715.740 9  -4360202.890 9
  22025930.153    22025934.691       46289.930 8  -1292270.483 9
  20914347.351    20914349.617      436000.997 8  -1089155.595 9
  23787099.492    23787108.035     -230673.578 8  -1409620.837 8
 90  3  3  4 10 14.0800000  0  4G 6G 9G11G13
  20538146.386    20538149.872     2627032.811 8  -4370085.664 8
  22017981.368    22017984.990        4515.469 9  -1324821.966 8
  20910316.155    20910321.645      414830.811 8  -1105651.814 8
  23776503.381    23776510.827     -286359.103 9  -1453012.004 9
 90  3  3  4 10 29.0800000  0  4G 6G 9G11G13
  20535754.487    20535756.279     2614457.021 8  -4379884.967 8
  22010041.392    22010044.873      -37209.697 8  -1357335.035 8
  20906311.500    20906316.817      393792.658 9  -1122045.141 8
  23765917.447    23765925.102     -341988.595 8  -1496359.529 8
 90  3  3  4 10 44.0800000  0  4G 6G 9G11G13
  20533380.632    20533382.800     2601987.899 9  -4389601.154 8
  22002111.175    22002114.257      -78885.729 9  -1389809.821 8
  20902334.880    20902338.771      372885.917 9  -1138336.091 8
  23755340.303    23755348.671     -397562.553 9  -1539663.756 8
 90  3  3  4 10 59.0800000  0  4G 6G 9G11G13
  20531030.398    20531031.586     2589626.446 9  -4399233.433 9
  21994188.995    21994192.465     -120511.812 9  -1422245.681 9
  20898381.409    20898386.537      352111.374 8  -1154524.036 8
  23744775.707    23744784.670     -453079.837 9  -1582923.847 8
 90  3  3  4 11 14.0800000  0  4G 6G 9G11G13
  20528697.014    20528699.941     2577373.361 9  -4408781.275 9
  21986277.404    21986281.030     -162086.985 7  -1454641.877 9
  20894453.422    20894457.371      331469.418 8  -1170608.640 8
  23734222.855    23734230.118     -508540.036 9  -1626139.440 8
 90  3  3  4 11 29.0800000  0  4G 6G 9G11G13
  20526386.121    20526388.100     2565228.581 8  -4418244.738 8
  21978375.774    21978380.224     -203611.459 9  -1486998.558 8
  20890550.046    20890555.234      310959.761 8  -1186590.161 8
  23723679.659    23723686.170     -563943.136 9  -1669310.549 8
 90  3  3  4 11 44.0800000  0  4G 6G 9G11G13
  20524095.611    20524097.444     2553191.921 8  -4427623.926 8
  21970483.742    21970486.903     -245085.524 9  -1519315.951 8
  20886673.646    20886678.115      290581.939 8  -1202468.966 8
  23713147.818    23713155.494     -619289.276 9  -1712437.293 9
 90  3  3  4 11 59.0800000  0  4G 6G 9G11G13
  20521826.239    20521827.449     2541263.595 9  -4436918.716 8
  21962601.375    21962604.370     -286508.679 9  -1551593.688 9
  20882819.495    20882825.175      270336.074 8  -1218244.953 8
  23702625.720    23702633.590     -674578.091 9  -1755519.359 7
 90  3  3  4 12 14.0800000  0  4G 6G 9G11G13
  20519576.312    20519579.964     2529444.361 9  -4446128.495 8
  21954727.776    21954733.082     -327879.861 9  -1583830.939 8
  20878991.240    20878998.629      250222.672 8  -1233917.706 8
  23692115.911    23692123.306     -729808.758 9  -1798556.131 7
 90  3  3  4 12 29.0800000  0  4G 6G 9G11G13
  20517348.231    20517351.811     2517734.275 8  -4455253.236 9
  21946864.618    21946869.027     -369199.357 8  -1616027.896 9
  20875189.823    20875194.657      230241.513 9  -1249487.411 8
  23681616.386    23681624.354     -784981.287 9  -1841547.607 7
 90  3  3  4 12 44.0800000  0  4G 6G 9G11G13
  20515139.853    20515142.723     2506133.916 9  -4464292.455 7
  21939011.319    21939016.229     -410466.320 8  -1648183.941 8
  20871413.895    20871416.421      210393.031 9  -1264953.740 8
  23671129.202    23671137.112     -840095.019 9  -1884493.254 7
 90  3  3  4 12 59.0800000  0  4G 6G 9G11G13
  20512953.682    20512956.809     2494643.311 9  -4473246.167 8
  21931168.789    21931173.335     -451680.860 9  -1680299.120 9
  20867661.469    20867666.005      190676.983 8  -1280316.875 9
  23660652.917    23660658.660     -895150.027 9  -1927393.155 7
 90  3  3  4 13 14.0800000  0  4G 6G 9G11G13
  20510788.343    20510791.152     2483262.373 9  -4482114.422 9
  21923337.209    21923339.878     -492842.707 9  -1712373.241 9
  20863935.603    20863938.880      171093.120 8  -1295577.000 8
  23650187.345    23650193.564     -950146.326 9  -1970247.304 7
 90  3  3  4 13 29.0800000  0  4G 6G 9G11G13
  20508643.530    20508646.887     2471991.642 9  -4490896.780 8
  21915514.857    21915517.531     -533951.332 9  -1744405.875 8
  20860233.270    20860237.626      151641.750 9  -1310733.885 9
  23639733.015    23639739.657    -1005083.016 9  -2013055.007 7
 90  3  3  4 13 44.0800000  0  4G 6G 9G11G13
  20506520.115    20506522.412     2460831.739 9  -4499592.801 8
  21907700.766    21907704.967     -575006.268 8  -1776396.715 8
  20856556.436    20856561.354      132323.207 9  -1325787.277 9
  23629289.920    23629297.261    -1059959.733 9  -2055815.983 8
 90  3  3  4 13 59.0800000  0  4G 6G 9G11G13
  20504417.899    20504419.672     2449782.792 8  -4508202.361 9
  21899898.981    21899902.846     -616007.206 9  -1808345.443 8
  20852905.580    20852910.955      113137.330 8  -1340737.296 9
  23618858.382    23618865.121    -1114776.383 9  -2098530.147 8
 90  3  3  4 14 14.0800000  0  4G 6G 9G11G13
  20502336.023    20502338.314     2438844.822 9  -4516725.442 7
  21892106.752    21892111.188     -656953.971 9  -1840251.977 9
  20849279.879    20849284.762       94083.942 9  -1355584.072 8
  23608438.182    23608445.007    -1169532.776 9  -2141197.361 8
 90  3  3  4 14 29.0800000  0  4G 6G 9G11G13
  20500276.431    20500277.004     2428018.991 9  -4525161.147 9
  21884325.134    21884329.443     -697845.480 9  -1872115.455 8
  20845680.324    20845684.398       75163.998 8  -1370326.864 8
  23598030.013    23598038.324    -1224227.726 9  -2183816.696 7
 90  3  3  4 14 44.0800000  0  4G 6G 9G11G13
  20498236.215    20498239.677     2417304.414 9  -4533510.153 8
  21876554.696    21876557.434     -738682.187 9  -1903936.198 8
  20842104.514    20842108.445       56376.358 8  -1384966.555 9
  23587633.143    23587642.097    -1278862.343 9  -2226389.004 8
 90  3  3  4 14 59.0800000  0  4G 6G 9G11G13
  20496218.990    20496222.442     2406700.418 9  -4541773.008 8
  21868793.461    21868797.185     -779465.037 9  -1935715.025 8
  20838554.020    20838557.550       37720.121 8  -1399503.863 8
  23577249.769    23577256.669    -1333437.191 9  -2268914.760 8
 90  3  3  4 15 14.0800000  0  4G 6G 9G11G13
  20494222.263    20494224.480     2396207.436 8  -4549949.339 9
  21861042.972    21861046.666     -820193.766 8  -1967451.648 8
  20835029.085    20835033.309       19195.577 8  -1413938.554 8
  23566874.615    23566883.120    -1387951.683 9  -2311393.484 8
 90  3  3  4 15 29.0800000  0  4G 6G 9G11G13
  20492246.911    20492248.081     2385826.200 9  -4558038.609 8
  21853303.422    21853306.583     -860867.178 9  -1999145.183 9
  20831529.122    20831533.691         803.236 8  -1428270.233 8
  23556513.260    23556520.841    -1442405.259 9  -2353824.731 8
 90  3  3  4 15 44.0800000  0  4G 6G 9G11G13
  20490292.918    20490295.238     2375556.987 9  -4566040.572 7
  21845574.574    21845577.656     -901484.934 8  -2030795.338 9
  20828053.486    20828058.594      -17456.946 8  -1442498.914 8
  23546161.922    23546168.341    -1496797.367 9  -2396208.103 9
 90  3  3  4 15 59.0800000  0  4G 6G 9G11G13
  20488360.225    20488363.093     2365400.272 9  -4573954.897 8
  21837855.566    21837858.361     -942046.587 9  -2062401.791 8
  20824604.093    20824609.158      -35584.841 9  -1456624.526 8
  23535822.775    23535830.230    -1551127.791 8  -2438543.379 8
 90  3  3  4 16 14.0800000  0  4G 6G 9G11G13
  20486448.255    20486451.005     2355356.185 9  -4581781.454 8
  21830147.990    21830151.187     -982551.844 9  -2093964.294 9
  20821180.838    20821185.282      -53580.306 9  -1470646.962 8
  23525494.887    23525501.875    -1605396.209 8  -2480830.357 9
 90  3  3  4 16 29.0800000  0  4G 6G 9G11G13
  20484558.334    20484561.077     2345425.318 8  -4589519.776 8
  21822449.814    21822453.627    -1023000.171 9  -2125482.425 8
  20817780.564    20817785.438      -71443.052 9  -1484565.964 8
  23515180.815    23515188.883    -1659601.994 8  -2523068.532 8
 90  3  3  4 16 44.0800000  0  4G 6G 9G11G13
  20482690.731    20482692.699     2335607.672 9  -4597169.880 8
  21814763.259    21814767.098    -1063391.534 9  -2156956.191 9
  20814406.808    20814411.558      -89173.407 8  -1498381.800 8
  23504877.384    23504885.271    -1713745.180 9  -2565257.921 8
 90  3  3  4 16 59.0800000  0  4G 6G 9G11G13
  20480844.032    20480846.770     2325903.666 9  -4604731.422 8
  21807088.721    21807091.275    -1103725.362 9  -2188385.103 8
  20811060.851    20811063.112     -106771.163 8  -1512094.314 8
  23494586.470    23494593.642    -1767825.236 9  -2607398.131 9
 90  3  3  4 17 14.0800000  0  4G 6G 9G11G13
  20479018.879    20479021.542     2316313.526 9  -4612204.252 8
  21799424.960    21799428.376    -1144001.138 8  -2219768.787 8
  20807735.251    20807740.078     -124236.377 8  -1525703.551 8
  23484307.268    23484314.941    -1821841.932 9  -2649488.964 9
 90  3  3  4 17 29.0800000  0  4G 6G 9G11G13
  20477215.401    20477218.564     2306837.172 9  -4619588.413 9
  21791770.882    21791775.001    -1184218.986 8  -2251107.329 8
  20804435.464    20804440.263     -141569.266 8  -1539209.689 8
  23474040.783    23474048.430    -1875795.271 8  -2691530.419 9
 90  3  3  4 17 44.0800000  0  4G 6G 9G11G13
  20475434.250    20475436.931     2297475.020 9  -4626883.587 8
  21784128.691    21784132.081    -1224378.592 9  -2282400.495 9
  20801165.079    20801167.489     -158769.707 8  -1552612.604 8
  23463783.954    23463793.272    -1929685.050 9  -2733522.364 8
 90  3  3  4 17 59.0800000  0  4G 6G 9G11G13
  20473674.511    20473675.991     2288227.491 9  -4634089.432 8
  21776498.900    21776501.853    -1264479.206 8  -2313647.691 9
  20797916.195    20797920.002     -175837.442 8  -1565912.124 9
  23453541.789    23453550.527    -1983510.500 9  -2775464.199 8
 90  3  3  4 18 14.0800000  0  4G 6G 9G11G13
  20471936.377    20471938.579     2279094.976 9  -4641205.675 8
  21768878.620    21768881.997    -1304520.390 9  -2344848.580 8
  20794692.839    20794697.385     -192772.347 8  -1579108.145 9
  23443311.822    23443320.542    -2037271.115 9  -2817355.493 9
 90  3  3  4 18 29.0800000  0  4G 6G 9G11G13
  20470221.257    20470222.601     2270077.726 9  -4648232.100 8
  21761271.002    21761274.516    -1344501.872 9  -2376002.940 9
  20791496.223    20791500.191     -209574.446 8  -1592200.668 8
  23433094.194    23433101.595    -2090966.885 9  -2859196.253 8
 90  3  3  4 18 44.0800000  0  4G 6G 9G11G13
  20468526.395    20468529.311     2261175.858 9  -4655168.603 9
  21753674.681    21753677.307    -1384423.510 8  -2407110.678 8
  20788324.609    20788327.438     -226243.772 8  -1605189.730 7
  23422888.414    23422896.551    -2144597.849 8  -2900986.528 8
 90  3  3  4 18 59.0800000  0  4G 6G 9G11G13
  20466855.245    20466856.417     2252389.809 9  -4662014.873 9
  21746088.795    21746092.660    -1424284.849 8  -2438171.423 9
  20785176.663    20785182.139     -242780.256 8  -1618075.288 9
  23412694.786    23412701.907    -2198163.510 9  -2942725.920 8
 90  3  3  4 19 14.0800000  0  4G 6G 9G11G13
  20465204.802    20465206.118     2243720.080 9  -4668770.488 9
  21738514.581    21738518.435    -1464084.930 9  -2469184.442 9
  20782055.884    20782060.825     -259183.627 7  -1630857.109 8
  23402513.814    23402521.363    -2251662.992 9  -2984413.746 9
 90  3  3  4 19 29.0800000  0  4G 6G 9G11G13
  20463577.202    20463578.965     2235166.766 9  -4675435.402 9
  21730952.631    21730956.537    -1503823.927 9  -2500149.848 8
  20778958.679    20778962.452     -275453.969 8  -1643535.272 8
  23392347.115    23392354.445    -2305096.363 9  -3026050.054 8
 90  3  3  4 19 44.0800000  0  4G 6G 9G11G13
  20461971.285    20461974.389     2226730.132 8  -4682009.395 9
  21723401.337    21723404.973    -1543501.450 9  -2531067.365 9
  20775888.679    20775892.080     -291591.328 9  -1656109.840 8
  23382191.000    23382198.590    -2358463.186 9  -3067634.514 8
 90  3  3  4 19 59.0800000  0  4G 6G 9G11G13
  20460388.378    20460390.396     2218410.337 9  -4688492.343 8
  21715863.751    21715866.682    -1583116.994 9  -2561936.590 9
  20772842.909    20772846.348     -307595.652 8  -1668580.725 8
  23372049.229    23372054.955    -2411763.226 9  -3109166.935 9
 90  3  3  4 20 14.0800000  0  4G 6G 9G11G13
  20458827.770    20458830.487     2210207.414 8  -4694884.220 8
  21708336.814    21708339.843    -1622670.576 8  -2592757.519 9
  20769822.820    20769827.452     -323467.218 8  -1680948.141 8
  23361917.703    23361925.404    -2464996.608 9  -3150647.420 8
 90  3  3  4 20 29.0800000  0  4G 6G 9G11G13
  20457288.150    20457291.054     2202121.566 8  -4701184.868 8
  21700822.001    21700824.976    -1662162.005 9  -2623530.019 9
  20766827.764    20766830.762     -339206.006 8  -1693212.115 8
  23351801.264    23351808.356    -2518163.009 9  -3192075.703 8
 90  3  3  4 20 44.0800000  0  4G 6G 9G11G13
  20455772.500    20455774.438     2194153.200 9  -4707393.982 8
  21693319.132    21693321.894    -1701590.712 9  -2654253.652 8
  20763857.803    20763860.685     -354812.108 9  -1705372.710 8
  23341697.452    23341703.405    -2571262.097 9  -3233451.531 8
 90  3  3  4 20 59.0800000  0  4G 6G 9G11G13
  20454279.267    20454281.067     2186302.296 9  -4713511.551 8
  21685828.223    21685830.888    -1740956.506 9  -2684928.259 9
  20760912.752    20760917.966     -370285.538 8  -1717429.910 9
  23331603.421    23331611.815    -2624293.770 9  -3274774.843 9
 90  3  3  4 21 14.0800000  0  4G 6G 9G11G13
  20452806.233    20452809.732     2178569.233 9  -4719537.322 8
  21678347.244    21678351.438    -1780259.117 8  -2715553.639 8
  20757994.554    20757998.752     -385626.278 8  -1729383.716 9
  23321526.064    23321533.339    -2677257.719 9  -3316045.365 7
 90  3  3  4 21 29.0800000  0  4G 6G 9G11G13
  20451357.583    20451360.605     2170954.328 9  -4725470.991 8
  21670881.096    21670885.534    -1819497.845 9  -2746129.238 9
  20755101.148    20755102.753     -400834.197 9  -1741234.019 8
  23311460.079    23311466.175    -2730153.687 9  -3357262.938 8
 90  3  3  4 21 44.0800000  0  4G 6G 9G11G13
  20449930.466    20449933.725     2163457.731 9  -4731312.501 8
  21663425.754    21663429.813    -1858672.568 9  -2776654.961 9
  20752230.869    20752234.153     -415909.481 8  -1752980.979 8
  23301407.340    23301413.782    -2782981.294 8  -3398427.222 8
 90  3  3  4 21 59.0800000  0  4G 6G 9G11G13
  20448527.263    20448529.401     2156079.830 9  -4737061.491 9
  21655984.401    21655987.287    -1897782.913 8  -2807130.517 9
  20749388.003    20749391.322     -430852.049 9  -1764624.532 8
  23291366.465    23291374.473    -2835740.063 9  -3439537.872 7
 90  3  3  4 22 14.0800000  0  4G 6G 9G11G13
  20447145.350    20447149.900     2148821.052 9  -4742717.672 8
  21648554.434    21648557.233    -1936828.347 9  -2837555.499 9
  20746569.721    20746574.323     -445661.628 8  -1776164.440 8
  23281340.804    23281346.946    -2888429.587 9  -3480594.571 8
 90  3  3  4 22 29.0800000  0  4G 6G 9G11G13
  20445787.605    20445790.126     2141681.581 8  -4748280.889 9
  21641136.547    21641139.632    -1975808.345 8  -2867929.495 9
  20743776.081    20743780.745     -460338.183 8  -1787600.700 8
  23271327.678    23271333.991    -2941049.694 9  -3521597.172 7
 90  3  3  4 22 44.0800000  0  4G 6G 9G11G13
  20444451.282    20444454.048     2134661.606 9  -4753750.990 8
  21633731.419    21633733.966    -2014722.856 9  -2898252.453 8
  20741008.215    20741012.168     -474881.862 8  -1798933.420 8
  23261326.131    23261334.694    -2993600.274 7  -3562545.614 8
 90  3  3  4 22 59.0800000  0  4G 6G 9G11G13
  20443138.983    20443140.815     2127761.277 8  -4759127.863 8
  21626338.721    21626341.324    -2053571.479 9  -2928524.072 7
  20738267.372    20738270.107     -489292.930 8  -1810162.811 9
  23251340.009    23251348.114    -3046081.117 9  -3603439.698 8
 90  3  3  4 23 14.0800000  0  4G 6G 9G11G13
  20441847.537    20441850.387     2120980.847 9  -4764411.303 8
  21618958.940    21618962.123    -2092353.969 9  -2958744.147 8
  20735550.029    20735555.071     -503571.192 8  -1821288.716 7
  23241367.675    23241374.492    -3098491.976 9  -3644279.235 7
 90  3  3  4 23 29.0800000  0  4G 6G 9G11G13
  20440581.018    20440583.892     2114320.671 9  -4769601.049 9
  21611591.243    21611594.409    -2131069.748 9  -2988912.273 9
  20732856.620    20732861.489     -517716.599 8  -1832311.092 9
  23231406.760    23231414.814    -3150832.337 9  -3685063.859 8
 90  3  3  4 23 44.0800000  0  4G 6G 9G11G13
  20439336.041    20439338.664     2107781.141 9  -4774696.778 9
  21604236.576    21604238.852    -2169718.518 9  -3019028.157 9
  20730191.589    20730194.627     -531729.136 8  -1843229.933 8
  23221460.641    23221467.478    -3203101.993 9  -3725793.380 8
 90  3  3  4 23 59.0800000  0  4G 6G 9G11G13
  20438114.519    20438117.905     2101362.505 9  -4779698.300 9
  21596894.943    21596897.956    -2208299.549 9  -3049091.264 9
  20727551.008    20727554.414     -545608.632 8  -1854045.105 9
  23211528.133    23211534.415    -3255300.448 9  -3766467.423 8
 90  3  3  4 24 14.0800000  0  4G 6G 9G11G13
  20436915.551    20436918.964     2095064.910 9  -4784605.504 9
  21589565.868    21589570.554    -2246812.839 8  -3079101.591 9
  20724933.493    20724939.084     -559355.141 8  -1864756.668 8
  23201607.656    23201615.466    -3307427.456 8  -3807085.790 8
 90  3  3  4 24 29.0800000  0  4G 6G 9G11G13
  20435740.919    20435744.069     2088888.746 8  -4789418.098 9
  21582249.602    21582253.289    -2285257.861 9  -3109058.722 9
  20722341.432    20722348.728     -572968.614 8  -1875364.532 8
  23191701.237    23191709.290    -3359482.940 9  -3847648.433 9
 90  3  3  4 24 44.0800000  0  4G 6G 9G11G13
  20434588.780    20434591.842     2082834.223 9  -4794135.902 7
  21574947.014    21574951.073    -2323634.287 9  -3138962.404 9
  20719778.512    20719783.139     -586449.145 8  -1885868.825 8
  23181810.185    23181815.911    -3411466.404 9  -3888154.947 8
 90  3  3  4 24 59.0800000  0  4G 6G 9G11G13
  20433459.331    20433461.753     2076901.585 9  -4798758.717 9
  21567658.224    21567662.134    -2361941.665 9  -3168812.276 9
  20717238.696    20717242.506     -599796.681 8  -1896269.501 9
  23171931.765    23171938.391    -3463377.460 8  -3928605.032 8
 90  3  3  4 25 14.0800000  0  4G 6G 9G11G13
  20432354.139    20432357.072     2071091.039 8  -4803286.429 8
  21560381.250    21560384.004    -2400179.726 9  -3198608.135 9
  20714723.178    20714729.307     -613011.303 7  -1906566.587 8
  23162065.806    23162074.818    -3515215.830 9  -3968998.484 9
 90  3  3  4 25 29.0800000  0  4G 6G 9G11G13
  20431271.367    20431274.355     2065402.618 8  -4807718.934 8
  21553117.506    21553120.453    -2438348.496 9  -3228349.987 8
  20712235.238    20712239.192     -626093.151 8  -1916760.216 9
  23152216.704    23152223.045    -3566981.700 9  -4009335.439 7
 90  3  3  4 25 44.0800000  0  4G 6G 9G11G13
  20430213.067    20430215.328     2059836.515 8  -4812056.154 8
  21545868.407    21545870.358    -2476447.331 9  -3258037.370 8
  20709770.555    20709774.429     -639042.368 8  -1926850.485 8
  23142378.888    23142386.354    -3618674.636 9  -4049615.580 8
 90  3  3  4 25 59.0800000  0  4G 6G 9G11G13
  20429176.914    20429181.103     2054393.150 9  -4816297.732 9
  21538631.838    21538633.888    -2514475.867 9  -3287669.966 8
  20707331.895    20707335.918     -651858.771 8  -1936837.289 8
  23132556.503    23132563.111    -3670294.215 9  -4089838.549 7
 90  3  3  4 26 14.0800000  0  4G 6G 9G11G13
  20428164.093    20428168.102     2049073.115 8  -4820443.216 8
  21531408.036    21531410.994    -2552433.529 9  -3317247.336 8
  20704917.859    20704922.448     -664542.180 8  -1946720.433 9
  23122747.334    23122754.618    -3721840.046 9  -4130004.050 8
 90  3  3  4 26 29.0800000  0  4G 6G 9G11G13
  20427175.713    20427177.803     2043876.454 9  -4824492.546 9
  21524199.450    21524201.798    -2590319.883 9  -3346769.137 8
  20702528.910    20702533.422     -677092.524 8  -1956499.917 8
  23112952.921    23112959.495    -3773311.718 9  -4170111.772 9
 90  3  3  4 26 44.0800000  0  4G 6G 9G11G13
  20426210.599    20426212.571     2038803.151 8  -4828445.775 8
  21517002.627    21517005.527    -2628134.984 9  -3376235.421 9
  20700166.712    20700170.607     -689510.306 7  -1966176.088 8
  23103172.949    23103178.698    -3824709.457 9  -4210161.875 9
 90  3  3  4 26 59.0800000  0  4G 6G 9G11G13
  20425268.213    20425270.788     2033853.027 8  -4832303.009 8
  21509820.112    21509822.723    -2665878.834 9  -3405646.185 9
  20697828.425    20697832.643     -701795.947 7  -1975749.284 8
  23093406.038    23093411.699    -3876033.344 9  -4250154.440 9
 90  3  3  4 27 14.0800000  0  4G 6G 9G11G13
  20424349.304    20424352.741     2029026.138 9  -4836064.219 8
  21502651.337    21502654.010    -2703551.316 9  -3435001.340 9
  20695516.259    20695520.118     -713949.703 9  -1985219.735 8
  23083652.670    23083658.451    -3927283.259 9  -4290089.354 9
 90  3  3  4 27 29.0800000  0  4G 6G 9G11G13
  20423454.518    20423457.210     2024322.603 9  -4839729.292 8
  21495496.166    21495499.335    -2741152.031 9  -3464300.580 9
  20693228.218    20693232.383     -725971.591 8  -1994587.426 8
  23073914.709    23073920.356    -3978459.119 9  -4329966.584 9
 90  3  3  4 27 44.0800000  0  4G 6G 9G11G13
  20422581.948    20422586.084     2019742.536 9  -4843298.174 9
  21488355.459    21488357.892    -2778680.866 9  -3493543.790 9
  20690964.164    20690970.482     -737861.671 8  -2003852.399 8
  23064189.570    23064195.809    -4029560.906 9  -4369786.089 8
 90  3  3  4 27 59.0800000  0  4G 6G 9G11G13
  20421732.939    20421737.967     2015286.203 9  -4846770.637 8
  21481226.643    21481228.423    -2816137.549 9  -3522730.791 8
  20688728.645    20688732.743     -749620.078 7  -2013014.773 9
  23054479.633    23054486.390    -4080588.151 9  -4409547.504 9
 90  3  3  4 28 14.0800000  0  4G 6G 9G11G13
  20420910.864    20420914.871     2010953.668 9  -4850146.642 8
  21474113.778    21474115.090    -2853521.616 9  -3551861.204 8
  20686517.141    20686519.549     -761246.818 7  -2022074.552 9
  23044783.632    23044789.725    -4131540.608 9  -4449250.636 8
 90  3  3  4 28 29.0800000  0  4G 6G 9G11G13
  20420109.517    20420112.705     2006745.738 9  -4853425.532 8
  21467013.182    21467015.693    -2890832.273 8  -3580934.413 8
  20684327.547    20684332.078     -772741.603 9  -2031031.515 8
  23035101.907    23035108.618    -4182417.718 9  -4488895.074 9
 90  3  3  4 28 44.0800000  0  4G 6G 9G11G13
  20419331.698    20419334.969     2002662.548 9  -4856607.229 9
  21459926.921    21459929.211    -2928069.114 9  -3609950.107 8
  20682164.969    20682168.872     -784104.481 8  -2039885.683 8
  23025435.286    23025441.649    -4233219.192 9  -4528480.570 9
 90  3  3  4 28 59.0800000  0  4G 6G 9G11G13
  20418579.620    20418581.888     1998704.147 8  -4859691.695 9
  21452854.522    21452859.093    -2965232.022 9  -3638908.197 8
  20680028.349    20680033.674     -795335.696 8  -2048637.261 9
  23015781.521    23015788.719    -4283944.803 9  -4568006.943 8
 90  3  3  4 29 14.0800000  0  4G 6G 9G11G13
  20417850.939    20417852.548     1994870.756 8  -4862678.750 8
  21445797.481    21445800.227    -3002320.639 8  -3667808.393 9
  20677917.287    20677920.287     -806435.197 8  -2057286.208 9
  23006143.428    23006150.179    -4334594.342 9  -4607474.051 8
 90  3  3  4 29 29.0800000  0  4G 6G 9G11G13
  20417143.787    20417147.431     1991162.608 8  -4865568.218 9
  21438753.749    21438757.241    -3039334.745 9  -3696650.514 9
  20675827.571    20675834.381     -817403.076 8  -2065832.585 9
  22996519.529    22996526.767    -4385167.582 9  -4646881.701 8
 90  3  3  4 29 44.0800000  0  4G 6G 9G11G13
  20416462.184    20416465.305     1987580.146 8  -4868359.728 8
  21431723.831    21431727.325    -3076273.579 9  -3725434.001 8
  20673768.058    20673770.896     -828239.105 7  -2074276.224 8
  22986910.792    22986917.606    -4435663.924 9  -4686229.439 8
 90  3  3  4 29 59.0800000  0  4G 6G 9G11G13
  20415804.329    20415806.857     1984123.791 9  -4871052.988 9
  21424709.682    21424712.414    -3113136.632 9  -3754158.416 8
  20671730.695    20671734.269     -838943.173 7  -2082617.044 7
  22977316.095    22977321.132    -4486082.954 9  -4725516.934 9
 90  3  3  4 30 14.0800000  0  4G 6G 9G11G13
  20415170.992    20415173.862     1980793.567 8  -4873647.950 9
  21417709.301    21417712.165    -3149923.600 9  -3782823.553 8
  20669718.498    20669722.380     -849515.481 8  -2090855.175 8
  22967736.108    22967742.636    -4536424.759 8  -4764744.247 8
 90  3  3  4 30 29.0800000  0  4G 6G 9G11G13
  20414561.678    20414564.062     1977589.305 8  -4876144.772 9
  21410722.206    21410726.695    -3186634.949 8  -3811429.774 8
  20667730.865    20667736.531     -859956.463 8  -2098990.994 9
  22958170.648    22958177.436    -4586689.458 9  -4803911.484 8
 90  3  3  4 30 44.0800000  0  4G 6G 9G11G13
  20413974.789    20413979.278     1974510.923 9  -4878543.503 8
  21403751.813    21403755.227    -3223270.084 8  -3839976.615 9
  20665769.876    20665773.676     -870266.379 7  -2107024.682 8
  22948619.497    22948627.604    -4636876.942 9  -4843018.545 9
 90  3  3  4 30 59.0800000  0  4G 6G 9G11G13
  20413413.705    20413415.993     1971558.641 9  -4880843.987 9
  21396793.835    21396798.379    -3259828.907 8  -3868463.982 8
  20663832.496    20663836.116     -880445.334 8  -2114956.330 9
  22939085.036    22939091.129    -4686987.011 9  -4882065.285 9
 90  3  3  4 31 14.0800000  0  4G 6G 9G11G13
  20412876.289    20412879.201     1968732.856 9  -4883045.887 8
  21389852.529    21389855.584    -3296310.748 8  -3896891.363 8
  20661919.586    20661924.599     -890493.282 8  -2122785.879 8
  22929563.218    22929570.636    -4737019.157 9  -4921051.300 9
 90  3  3  4 31 29.0800000  0  4G 6G 9G11G13
  20412362.863    20412364.677     1966033.856 8  -4885148.993 9
  21382925.725    21382927.685    -3332715.422 9  -3925258.618 9
  20660033.881    20660037.648     -900410.272 8  -2130513.384 8
  22920058.023    22920065.370    -4786973.238 9  -4959976.495 8
 90  3  3  4 31 44.0800000  0  4G 6G 9G11G13
  20411872.811    20411875.845     1963461.867 8  -4887153.135 9
  21376011.872    21376015.307    -3369042.150 9  -3953565.129 9
  20658170.338    20658174.966     -910196.104 8  -2138138.708 9
  22910567.114    22910572.337    -4836848.932 9  -4998840.597 8
 90  3  3  4 31 59.0800000  0  4G 6G 9G11G13
  20411406.973    20411411.069     1961016.873 9  -4889058.326 9
  21369113.291    21369116.964    -3405291.290 9  -3981811.182 9
  20656332.455    20656337.278     -919851.226 7  -2145662.147 7
  22901090.925    22901096.486    -4886646.227 9  -5037643.632 7
 90  3  3  4 32 14.0800000  0  4G 6G 9G11G13
  20410965.375    20410969.432     1958698.813 8  -4890864.595 8
  21362230.269    21362234.325    -3441462.408 9  -4009996.452 9
  20654521.388    20654525.361     -929375.908 8  -2153083.969 8
  22891628.652    22891636.908    -4936364.933 8  -5076385.418 8
 90  3  3  4 32 29.0800000  0  4G 6G 9G11G13
  20410548.279    20410551.890     1956508.339 8  -4892571.445 9
  21355362.568    21355365.912    -3477554.669 9  -4038120.272 8
  20652733.988    20652738.605     -938769.912 8  -2160403.950 9
  22882183.228    22882190.243    -4986004.534 9  -5115065.557 7
 90  3  3  4 32 44.0800000  0  4G 6G 9G11G13
  20410156.800    20410160.460     1954445.825 9  -4894178.588 8
  21348509.557    21348512.205    -3513567.746 8  -4066182.363 8
  20650971.094    20650975.569     -948032.991 8  -2167621.921 9
  22872752.068    22872758.782    -5035564.502 9  -5153683.645 8
 90  3  3  4 32 59.0800000  0  4G 6G 9G11G13
  20409789.288    20409791.856     1952511.726 8  -4895685.669 9
  21341671.449    21341674.955    -3549501.011 9  -4094182.292 8
  20649232.958    20649238.375     -957164.803 8  -2174737.607 9
  22863336.494    22863342.221    -5085044.356 9  -5192239.309 8
 90  3  3  4 33 14.0800000  0  4G 6G 9G11G13
  20409445.814    20409448.270     1950706.238 9  -4897092.540 9
  21334849.237    21334852.498    -3585354.008 9  -4122119.662 9
  20647520.958    20647524.969     -966165.474 8  -2181751.126 8
  22853936.357    22853943.088    -5134443.821 9  -5230732.329 7
 90  3  3  4 33 29.0800000  0  4G 6G 9G11G13
  20409126.339    20409129.127     1949029.580 8  -4898399.025 9
  21328041.696    21328044.389    -3621126.237 9  -4149994.097 9
  20645833.014    20645836.703     -975035.189 8  -2188662.571 9
  22844551.341    22844556.778    -5183762.646 9  -5269162.516 7
 90  3  3  4 33 44.0800000  0  4G 6G 9G11G13
  20408832.016    20408833.983     1947481.820 9  -4899605.066 8
  21321250.274    21321252.615    -3656817.869 9  -4177805.741 9
  20644169.782    20644174.394     -983774.259 8  -2195472.209 9
  22835181.459    22835187.411    -5233000.818 9  -5307529.846 8
 90  3  3  4 33 59.0800000  0  4G 6G 9G11G13
  20408561.698    20408565.126     1946063.115 8  -4900710.540 9
  21314473.412    21314477.661    -3692428.309 9  -4205554.109 9
  20642532.742    20642534.937     -992382.675 8  -2202180.053 9
  22825827.248    22825834.165    -5282158.196 9  -5345834.232 7
 90  3  3  4 34 14.0800000  0  4G 6G 9G11G13
  20408316.222    20408320.036     1944773.606 9  -4901715.351 9
  21307712.904    21307716.086    -3727957.311 9  -4233239.024 9
  20640917.588    20640922.467    -1000860.548 8  -2208786.179 9
  22816488.216    22816493.456    -5331234.525 9  -5384075.475 8
 90  3  3  4 34 29.0800000  0  4G 6G 9G11G13
  20408095.176    20408099.102     1943613.380 9  -4902619.414 9
  21300967.377    21300970.326    -3763404.579 9  -4260860.247 8
  20639328.217    20639333.702    -1009208.121 7  -2215290.768 9
  22807164.135    22807170.448    -5380229.604 9  -5422253.394 8
 90  3  3  4 34 44.0800000  0  4G 6G 9G11G13
  20407900.215    20407902.140     1942582.483 8  -4903422.709 9
  21294238.133    21294240.714    -3798769.903 9  -4288417.615 9
  20637766.559    20637770.989    -1017425.506 8  -2221693.911 9
  22797856.389    22797863.160    -5429143.321 9  -5460367.906 9
 90  3  3  4 34 59.0800000  0  4G 6G 9G11G13
  20407728.382    20407730.421     1941681.190 8  -4904125.007 9
  21287524.244    21287526.301    -3834052.767 9  -4315910.741 9
  20636226.423    20636230.896    -1025512.674 8  -2227995.584 8
  22788564.475    22788570.734    -5477975.607 9  -5498418.975 9
 90  3  3  4 35 14.0800000  0  4G 6G 9G11G13
  20407580.159    20407585.186     1940909.701 8  -4904726.153 9
  21280824.228    21280828.647    -3869252.899 9  -4343339.375 9
  20634711.994    20634717.332    -1033469.750 8  -2234195.893 8
  22779288.261    22779293.062    -5526725.919 9  -5536406.171 8
 90  3  3  4 35 29.0800000  0  4G 6G 9G11G13
  20407458.881    20407461.390     1940268.204 9  -4905226.022 9
  21274141.855    21274144.618    -3904370.094 8  -4370703.415 8
  20633222.893    20633227.486    -1041296.855 8  -2240294.907 9
  22770027.031    22770031.919    -5575394.215 9  -5574329.458 9
 90  3  3  4 35 44.0800000  0  4G 6G 9G11G13
  20407362.885    20407365.221     1939756.934 9  -4905624.405 9
  21267474.974    21267478.049    -3939403.700 9  -4398002.297 8
  20631759.263    20631762.745    -1048993.973 8  -2246292.660 9
  22760779.699    22760785.356    -5623980.178 9  -5612188.593 9
 90  3  3  4 35 59.0800000  0  4G 6G 9G11G13
  20407289.398    20407291.201     1939375.936 9  -4905921.297 9
  21260825.198    21260827.048    -3974353.504 9  -4425235.897 9
  20630317.211    20630322.938    -1056561.236 8  -2252189.216 8
  22751549.777    22751557.143    -5672483.603 9  -5649983.398 8
 90  3  3  4 36 29.0800000  0  4G 6G 9G11G13
  20407219.026    20407222.800     1939006.890 8  -4906208.862 9
  21247571.673    21247574.186    -4043999.367 9  -4479505.353 9
  20627512.789    20627516.843    -1071305.530 9  -2263678.240 9
  22733137.836    22733143.809    -5769240.578 9  -5725378.315 9
 90  3  3  4 36 44.0800000  0  4G 6G 9G11G13
  20407220.842    20407225.004     1939018.843 9  -4906199.524 9
  21240970.262    21240971.440    -4078695.039 9  -4506540.921 8
  20626146.918    20626150.760    -1078483.019 8  -2269271.083 9
  22723954.637    22723961.681    -5817493.873 9  -5762978.219 8
 90  3  3  4 36 59.0800000  0  4G 6G 9G11G13
  20407248.397    20407252.374     1939162.116 9  -4906087.893 9
  21234383.758    21234384.827    -4113305.215 9  -4533509.859 9
  20624804.916    20624810.422    -1085530.730 9  -2274762.791 9
  22714788.266    22714795.061    -5865663.395 9  -5800512.859 8
 90  3  3  4 37 14.0800000  0  4G 6G 9G11G13
  20407300.508    20407303.949     1939436.978 9  -4905873.698 8
  21227813.750    21227816.527    -4147829.470 9  -4560411.842 8
  20623490.914    20623493.993    -1092448.806 7  -2280153.485 9
  22705637.561    22705645.262    -5913748.954 9  -5837982.058 8
 90  3  3  4 37 29.0800000  0  4G 6G 9G11G13
  20407378.325    20407380.732     1939843.415 9  -4905556.986 9
  21221260.798    21221262.952    -4182267.659 9  -4587246.778 9
  20622198.047    20622201.769    -1099237.461 8  -2285443.337 9
  22696503.529    22696510.452    -5961750.564 9  -5875385.846 8
 90  3  3  4 37 44.0800000  0  4G 6G 9G11G13
  20407481.103    20407483.069     1940381.732 9  -4905137.517 8
  21214723.412    21214726.168    -4216619.484 9  -4614014.406 9
  20620929.605    20620934.789    -1105896.723 9  -2290632.357 9
  22687385.739    22687392.013    -6009667.628 9  -5912723.744 8
 90  3  3  4 37 59.0800000  0  4G 6G 9G11G13
  20407608.794    20407610.535     1941051.828 9  -4904615.365 9
  21208202.307    21208205.574    -4250884.539 9  -4640714.433 7
  20619688.443    20619691.110    -1112426.840 8  -2295720.741 9
  22678284.104    22678289.249    -6057500.148 9  -5949995.777 8
 90  3  3  4 38 14.0800000  0  4G 6G 9G11G13
  20407760.975    20407763.881     1941853.756 8  -4903990.489 8
  21201698.361    21201701.706    -4285062.869 8  -4667346.871 8
  20618470.568    20618473.450    -1118828.119 8  -2300708.734 9
  22669198.213    22669201.693    -6105248.159 9  -5987201.965 8
 90  3  3  4 38 29.0800000  0  4G 6G 9G11G13
  20407939.754    20407941.500     1942787.425 9  -4903262.950 9
  21195211.051    21195214.777    -4319154.245 8  -4693911.562 8
  20617275.455    20617280.653    -1125100.808 8  -2305596.536 8
  22660126.466    22660133.506    -6152911.692 9  -6024342.329 8
 90  3  3  4 38 44.0800000  0  4G 6G 9G11G13
  20408141.534    20408145.139     1943853.213 9  -4902432.451 9
  21188740.221    21188742.387    -4353158.295 8  -4720408.204 8
  20616105.039    20616110.949    -1131244.942 8  -2310384.162 8
  22651072.708    22651079.130    -6200490.324 9  -6061416.531 8
 90  3  3  4 38 59.0800000  0  4G 6G 9G11G13
  20408369.308    20408371.639     1945051.207 9  -4901498.953 9
  21182285.813    21182289.448    -4387074.389 8  -4746836.300 8
  20614963.815    20614965.707    -1137260.623 8  -2315071.685 9
  22642035.251    22642042.955    -6247983.824 9  -6098424.385 9
 90  3  3  4 39 14.0800000  0  4G 6G 9G11G13
  20408622.921    20408625.215     1946381.882 8  -4900462.061 9
  21175848.578    21175851.853    -4420902.102 8  -4773195.525 9
  20613843.346    20613845.760    -1143147.757 8  -2319659.055 8
  22633014.633    22633020.260    -6295391.819 9  -6135365.614 9
 90  3  3  4 39 29.0800000  0  4G 6G 9G11G13
  20408900.953    20408903.408     1947845.285 9  -4899321.743 9
  21169428.439    21169431.490    -4454640.894 9  -4799485.480 8
  20612745.687    20612750.185    -1148906.470 8  -2324146.333 9
  22624008.543    22624015.267    -6342714.206 9  -6172240.149 8
 90  3  3  4 39 44.0800000  0  4G 6G 9G11G13
  20409204.046    20409207.634     1949441.524 9  -4898077.915 9
  21163024.289    21163029.067    -4488290.611 9  -4825706.012 8
  20611676.285    20611678.632    -1154536.828 8  -2328533.622 8
  22615020.223    22615026.502    -6389950.813 9  -6209047.833 8
 90  3  3  4 39 59.0800000  0  4G 6G 9G11G13
  20409533.780    20409536.255     1951170.624 8  -4896730.555 8
  21156638.453    21156642.354    -4521851.674 8  -4851857.473 8
  20610627.659    20610631.852    -1160039.068 7  -2332821.076 9
  22606046.391    22606053.872    -6437101.450 9  -6245788.526 9
 90  3  3  4 40 14.0800000  0  4G 6G 9G11G13
  20409889.015    20409892.142     1953032.757 8  -4895279.538 9
  21150269.601    21150273.188    -4555322.965 9  -4877938.978 8
  20609603.874    20609608.261    -1165413.547 8  -2337008.953 8
  22597091.618    22597097.193    -6484166.018 9  -6282462.158 9
 90  3  3  4 40 29.0800000  0  4G 6G 9G11G13
  20410268.373    20410270.649     1955028.063 9  -4893724.753 8
  21143917.544    21143919.849    -4588704.434 9  -4903950.491 8
  20608606.438    20608610.811    -1170660.253 8  -2341097.287 9
  22588152.002    22588157.912    -6531144.366 9  -6319068.606 9
 90  3  3  4 40 44.0800000  0  4G 6G 9G11G13
  20410672.546    20410675.934     1957156.827 8  -4892065.969 8
  21137581.224    21137584.605    -4621995.492 9  -4929891.552 9
  20607633.029    20607636.025    -1175779.017 8  -2345085.923 9
  22579228.057    22579234.565    -6578035.847 9  -6355607.369 8
 90  3  3  4 40 59.0800000  0  4G 6G 9G11G13
  20411103.928    20411106.028     1959419.242 9  -4890303.035 8
  21131265.036    21131267.797    -4655195.885 8  -4955761.954 9
  20606682.127    20606686.191    -1180770.023 8  -2348975.011 9
  22570322.176    22570326.804    -6624840.333 9  -6392078.326 9
 90  3  3  4 41 14.0800000  0  4G 6G 9G11G13
  20411558.429    20411562.295     1961815.294 9  -4888435.985 9
  21124963.656    21124966.087    -4688305.355 9  -4981561.521 9
  20605756.188    20605761.168    -1185633.545 7  -2352764.757 8
  22561431.881    22561436.609    -6671557.752 9  -6428481.464 8
 90  3  3  4 41 29.0800000  0  4G 6G 9G11G13
  20412040.870    20412042.880     1964345.344 8  -4886464.508 9
  21118680.283    21118683.696    -4721323.068 8  -5007289.603 8
  20604854.746    20604860.021    -1190369.590 9  -2356455.164 9
  22552558.333    22552564.086    -6718187.733 9  -6464816.456 7
 90  3  3  4 41 44.0800000  0  4G 6G 9G11G13
  20412547.792    20412549.733     1967009.616 9  -4884388.445 9
  21112415.007    21112418.180    -4754249.185 9  -5032946.289 8
  20603977.374    20603982.176    -1194978.294 7  -2360046.350 9
  22543702.082    22543707.451    -6764729.961 9  -6501083.063 9
 90  3  3  4 41 59.0800000  0  4G 6G 9G11G13
  20413081.832    20413083.521     1969808.200 8  -4882207.715 8
  21106166.427    21106169.353    -4787082.961 9  -5058531.033 9
  20603125.470    20603129.147    -1199459.767 8  -2363538.403 9
  22534862.373    22534867.562    -6811184.408 9  -6537281.285 9
 90  3  3  4 42 14.0800000  0  4G 6G 9G11G13
  20413638.574    20413640.906     1972741.123 9  -4879922.316 9
  21099935.803    21099939.513    -4819824.732 9  -5084044.073 8
  20602298.370    20602300.626    -1203814.106 8  -2366931.377 9
  22526037.631    22526043.105    -6857550.989 9  -6573411.030 8
 90  3  3  4 42 29.0800000  0  4G 6G 9G11G13
  20414222.623    20414225.033     1975808.627 9  -4877532.057 8
  21093723.304    21093727.106    -4852473.519 8  -5109484.671 9
  20601492.657    20601497.341    -1208041.404 8  -2370225.366 9
  22517231.588    22517238.024    -6903829.361 9  -6609472.041 8
 90  3  3  4 42 44.0800000  0  4G 6G 9G11G13
  20414832.902    20414833.817     1979010.997 9  -4875036.700 9
  21087528.646    21087531.486    -4885028.936 9  -5134852.502 8
  20600712.273    20600717.122    -1212141.665 7  -2373420.364 8
  22508442.029    22508449.095    -6950019.154 9  -6645464.031 8
 90  3  3  4 42 59.0800000  0  4G 6G 9G11G13
  20415466.992    20415468.541     1982348.383 9  -4872436.125 8
  21081351.803    21081353.920    -4917490.359 9  -5160147.103 8
  20599956.431    20599959.813    -1216115.085 8  -2376516.513 8
  22499669.218    22499675.477    -6996120.095 9  -6681386.788 9
 90  3  3  4 43 14.0800000  0  4G 6G 9G11G13
  20416126.188    20416131.024     1985820.716 8  -4869730.417 9
  21075192.088    21075194.525    -4949858.028 9  -5185368.643 9
  20599225.212    20599227.263    -1219961.787 9  -2379513.939 8
  22490914.757    22490919.119    -7042132.113 9  -6717240.248 8
 90  3  3  4 43 29.0800000  0  4G 6G 9G11G13
  20416814.239    20416817.619     1989428.134 8  -4866919.439 9
  21069050.156    21069053.563    -4982131.604 8  -5210516.879 9
  20598515.350    20598519.992    -1223681.942 8  -2382412.744 9
  22482175.132    22482180.257    -7088055.210 9  -6753024.428 9
 90  3  3  4 43 44.0800000  0  4G 6G 9G11G13
  20417526.540    20417529.138     1993170.851 9  -4864003.031 8
  21062927.205    21062929.031    -5014310.826 8  -5235591.567 8
  20597832.831    20597836.784    -1227275.760 8  -2385213.114 8
  22473452.976    22473459.726    -7133888.946 9  -6788738.981 7
 90  3  3  4 43 59.0800000  0  4G 6G 9G11G13
  20418263.618    20418266.697     1997049.047 8  -4860981.059 8
  21056820.948    21056824.406    -5046394.698 9  -5260591.973 8
  20597173.014    20597176.415    -1230743.187 8  -2387914.976 9
  22464747.188    22464753.253    -7179633.217 9  -6824383.802 8
 90  3  3  4 44 14.0800000  0  4G 6G 9G11G13
  20419027.018    20419031.394     2001062.969 8  -4857853.320 9
  21050734.153    21050737.982    -5078383.536 9  -5285518.323 9
  20596536.712    20596540.208    -1234084.385 8  -2390518.501 9
  22456060.307    22456067.172    -7225287.819 9  -6859958.762 7
 90  3  3  4 44 29.0800000  0  4G 6G 9G11G13
  20419818.545    20419821.169     2005212.859 9  -4854619.643 9
  21044665.414    21044668.708    -5110276.100 9  -5310369.654 8
  20595924.784    20595928.053    -1237299.527 9  -2393023.804 8
  22447389.949    22447395.996    -7270852.343 9  -6895463.535 9
 90  3  3  4 44 44.0800000  0  4G 6G 9G11G13
  20420633.651    20420636.075     2009498.836 9  -4851279.911 8
  21038614.690    21038616.691    -5142072.648 8  -5335146.170 8
  20595337.697    20595342.792    -1240388.513 8  -2395430.791 7
  22438736.317    22438742.567    -7316326.406 9  -6930897.815 8
 90  3  3  4 44 59.0800000  0  4G 6G 9G11G13
  20421474.938    20421476.438     2013920.919 9  -4847834.140 8
  21032582.877    21032585.819    -5173772.687 8  -5359847.480 8
  20594773.456    20594777.934    -1243351.677 8  -2397739.742 9
  22430099.683    22430104.760    -7361710.114 9  -6966261.689 8
 90  3  3  4 45 14.0800000  0  4G 6G 9G11G13
  20422342.423    20422346.100     2018479.052 9  -4844282.347 8
  21026567.680    21026571.357    -5205376.056 8  -5384473.458 9
  20594232.997    20594237.854    -1246189.183 8  -2399950.774 8
  22421481.228    22421485.320    -7407003.553 9  -7001555.218 8
 90  3  3  4 45 29.0800000  0  4G 6G 9G11G13
  20423235.235    20423237.543     2023173.406 8  -4840624.401 8
  21020572.648    21020575.513    -5236882.536 8  -5409023.947 9
  20593717.189    20593719.903    -1248901.329 8  -2402064.123 8
  22412879.006    22412884.437    -7452206.676 9  -7036778.383 8
 90  3  3  4 45 44.0800000  0  4G 6G 9G11G13
  20424153.121    20424156.966     2028004.067 8  -4836860.258 8
  21014595.832    21014598.449    -5268291.749 9  -5433498.636 8
  20593225.202    20593229.525    -1251488.212 7  -2404079.861 8
  22404294.355    22404300.170    -7497318.976 9  -7071930.759 8
 90  3  3  4 45 59.0800000  0  4G 6G 9G11G13
  20425099.743    20425102.066     2032971.297 8  -4832989.683 9
  21008636.994    21008640.519    -5299603.005 9  -5457897.011 8
  20592756.021    20592761.038    -1253949.854 9  -2405998.024 9
  22395726.886    22395731.405    -7542340.213 9  -7107012.172 8
 90  3  3  4 46 14.0800000  0  4G 6G 9G11G13
  20426069.911    20426073.607     2038075.234 9  -4829012.584 8
  21002696.780    21002700.982    -5330816.119 8  -5482218.890 8
  20592311.309    20592315.808    -1256286.376 9  -2407818.660 8
  22387176.766    22387181.580    -7587270.218 9  -7142022.522 8
 90  3  3  4 46 29.0800000  0  4G 6G 9G11G13
  20427069.107    20427070.302     2043316.102 7  -4824928.783 9
  20996777.041    20996780.109    -5361930.716 9  -5506464.006 8
  20591891.029    20591894.039    -1258497.766 8  -2409541.811 9
  22378644.321    22378649.114    -7632108.661 9  -7176961.508 8
 90  3  3  4 46 44.0800000  0  4G 6G 9G11G13
  20428092.468    20428094.767     2048693.931 9  -4820738.276 8
  20990874.832    20990877.832    -5392946.597 8  -5530632.211 8
  20591494.701    20591497.398    -1260584.323 9  -2411167.687 9
  22370129.127    22370134.633    -7676855.515 9  -7211829.123 8
 90  3  3  4 46 59.0800000  0  4G 6G 9G11G13
  20429140.460    20429144.122     2054208.608 9  -4816441.111 9
  20984992.175    20984994.259    -5423863.240 9  -5554723.077 9
  20591120.212    20591124.423    -1262546.286 8  -2412696.476 8
  22361631.733    22361636.876    -7721510.460 9  -7246625.131 8
 90  3  3  4 47 14.0800000  0  4G 6G 9G11G13
  20430216.149    20430219.612     2059860.502 7  -4812037.050 8
  20979127.599    20979130.296    -5454680.384 8  -5578736.425 8
  20590771.811    20590775.126    -1264383.743 8  -2414128.251 9
  22353152.215    22353156.502    -7766073.370 9  -7281349.411 8
 90  3  3  4 47 29.0800000  0  4G 6G 9G11G13
  20431318.656    20431321.107     2065649.654 9  -4807526.012 8
  20973282.310    20973284.702    -5485397.755 8  -5602672.014 8
  20590444.902    20590448.518    -1266096.820 8  -2415463.105 9
  22344689.192    22344693.568    -7810543.914 9  -7316001.721 8
 90  3  3  4 47 44.0800000  0  4G 6G 9G11G13
  20432446.444    20432449.671     2071576.084 9  -4802908.012 9
  20967455.374    20967457.515    -5516014.999 9  -5626529.589 9
  20590143.149    20590146.234    -1267685.858 8  -2416701.299 8
  22336244.714    22336249.169    -7854922.142 9  -7350582.102 9
 90  3  3  4 47 59.0800000  0  4G 6G 9G11G13
  20433599.132    20433602.426     2077639.924 8  -4798182.942 9
  20961649.290    20961650.922    -5546531.879 9  -5650308.958 9
  20589864.234    20589867.234    -1269150.997 8  -2417842.963 9
  22327817.493    22327822.011    -7899207.795 9  -7385090.352 8
 90  3  3  4 48 14.0800000  0  4G 6G 9G11G13
  20434779.904    20434782.767     2083841.312 9  -4793350.687 8
  20955860.732    20955862.312    -5576948.092 9  -5674009.887 8
  20589608.786    20589613.564    -1270492.262 8  -2418888.090 8
  22319406.194    22319412.602    -7943400.772 9  -7419526.375 8
 90  3  3  4 48 29.0800000  0  4G 6G 9G11G13
  20435987.357    20435989.677     2090180.353 9  -4788411.171 8
  20950092.039    20950093.211    -5607263.056 9  -5697631.914 8
  20589374.994    20589380.783    -1271709.844 9  -2419836.843 9
  22311014.872    22311020.387    -7987500.797 9  -7453889.971 8
 90  3  3  4 48 44.0800000  0  4G 6G 9G11G13
  20437219.171    20437221.870     2096657.351 8  -4783364.158 8
  20944342.482    20944344.574    -5637476.640 8  -5721174.939 9
  20589167.814    20589171.930    -1272803.872 9  -2420689.320 9
  22302640.675    22302646.021    -8031507.624 9  -7488180.944 9
 90  3  3  4 48 59.0800000  0  4G 6G 9G11G13
  20438477.399    20438481.028     2103272.236 8  -4778209.703 8
  20938612.051    20938615.772    -5667588.254 9  -5744638.523 8
  20588984.016    20588988.076    -1273774.439 9  -2421445.597 9
  22294284.914    22294289.530    -8075421.138 9  -7522399.209 9
 90  3  3  4 49 14.0800000  0  4G 6G 9G11G13
  20439763.093    20439765.075     2110025.011 9  -4772947.805 9
  20932900.933    20932904.453    -5697597.744 9  -5768022.515 8
  20588822.961    20588827.332    -1274621.939 8  -2422105.980 9
  22285944.772    22285950.926    -8119241.185 9  -7556544.646 8
 90  3  3  4 49 29.0800000  0  4G 6G 9G11G13
  20441073.983    20441076.691     2116915.856 8  -4767578.318 8
  20927209.951    20927212.514    -5727504.749 9  -5791326.641 7
  20588684.124    20588688.718    -1275346.514 9  -2422670.577 8
  22277624.160    22277629.864    -8162967.502 8  -7590617.043 9
 90  3  3  4 49 44.0800000  0  4G 6G 9G11G13
  20442411.311    20442414.735     2123945.020 9  -4762101.039 8
  20921538.700    20921541.323    -5757308.889 7  -5814550.639 8
  20588570.967    20588573.894    -1275948.082 9  -2423139.312 8
  22269321.784    22269327.373    -8206599.954 9  -7624616.287 9
 90  3  3  4 49 59.0800000  0  4G 6G 9G11G13
  20443776.004    20443778.403     2131112.690 8  -4756515.843 8
  20915887.285    20915890.248    -5787009.812 8  -5837694.200 9
  20588479.491    20588482.248    -1276426.803 9  -2423512.333 9
  22261037.283    22261041.552    -8250138.408 9  -7658542.318 7
 90  3  3  4 50 14.0800000  0  4G 6G 9G11G13
  20445166.687    20445168.741     2138418.838 8  -4750822.737 9
  20910254.983    20910256.629    -5816607.053 9  -5860756.964 8
  20588411.313    20588414.890    -1276782.823 8  -2423789.731 8
  22252769.426    22252774.615    -8293582.572 9  -7692394.844 8
 90  3  3  4 50 29.0800000  0  4G 6G 9G11G13
  20446582.103    20446585.525     2145863.493 9  -4745021.706 8
  20904642.429    20904644.365    -5846100.453 8  -5883738.809 9
  20588367.545    20588371.042    -1277016.437 9  -2423971.764 9
  22244519.736    22244525.299    -8336932.532 9  -7726173.975 8
 90  3  3  4 50 44.0800000  0  4G 6G 9G11G13
  20448026.616    20448027.898     2153446.976 8  -4739112.490 8
  20899049.481    20899051.869    -5875489.532 9  -5906639.371 9
  20588346.157    20588349.214    -1277127.629 9  -2424058.391 8
  22236288.339    22236293.705    -8380187.690 9  -7759879.251 8
 90  3  3  4 50 59.0800000  0  4G 6G 9G11G13
  20449495.034    20449496.330     2161169.066 9  -4733095.269 9
  20893477.726    20893479.925    -5904773.986 8  -5929458.414 8
  20588347.178    20588351.818    -1277116.884 9  -2424049.998 9
  22228074.840    22228080.967    -8423348.335 9  -7793510.869 8
 90  3  3  4 51 14.0800000  0  4G 6G 9G11G13
  20450990.761    20450995.565     2169030.424 9  -4726969.541 8
  20887923.732    20887927.576    -5933953.266 9  -5952195.483 9
  20588371.979    20588376.277    -1276983.771 8  -2423946.276 9
  22219880.721    22219885.486    -8466413.708 9  -7827068.234 8
 90  3  3  4 51 29.0800000  0  4G 6G 9G11G13
  20452514.238    20452515.712     2177030.737 9  -4720735.522 8
  20882392.079    20882394.868    -5963027.324 8  -5974850.578 8
  20588421.441    20588426.350    -1276728.930 9  -2423747.686 8
  22211703.407    22211708.644    -8509383.810 9  -7860551.385 8
 90  3  3  4 51 44.0800000  0  4G 6G 9G11G13
  20454062.623    20454065.204     2185170.285 9  -4714393.016 8
  20876879.309    20876882.821    -5991995.593 8  -5997423.237 8
  20588494.694    20588497.528    -1276352.396 8  -2423454.278 9
  22203543.796    22203549.600    -8552258.665 9  -7893960.306 8
 90  3  3  4 51 59.0800000  0  4G 6G 9G11G13
  20455637.228    20455641.225     2193449.024 9  -4707942.040 8
  20871387.283    20871391.036    -6020857.939 8  -6019913.350 8
  20588587.456    20588592.163    -1275854.378 9  -2423066.214 9
  22195404.298    22195409.118    -8595038.247 9  -7927294.982 7
 90  3  3  4 52 14.0800000  0  4G 6G 9G11G13
  20457240.586    20457242.509     2201867.120 9  -4701382.484 8
  20865915.135    20865917.035    -6049613.878 9  -6042320.553 8
  20588705.030    20588709.494    -1275234.866 8  -2422583.456 9
  22187281.016    22187285.506    -8637722.036 9  -7960555.033 8
 90  3  3  4 52 29.0800000  0  4G 6G 9G11G13
  20458869.843    20458870.096     2210424.697 8  -4694714.243 9
  20860462.969    20860466.372    -6078262.847 8  -6064644.405 8
  20588847.089    20588850.077    -1274494.077 9  -2422006.208 9
  22179176.839    22179183.412    -8680309.937 9  -7993740.353 8
 90  3  3  4 52 44.0800000  0  4G 6G 9G11G13
  20460522.771    20460525.507     2219122.057 9  -4687937.071 8
  20855031.370    20855033.940    -6106804.619 9  -6086884.728 8
  20589011.712    20589014.476    -1273632.050 8  -2421334.489 9
  22171092.265    22171096.919    -8722801.558 9  -8026850.659 9
 90  3  3  4 52 59.0800000  0  4G 6G 9G11G13
  20462204.682    20462207.123     2227959.326 9  -4681050.882 8
  20849620.393    20849623.428    -6135238.780 8  -6109041.197 7
  20589197.751    20589201.266    -1272648.763 8  -2420568.268 8
  22163023.987    22163029.785    -8765196.797 9  -8059885.851 8
 90  3  3  4 53 14.0800000  0  4G 6G 9G11G13
  20463913.277    20463915.742     2236936.533 8  -4674055.651 8
  20844231.198    20844232.384    -6163565.064 8  -6131113.609 7
  20589407.504    20589411.892    -1271544.441 9  -2419707.766 8
  22154974.329    22154979.005    -8807495.370 9  -8092845.731 8
 90  3  3  4 53 29.0800000  0  4G 6G 9G11G13
  20465647.785    20465650.210     2246053.752 9  -4666951.332 8
  20838860.831    20838863.225    -6191783.049 9  -6153101.626 8
  20589641.011    20589644.941    -1270319.264 9  -2418753.063 9
  22146943.626    22146948.040    -8849696.907 9  -8125729.996 8
 90  3  3  4 53 44.0800000  0  4G 6G 9G11G13
  20467408.937    20467412.349     2255311.041 8  -4659737.857 8
  20833511.185    20833513.367    -6219892.535 8  -6175005.111 8
  20589897.851    20589901.108    -1268973.752 9  -2417704.616 9
  22138932.105    22138935.335    -8891801.472 9  -8158538.718 9
 90  3  3  4 53 59.0800000  0  4G 6G 9G11G13
  20469198.456    20469200.738     2264708.373 9  -4652415.257 9
  20828183.896    20828186.565    -6247893.056 8  -6196823.669 8
  20590176.325    20590180.462    -1267508.012 9  -2416562.468 9
  22130936.860    22130943.039    -8933808.994 9  -8191271.802 8
 90  3  3  4 54 14.0800000  0  4G 6G 9G11G13
  20471013.574    20471015.895     2274245.998 9  -4644983.334 8
  20822875.201    20822877.540    -6275784.215 8  -6218557.033 8
  20590478.841    20590481.298    -1265922.080 8  -2415326.653 8
  22122961.850    22122968.020    -8975719.139 9  -8223929.003 9
 90  3  3  4 54 29.0800000  0  4G 6G 9G11G13
  20472854.525    20472857.466     2283923.892 8  -4637442.117 9
  20817588.116    20817592.687    -6303565.872 8  -6240205.056 7
  20590800.951    20590807.174    -1264216.113 8  -2413997.329 9
  22115005.195    22115010.647    -9017532.048 9  -8256510.439 8
 90  3  3  4 54 44.0800000  0  4G 6G 9G11G13
  20474723.425    20474724.894     2293742.129 9  -4629791.549 8
  20812324.065    20812326.212    -6331237.660 8  -6261767.483 8
  20591151.123    20591154.162    -1262390.315 9  -2412574.601 8
  22107066.862    22107072.980    -9059247.450 9  -8289015.906 9
 90  3  3  4 54 59.0800000  0  4G 6G 9G11G13
  20476619.574    20476619.933     2303700.909 9  -4622031.456 9
  20807077.902    20807080.380    -6358799.084 8  -6283243.898 8
  20591519.833    20591524.293    -1260444.794 8  -2411058.605 9
  22099147.411    22099152.911    -9100864.961 9  -8321445.095 9
 90  3  3  4 55 14.0800000  0  4G 6G 9G11G13
  20478539.365    20478542.523     2313800.268 9  -4614161.822 9
  20801854.945    20801857.892    -6386249.763 9  -6304634.008 7
  20591912.506    20591916.946    -1258379.762 8  -2409449.496 8
  22091247.214    22091252.629    -9142384.744 9  -8353798.121 8
 90  3  3  4 55 29.0800000  0  4G 6G 9G11G13
  20480487.912    20480491.265     2324040.217 9  -4606182.645 8
  20796652.715    20796655.006    -6413589.711 9  -6325937.839 8
  20592328.530    20592331.937    -1256195.478 7  -2407747.447 9
  22083364.383    22083368.925    -9183806.581 9  -8386074.832 8
 90  3  3  4 55 44.0800000  0  4G 6G 9G11G13
  20482464.266    20482467.116     2334420.863 8  -4598093.840 8
  20791471.580    20791473.726    -6440818.367 8  -6347154.955 8
  20592767.928    20592771.572    -1253892.009 8  -2405952.530 8
  22075500.355    22075506.974    -9225130.216 9  -8418275.017 9
 90  3  3  4 55 59.0800000  0  4G 6G 9G11G13
  20484465.566    20484468.256     2344942.366 9  -4589895.242 8
  20786309.459    20786311.990    -6467935.292 8  -6368285.009 8
  20593228.150    20593231.732    -1251469.537 9  -2404064.874 9
  22067654.991    22067661.390    -9266355.399 9  -8450398.488 8
 90  3  3  4 56 14.0800000  0  4G 6G 9G11G13
  20486494.864    20486497.588     2355604.756 9  -4581586.904 8
  20781171.730    20781174.196    -6494940.248 8  -6389327.826 9
  20593712.286    20593715.591    -1248928.225 9  -2402084.617 8
  22059830.072    22059833.753    -9307481.971 9  -8482445.133 8
 90  3  3  4 56 29.0800000  0  4G 6G 9G11G13
  20488551.238    20488552.769     2366408.122 8  -4573168.694 9
  20776052.908    20776056.493    -6521832.799 8  -6410283.035 8
  20594217.667    20594220.525    -1246268.247 8  -2400011.906 9
  22052022.433    22052026.606    -9348509.621 9  -8514414.673 8
 90  3  3  4 56 44.0800000  0  4G 6G 9G11G13
  20490633.569    20490636.491     2377352.600 8  -4564640.535 7
  20770958.304    20770959.667    -6548612.729 9  -6431150.510 8
  20594746.516    20594750.962    -1243489.857 8  -2397846.924 9
  22044233.883    22044238.908    -9389438.230 9  -8546307.066 8
 90  3  3  4 56 59.0800000  0  4G 6G 9G11G13
  20492743.505    20492745.415     2388437.997 9  -4556002.565 9
  20765883.474    20765885.451    -6575279.790 9  -6451930.016 8
  20595297.601    20595301.644    -1240593.293 9  -2395589.850 8
  22036464.266    22036469.829    -9430268.131 9  -8578122.518 8
 90  3  3  4 57 14.0800000  0  4G 6G 9G11G13
  20494879.908    20494881.634     2399664.574 9  -4547254.584 8
  20760830.281    20760832.756    -6601833.609 9  -6472621.293 7
  20595871.801    20595875.276    -1237578.612 8  -2393240.743 9
  22028712.816    22028718.589    -9470999.064 9  -8609860.864 8
 90  3  3  4 57 29.0800000  0  4G 6G 9G11G13
  20497042.432    20497044.407     2411032.292 8  -4538396.619 8
  20755798.124    20755802.245    -6628273.860 8  -6493224.077 8
  20596467.404    20596470.834    -1234446.075 8  -2390799.791 8
  22020981.595    22020986.245    -9511630.714 9  -8641521.852 9
 90  3  3  4 57 44.0800000  0  4G 6G 9G11G13
  20499232.634    20499235.732     2422541.384 9  -4529428.496 8
  20750789.687    20750791.964    -6654599.998 8  -6513737.932 9
  20597087.840    20597089.310    -1231195.779 8  -2388267.078 9
  22013268.763    22013273.238    -9552162.746 9  -8673105.210 9
 90  3  3  4 57 59.0800000  0  4G 6G 9G11G13
  20501450.822    20501452.173     2434191.778 8  -4520350.264 8
  20745802.057    20745804.409    -6680811.822 9  -6534162.719 8
  20597726.508    20597731.272    -1227828.012 9  -2385642.848 9
  22005574.716    22005580.021    -9592595.041 9  -8704610.848 8
 90  3  3  4 58 14.0800000  0  4G 6G 9G11G13
  20503693.972    20503697.087     2445983.632 9  -4511161.801 8
  20740834.938    20740837.196    -6706908.916 8  -6554498.106 8
  20598390.205    20598394.684    -1224342.953 8  -2382927.204 9
  21997898.973    21997906.048    -9632927.465 9  -8736038.669 8
 90  3  3  4 58 29.0800000  0  4G 6G 9G11G13
  20505964.950    20505967.368     2457917.022 9  -4501863.070 8
  20735891.084    20735894.457    -6732891.142 8  -6574743.972 8
  20599076.178    20599079.494    -1220740.652 8  -2380120.208 9
  21990243.951    21990248.827    -9673159.928 9  -8767388.596 7
 90  3  3  4 58 44.0800000  0  4G 6G 9G11G13
  20508262.108    20508264.304     2469991.995 9  -4492453.988 8
  20730970.097    20730971.605    -6758757.886 8  -6594899.868 8
  20599782.727    20599787.954    -1217021.339 8  -2377222.027 8
  21982606.802    21982610.717    -9713292.168 9  -8798660.431 8
 90  3  3  4 58 59.0800000  0  4G 6G 9G11G13
  20510587.892    20510589.792     2482208.782 9  -4482934.421 8
  20726068.129    20726071.013    -6784508.909 7  -6614965.584 8
  20600513.584    20600516.959    -1213185.073 8  -2374232.728 9
  21974988.383    21974993.039    -9753323.955 9  -8829853.987 8
 90  3  3  4 59 14.0800000  0  4G 6G 9G11G13
  20512939.105    20512941.309     2494567.492 9  -4473304.251 8
  20721190.321    20721193.261    -6810143.704 9  -6634940.743 8
  20601265.760    20601269.948    -1209232.069 9  -2371152.457 9
  21967389.709    21967394.698    -9793255.188 9  -8860969.184 9
 90  3  3  4 59 29.0800000  0  4G 6G 9G11G13
  20515318.090    20515320.039     2507067.635 9  -4463563.895 8
  20716333.981    20716337.218    -6835662.278 8  -6654825.334 8
  20602039.717    20602044.337    -1205162.874 9  -2367981.654 9
  21959810.846    21959815.124    -9833086.163 9  -8892006.263 8
 90  3  3  4 59 44.0800000  0  4G 6G 9G11G13
  20517723.589    20517724.135     2519709.343 9  -4453713.218 7
  20711500.367    20711503.379    -6861064.578 8  -6674619.333 8
  20602836.460    20602840.152    -1200977.783 7  -2364720.528 8
  21952249.634    21952254.356    -9872816.827 9  -8922965.177 8
 90  3  3  4 59 59.0800000  0  4G 6G 9G11G13
  20520154.414    20520157.012     2532492.665 8  -4443752.172 8
  20706688.729    20706691.956    -6886350.040 9  -6694322.282 8
  20603655.356    20603658.256    -1196676.867 9  -2361369.160 9
  21944708.157    21944713.154    -9912446.803 9  -8953845.634 9
 90  3  3  5  0 14.0800000  0  4G 6G 9G11G13
  20522615.931    20522617.423     2545417.658 9  -4433680.763 9
  20701898.071    20701902.582    -6911518.484 8  -6713934.050 7
  20604495.038    20604498.787    -1192260.355 8  -2357927.714 9
  21937187.137    21937191.178    -9951976.128 9  -8984647.667 8
 90  3  3  5  0 29.0800000  0  4G 6G 9G11G13
  20525101.900    20525104.882     2558483.823 9  -4423499.329 8
  20697132.866    20697134.556    -6936570.030 8  -6733454.715 8
  20605358.358    20605361.668    -1187728.940 7  -2354396.741 8
  21929682.424    21929687.750    -9991404.791 9  -9015371.252 8
 90  3  3  5  0 44.0800000  0  4G 6G 9G11G13
  20527614.529    20527617.277     2571691.571 9  -4413207.583 8
  20692387.024    20692390.504    -6961504.133 8  -6752883.880 8
  20606242.312    20606245.057    -1183082.679 8  -2350776.262 9
  21922199.077    21922204.085   -10030732.663 8  -9046016.297 9
 90  3  3  5  0 59.0800000  0  4G 6G 9G11G13
  20530155.339    20530156.526     2585040.861 9  -4402805.544 8
  20687663.734    20687667.470    -6986320.342 9  -6772221.160 8
  20607147.779    20607151.142    -1178321.669 8  -2347066.374 8
  21914733.651    21914740.245   -10069959.406 9  -9076582.557 9
 90  3  3  5  1 14.0800000  0  4G 6G 9G11G13
  20532723.222    20532724.883     2598531.914 9  -4392293.042 8
  20682965.082    20682967.439    -7011018.303 7  -6791466.314 9
  20608075.883    20608079.370    -1173445.813 9  -2343266.986 9
  21907289.637    21907294.199   -10109085.037 9  -9107070.018 8
 90  3  3  5  1 29.0800000  0  4G 6G 9G11G13
  20535315.647    20535319.125     2612164.774 8  -4381670.026 8
  20678287.427    20678289.891    -7035597.554 8  -6810618.967 9
  20609026.213    20609028.551    -1168455.516 8  -2339378.432 9
  21899862.880    21899868.207   -10148109.195 9  -9137478.414 8
 90  3  3  5  1 44.0800000  0  4G 6G 9G11G13
  20537938.008    20537940.027     2625939.546 8  -4370936.459 9
  20673633.175    20673635.493    -7060057.915 8  -6829678.972 8
  20609996.643    20610000.159    -1163350.807 9  -2335400.732 9
  21892456.649    21892461.265   -10187031.597 9  -9167807.514 8
 90  3  3  5  1 59.0800000  0  4G 6G 9G11G13
  20540586.370    20540587.720     2639856.083 9  -4360092.392 8
  20668999.830    20669004.111    -7084398.925 8  -6848645.980 8
  20610990.034    20610993.174    -1158131.980 7  -2331334.105 8
  21885068.922    21885073.526   -10225852.326 9  -9198057.382 8
 90  3  3  5  2 14.0800000  0  4G 6G 9G11G13
  20543261.646    20543263.432     2653914.673 9  -4349137.653 9
  20664392.280    20664393.755    -7108620.285 8  -6867519.750 8
  20612003.173    20612008.529    -1152799.248 9  -2327178.723 9
  21877701.462    21877705.726   -10264571.272 9  -9228227.955 8
 90  3  3  5  2 29.0800000  0  4G 6G 9G11G13
  20545963.134    20545966.940     2668115.306 8  -4338072.236 9
  20659806.566    20659807.797    -7132721.496 8  -6886299.899 9
  20613041.276    20613044.314    -1147352.632 8  -2322934.605 9
  21870353.011    21870357.847   -10303188.113 9  -9258318.948 8
 90  3  3  5  2 44.0800000  0  4G 6G 9G11G13
  20548693.820    20548696.189     2682457.836 9  -4326896.243 8
  20655243.343    20655244.739    -7156702.753 8  -6904986.591 8
  20614098.657    20614102.803    -1141792.531 9  -2318602.057 8
  21863022.950    21863027.864   -10341702.831 9  -9288330.380 8
 90  3  3  5  2 59.0800000  0  4G 6G 9G11G13
  20551449.522    20551451.299     2696941.946 8  -4315609.925 8
  20650702.957    20650704.599    -7180563.770 8  -6923579.583 9
  20615177.902    20615182.540    -1136119.605 7  -2314181.574 9
  21855713.139    21855717.500   -10380115.786 9  -9318262.512 8
 90  3  3  5  3 14.0800000  0  4G 6G 9G11G13
  20554231.274    20554235.317     2711567.885 8  -4304213.099 9
  20646183.672    20646186.494    -7204304.186 8  -6942078.595 9
  20616279.130    20616282.912    -1130333.761 9  -2309673.126 9
  21848422.943    21848427.863   -10418426.612 9  -9348115.064 9
 90  3  3  5  3 29.0800000  0  4G 6G 9G11G13
  20557042.523    20557046.340     2726335.740 8  -4292705.674 9
  20641689.463    20641692.066    -7227923.486 7  -6960483.241 8
  20617401.228    20617405.997    -1124435.204 9  -2305076.834 8
  21841151.768    21841157.646   -10456635.195 9  -9377887.944 8
 90  3  3  5  3 44.0800000  0  4G 6G 9G11G13
  20559880.624    20559883.115     2741245.508 9  -4281087.682 7
  20637218.197    20637221.145    -7251421.542 8  -6978793.403 8
  20618545.322    20618549.992    -1118424.085 9  -2300392.838 8
  21833900.830    21833905.055   -10494741.383 9  -9407581.043 8
 90  3  3  5  3 59.0800000  0  4G 6G 9G11G13
  20562743.367    20562746.156     2756297.133 8  -4269359.148 8
  20632768.443    20632772.489    -7274798.187 8  -6997008.954 8
  20619709.662    20619714.537    -1112300.798 8  -2295621.436 9
  21826668.284    21826672.494   -10532745.155 9  -9437194.331 8
 90  3  3  5  4 14.0800000  0  4G 6G 9G11G13
  20565635.338    20565637.183     2771490.716 9  -4257520.002 8
  20628344.621    20628345.844    -7298052.940 9  -7015129.524 9
  20620897.324    20620900.882    -1106065.371 9  -2290762.647 9
  21819457.161    21819460.074   -10570646.187 9  -9466727.553 8
 90  3  3  5  4 29.0800000  0  4G 6G 9G11G13
  20568552.704    20568556.722     2786826.225 8  -4245570.256 9
  20623942.351    20623944.643    -7321185.318 8  -7033154.746 8
  20622105.506    20622110.447    -1099718.170 7  -2285816.773 9
  21812263.678    21812268.054   -10608444.451 9  -9496180.717 8
 90  3  3  5  4 44.0800000  0  4G 6G 9G11G13
  20571497.961    20571501.939     2802303.643 8  -4233509.936 8
  20619562.955    20619566.204    -7344195.281 8  -7051084.561 9
  20623333.808    20623338.315    -1093259.448 9  -2280783.987 9
  21805090.240    21805094.930   -10646139.908 9  -9525553.758 8
 90  3  3  5  4 59.0800000  0  4G 6G 9G11G13
  20574471.236    20574473.305     2817923.074 9  -4221338.967 8
  20615208.096    20615211.303    -7367082.357 8  -7068918.640 8
  20624583.724    20624588.308    -1086689.435 8  -2275664.480 9
  21797935.294    21797941.699   -10683732.335 9  -9554846.511 8
 90  3  3  5  5 14.0800000  0  4G 6G 9G11G13
  20577470.848    20577472.831     2833684.534 9  -4209057.306 8
  20610876.227    20610878.514    -7389846.284 9  -7086656.746 8
  20625855.745    20625859.764    -1080008.189 8  -2270458.318 9
  21790803.210    21790807.142   -10721221.566 9  -9584058.862 8
 90  3  3  5  5 29.0800000  0  4G 6G 9G11G13
  20580496.036    20580499.088     2849588.181 8  -4196664.866 8
  20606567.843    20606571.226    -7412486.626 9  -7104298.566 8
  20627147.998    20627152.337    -1073215.866 8  -2265165.581 8
  21783688.651    21783692.844   -10758607.448 9  -9613190.681 9
 90  3  3  5  5 44.0800000  0  4G 6G 9G11G13
  20583550.704    20583553.597     2865634.114 8  -4184161.559 8
  20602282.581    20602284.980    -7435002.792 8  -7121843.619 9
  20628462.116    20628465.941    -1066312.616 8  -2259786.417 8
  21776593.856    21776598.011   -10795889.801 9  -9642241.830 8
 90  3  3  5  5 59.0800000  0  4G 6G 9G11G13
  20586631.438    20586634.051     2881822.287 9  -4171547.403 8
  20598021.792    20598025.096    -7457394.810 8  -7139291.932 9
  20629796.884    20629800.625    -1059298.726 8  -2254321.031 9
  21769519.065    21769524.036   -10833068.425 9  -9671212.144 8
 90  3  3  5  6 14.0800000  0  4G 6G 9G11G13
  20589738.242    20589741.215     2898152.629 8  -4158822.463 8
  20593785.093    20593787.163    -7479662.278 7  -7156643.194 8
  20631151.707    20631155.485    -1052174.382 8  -2248769.593 9
  21762463.265    21762468.740   -10870143.385 9  -9700101.695 8
 90  3  3  5  6 29.0800000  0  4G 6G 9G11G13
  20592871.595    20592874.736     2914624.586 8  -4145987.183 8
  20589571.121    20589573.974    -7501805.533 9  -7173897.678 8
  20632528.891    20632533.213    -1044940.410 9  -2243132.720 8
  21755428.689    21755433.087   -10907115.003 9  -9728910.700 8
 90  3  3  5  6 44.0800000  0  4G 6G 9G11G13
  20596033.727    20596037.922     2931238.715 9  -4133041.105 9
  20585381.628    20585383.404    -7523823.681 8  -7191054.654 8
  20633926.518    20633929.841    -1037596.460 9  -2237410.164 9
  21748413.093    21748416.258   -10943982.644 9  -9757638.701 8
 90  3  3  5  6 59.0800000  0  4G 6G 9G11G13
  20599223.373    20599226.399     2947995.204 8  -4119984.110 9
  20581214.576    20581218.415    -7545716.310 8  -7208113.834 8
  20635344.615    20635348.837    -1030142.727 8  -2231602.041 8
  21741416.058    21741420.977   -10980746.299 9  -9786285.660 8
 90  3  3  5  7 14.0800000  0  4G 6G 9G11G13
  20602438.101    20602440.836     2964894.037 7  -4106816.200 8
  20577072.780    20577075.370    -7567482.764 8  -7225074.693 7
  20636784.578    20636788.397    -1022579.338 8  -2225708.488 9
  21734440.710    21734445.810   -11017405.598 9  -9814851.308 9
 90  3  3  5  7 29.0800000  0  4G 6G 9G11G13
  20605681.354    20605684.554     2981935.133 8  -4093537.424 8
  20572955.517    20572956.896    -7589123.289 8  -7241937.414 8
  20638243.953    20638247.216    -1014906.587 8  -2219729.709 9
  21727485.441    21727488.406   -11053960.398 9  -9843335.535 8
 90  3  3  5  7 44.0800000  0  4G 6G 9G11G13
  20608951.098    20608954.460     2999118.614 8  -4080147.700 8
  20568861.457    20568863.854    -7610637.249 8  -7258701.529 8
  20639724.925    20639729.237    -1007124.581 7  -2213665.800 9
  21720548.219    21720552.600   -11090410.578 9  -9871738.227 8
 90  3  3  5  7 59.0800000  0  4G 6G 9G11G13
  20612248.072    20612251.244     3016444.423 9  -4066647.091 8
  20564792.173    20564792.817    -7632024.389 8  -7275366.821 8
  20641226.406    20641230.986     -999233.474 8  -2207516.869 9
  21713631.539    21713636.547   -11126756.176 9  -9900059.437 8
 90  3  3  5  8 14.0800000  0  4G 6G 9G11G13
  20615571.885    20615574.924     3033912.711 9  -4053035.446 8
  20560746.280    20560749.220    -7653284.430 8  -7291933.078 8
  20642748.301    20642753.331     -991233.435 9  -2201283.065 8
  21706735.785    21706741.340   -11162996.963 9  -9928298.979 8
 90  3  3  5  8 29.0800000  0  4G 6G 9G11G13
  20618924.247    20618926.584     3051523.236 8  -4039312.955 8
  20556724.543    20556726.423    -7674417.136 9  -7308400.116 8
  20644291.960    20644295.284     -983124.970 8  -2194964.778 9
  21699859.073    21699864.130   -11199132.952 9  -9956456.862 8
 90  3  3  5  8 44.0800000  0  4G 6G 9G11G13
  20622301.641    20622305.330     3069276.049 8  -4025479.590 8
  20552727.382    20552730.057    -7695422.223 9  -7324767.706 8
  20645854.675    20645859.955     -974908.146 8  -2188562.041 9
  21693002.195    21693006.152   -11235163.963 9  -9984532.932 8
 90  3  3  5  8 59.0800000  0  4G 6G 9G11G13
  20625707.192    20625710.281     3087171.526 8  -4011535.070 8
  20548755.452    20548756.621    -7716299.026 7  -7341035.318 8
  20647439.599    20647443.683     -966582.920 8  -2182074.838 8
  21686166.195    21686171.267   -11271089.633 9 -10012526.919 8
 90  3  3  5  9 14.0800000  0  4G 6G 9G11G13
  20629139.829    20629143.277     3105209.488 8  -3997479.529 7
  20544806.640    20544808.236    -7737047.242 9  -7357202.760 8
  20649043.144    20649048.219     -958149.646 9  -2175503.452 9
  21679349.674    21679354.742   -11306909.785 9 -10040438.689 8
 90  3  3  5  9 29.0800000  0  4G 6G 9G11G13
  20632600.810    20632601.894     3123389.852 8  -3983313.002 8
  20540882.237    20540883.217    -7757666.783 8  -7373269.929 8
  20650669.526    20650673.496     -949608.708 8  -2168848.171 9
  21672552.802    21672557.416   -11342624.372 9 -10068268.205 8
 90  3  3  5  9 44.0800000  0  4G 6G 9G11G13
  20636086.906    20636088.943     3141712.355 9  -3969035.738 8
  20536983.455    20536985.702    -7778157.605 8  -7389236.786 8
  20652315.494    20652318.858     -940960.558 8  -2162109.342 9
  21665777.594    21665781.921   -11378233.750 9 -10096015.732 8
 90  3  3  5  9 59.0800000  0  4G 6G 9G11G13
  20639600.783    20639602.957     3160177.022 9  -3954647.699 9
  20533107.238    20533110.424    -7798519.461 8  -7405103.168 7
  20653981.217    20653985.477     -932205.334 8  -2155287.090 9
  21659021.549    21659024.809   -11413737.914 9 -10123681.289 9
 90  3  3  5 10 14.0800000  0  4G 6G 9G11G13
  20643138.632    20643143.271     3178783.936 8  -3940148.801 8
  20529258.417    20529260.244    -7818751.949 9  -7420868.729 9
  20655667.668    20655671.494     -923343.194 9  -2148381.514 9
  21652284.999    21652289.132   -11449136.547 9 -10151264.603 9
 90  3  3  5 10 29.0800000  0  4G 6G 9G11G13
  20646708.497    20646711.187     3197532.992 8  -3925539.149 9
  20525432.788    20525434.833    -7838854.820 8  -7436533.289 8
  20657374.822    20657378.271     -914374.433 9  -2141392.863 9
  21645568.699    21645572.981   -11484429.650 9 -10178765.689 8
 90  3  3  5 10 44.0800000  0  4G 6G 9G11G13
  20650303.850    20650305.090     3216424.256 8  -3910818.691 9
  20521632.910    20521634.214    -7858827.472 9  -7452096.379 8
  20659102.761    20659104.932     -905299.103 8  -2134321.172 9
  21638873.486    21638877.232   -11519617.050 9 -10206184.399 8
 90  3  3  5 10 59.0800000  0  4G 6G 9G11G13
  20653926.084    20653929.439     3235457.689 8  -3895987.454 8
  20517855.486    20517858.505    -7878669.816 8  -7467557.936 8
  20660848.779    20660852.346     -896117.535 8  -2127166.684 8
  21632197.767    21632200.860   -11554698.464 9 -10233520.537 9
 90  3  3  5 11 14.0800000  0  4G 6G 9G11G13
  20657573.460    20657577.339     3254633.129 8  -3881045.560 8
  20514105.887    20514107.771    -7898381.782 8  -7482917.910 8
  20662616.115    20662619.694     -886830.219 8  -2119929.812 8
  21625540.753    21625545.890   -11589674.062 9 -10260774.210 8
 90  3  3  5 11 29.0800000  0  4G 6G 9G11G13
  20661249.967    20661252.672     3273950.580 8  -3865993.016 8
  20510379.793    20510381.116    -7917963.116 9  -7498176.079 8
  20664403.772    20664406.931     -877437.193 8  -2112610.569 9
  21618905.420    21618910.508   -11624543.674 9 -10287945.300 9
 90  3  3  5 11 44.0800000  0  4G 6G 9G11G13
  20664953.263    20664955.653     3293409.984 8  -3850829.834 8
  20506677.917    20506680.183    -7937413.102 9  -7513331.902 7
  20666211.424    20666215.082     -867938.767 9  -2105209.193 8
  21612290.744    21612295.009   -11659307.440 9 -10315033.919 8
 90  3  3  5 11 59.0800000  0  4G 6G 9G11G13
  20668683.236    20668686.449     3313011.386 9  -3835556.026 8
  20503001.675    20503004.802    -7956731.614 9  -7528385.283 9
  20668037.934    20668043.363     -858335.168 9  -2097725.858 8
  21605695.534    21605700.769   -11693965.151 9 -10342039.887 8
 90  3  3  5 12 14.0800000  0  4G 6G 9G11G13
  20672440.254    20672442.975     3332754.792 8  -3820171.562 8
  20499350.358    20499353.359    -7975918.665 8  -7543336.224 8
  20669885.870    20669889.992     -848626.578 8  -2090160.711 9
  21599118.297    21599123.889   -11728516.595 9 -10368963.052 8
 90  3  3  5 12 29.0800000  0  4G 6G 9G11G13
  20676225.077    20676227.032     3352640.099 9  -3804676.527 9
  20495724.755    20495726.856    -7994974.140 8  -7558184.645 8
  20671753.440    20671756.921     -838813.174 8  -2082513.905 9
  21592565.821    21592569.762   -11762961.546 9 -10395803.246 9
 90  3  3  5 12 44.0800000  0  4G 6G 9G11G13
  20680034.908    20680037.495     3372667.302 8  -3789070.913 9
  20492123.727    20492125.281    -8013897.156 8  -7572929.841 8
  20673642.472    20673644.195     -828895.344 9  -2074785.726 8
  21586031.837    21586035.062   -11797300.336 9 -10422560.709 9
 90  3  3  5 12 59.0800000  0  4G 6G 9G11G13
  20683874.004    20683876.009     3392836.429 8  -3773354.713 9
  20488547.435    20488549.850    -8032687.487 9  -7587571.659 7
  20675548.571    20675551.971     -818873.190 8  -2066976.250 9
  21579517.205    21579520.526   -11831532.721 9 -10449235.247 8
 90  3  3  5 13 14.0800000  0  4G 6G 9G11G13
  20687738.172    20687741.130     3413147.388 9  -3757528.002 8
  20484997.506    20485000.039    -8051344.942 8  -7602109.929 9
  20677475.170    20677478.123     -808747.060 8  -2059085.748 8
  21573021.742    21573027.704   -11865658.705 9 -10475826.899 8
 90  3  3  5 13 29.0800000  0  4G 6G 9G11G13
  20691631.826    20691633.123     3433600.220 8  -3741590.740 8
  20481473.225    20481474.891    -8069869.323 8  -7616544.488 8
  20679422.040    20679425.774     -798517.086 8  -2051114.336 8
  21566549.283    21566552.760   -11899677.894 9 -10502335.317 8
 90  3  3  5 13 44.0800000  0  4G 6G 9G11G13
  20695549.522    20695552.473     3454194.917 8  -3725542.931 8
  20477973.219    20477974.453    -8088259.990 9  -7630874.876 8
  20681387.736    20681391.597     -788183.363 9  -2043062.075 8
  21560096.420    21560100.343   -11933590.071 9 -10528760.362 8
 90  3  3  5 13 59.0800000  0  4G 6G 9G11G13
  20699495.087    20699497.894     3474931.387 9  -3709384.646 9
  20474497.965    20474500.071    -8106517.062 8  -7645101.162 8
  20683374.126    20683376.763     -777746.314 8  -2034929.299 7
  21553661.942    21553667.713   -11967395.339 9 -10555102.085 8
 90  3  3  5 14 14.0800000  0  4G 6G 9G11G13
  20703469.213    20703472.242     3495809.711 8  -3693115.825 9
  20471050.223    20471051.533    -8124639.857 8  -7659222.805 8
  20685380.689    20685383.500     -767206.143 8  -2026716.165 8
  21547249.781    21547255.947   -12001093.468 9 -10581360.341 8
 90  3  3  5 14 29.0800000  0  4G 6G 9G11G13
  20707468.791    20707471.534     3516829.810 8  -3676736.541 8
  20467626.820    20467628.574    -8142628.603 9  -7673239.996 8
  20687404.742    20687408.224     -756563.120 9  -2018422.901 8
  21540857.672    21540862.327   -12034684.543 9 -10607535.172 8
 90  3  3  5 14 44.0800000  0  4G 6G 9G11G13
  20711495.869    20711497.793     3537991.529 8  -3660246.896 9
  20464229.060    20464230.694    -8160482.790 8  -7687152.342 8
  20689449.411    20689454.706     -745817.503 7  -2010049.689 9
  21534485.809    21534489.808   -12068168.639 9 -10633626.627 7
 90  3  3  5 14 59.0800000  0  4G 6G 9G11G13
  20715549.694    20715553.421     3559294.836 9  -3643646.928 9
  20460856.010    20460859.107    -8178202.486 8  -7700959.899 9
  20691514.662    20691518.877     -734969.564 9  -2001596.745 7
  21528133.890    21528139.011   -12101545.510 9 -10659634.555 8
 90  3  3  5 15 14.0800000  0  4G 6G 9G11G13
  20719630.958    20719633.277     3580739.516 5  -3626936.797 8
  20457511.367    20457512.998    -8195787.069 3  -7714662.145 3
  20693598.241    20693602.142     -724019.697 8  -1993064.380 8
  21521802.933    21521807.692   -12134815.228 9 -10685558.978 8
 90  3  3  5 15 29.0800000  0  4G 6G 9G11G13
  20723738.391    20723741.843     3602325.542 8  -3610116.524 9
  20454190.016    20454191.876    -8213236.663 6  -7728259.228 5
  20695702.276    20695704.441     -712968.084 8  -1984452.719 9
  21515492.865    21515497.554   -12167977.591 9 -10711399.755 8
 90  3  3  5 15 44.0800000  0  4G 6G 9G11G13
  20727873.155    20727875.761     3624053.023 8  -3593186.010 8
  20450896.371    20450897.058    -8230550.305 4  -7741750.365 6
  20697824.545    20697826.627     -701814.831 9  -1975761.875 9
  21509202.717    21509206.746   -12201032.704 9 -10737156.940 8
 90  3  3  5 15 59.0800000  0  4G 6G 9G11G13
  20732034.197    20732036.158     3645921.893 8  -3576145.342 7
  20447627.582    20447627.766    -8247727.823 1  -7755135.440 1
  20699965.594    20699969.479     -690560.096 8  -1966991.941 9
  21502933.489    21502936.844   -12233980.325 9 -10762830.381 8
 90  3  3  5 16 14.0800000  0  4G 6G 9G11G13
  20736222.394    20736225.420     3667932.072 8  -3558994.561 8
  20444383.558    20444385.905    -8264769.622 8  -7768414.761 8
  20702126.276    20702130.479     -679204.315 9  -1958143.278 9
  21496683.033    21496687.349   -12266820.478 9 -10788420.073 8
 90  3  3  5 16 29.0800000  0  4G 6G 9G11G13
  20740436.923    20740439.055     3690083.494 9  -3541733.718 8
  20441167.468    20441168.197    -8281675.197 8  -7781587.920 8
  20704306.321    20704309.762     -667747.773 9  -1949216.088 7
  21490455.022    21490459.452   -12299552.896 9 -10813925.834 8
 90  3  3  5 16 44.0800000  0  4G 6G 9G11G13
  20744680.444    20744683.120     3712376.162 8  -3524362.814 9
  20437975.516    20437978.421    -8298443.574 8  -7794654.198 8
  20706505.008    20706508.395     -656190.424 8  -1940210.360 9
  21484246.873    21484251.857   -12332177.785 9 -10839347.787 8
 90  3  3  5 16 59.0800000  0  4G 6G 9G11G13
  20748948.948    20748951.667     3734810.073 8  -3506881.850 8
  20434810.138    20434814.260    -8315075.264 8  -7807613.937 9
  20708723.979    20708727.827     -644532.628 8  -1931126.356 8
  21478058.607    21478062.831   -12364694.772 9 -10864685.670 8
 90  3  3  5 17 14.0800000  0  4G 6G 9G11G13
  20753244.980    20753247.580     3757385.114 8  -3489290.923 8
  20431672.377    20431674.566    -8331569.907 8  -7820466.885 8
  20710960.887    20710964.710     -632774.684 9  -1921964.325 9
  21471891.488    21471895.776   -12397103.771 9 -10889939.401 8
 90  3  3  5 17 29.0800000  0  4G 6G 9G11G13
  20757567.237    20757570.738     3780101.267 8  -3471590.024 8
  20428558.927    20428561.432    -8347926.600 9  -7833212.371 9
  20713217.272    20713221.225     -620916.874 9  -1912724.470 8
  21465745.375    21465748.283   -12429404.889 9 -10915109.066 8
 90  3  3  5 17 44.0800000  0  4G 6G 9G11G13
  20761916.360    20761919.992     3802958.477 9  -3453779.224 9
  20425472.076    20425475.626    -8364145.823 8  -7845850.714 8
  20715492.518    20715497.318     -608959.312 8  -1903406.870 8
  21459618.803    21459622.552   -12461598.040 9 -10940194.617 8
 90  3  3  5 17 59.0800000  0  4G 6G 9G11G13
  20766291.817    20766296.929     3825956.623 8  -3435858.591 8
  20422413.102    20422415.633    -8380226.758 9  -7858381.302 8
  20717788.011    20717790.475     -596902.413 9  -1894011.888 9
  21453513.216    21453516.538   -12493683.196 9 -10965196.008 8
 90  3  3  5 18 14.0800000  0  4G 6G 9G11G13
  20770697.772    20770699.593     3849095.662 8  -3417828.182 9
  20419379.269    20419382.061    -8396169.627 8  -7870804.309 8
  20720100.973    20720104.586     -584746.369 8  -1884539.633 9
  21447427.938    21447431.702   -12525660.381 9 -10990113.275 8
 90  3  3  5 18 29.0800000  0  4G 6G 9G11G13
  20775127.705    20775129.514     3872375.570 9  -3399688.003 7
  20416371.834    20416374.752    -8411973.776 8  -7883119.230 8
  20722433.000    20722435.757     -572491.383 8  -1874990.280 8
  21441363.826    21441367.133   -12557529.451 9 -11014946.269 8
 90  3  3  5 18 44.0800000  0  4G 6G 9G11G13
  20779583.663    20779586.084     3895796.243 8  -3381438.143 8
  20413389.999    20413393.952    -8427639.158 7  -7895326.006 8
  20724784.532    20724787.135     -560137.575 8  -1865363.922 9
  21435319.745    21435322.228   -12589290.243 9 -11039694.912 9
 90  3  3  5 18 59.0800000  0  4G 6G 9G11G13
  20784066.491    20784070.576     3919357.710 8  -3363078.568 7
  20410435.154    20410438.902    -8443165.335 8  -7907424.323 7
  20727153.709    20727156.738     -547685.317 9  -1855660.859 8
  21429297.315    21429299.435   -12620942.567 9 -11064359.026 8
 90  3  3  5 19 14.0800000  0  4G 6G 9G11G13
  20788577.397    20788580.346     3943059.829 9  -3344609.390 8
  20407508.251    20407511.010    -8458552.126 7  -7919414.010 8
  20729541.449    20729544.086     -535134.829 9  -1845881.249 9
  21423293.075    21423298.253   -12652486.494 9 -11088938.679 8
 90  3  3  5 19 29.0800000  0  4G 6G 9G11G13
  20793114.282    20793117.140     3966902.547 9  -3326030.657 8
  20404606.808    20404609.313    -8473799.356 8  -7931294.977 8
  20731947.908    20731951.706     -522486.370 9  -1836025.297 9
  21417311.514    21417315.265   -12683921.857 9 -11113433.733 8
 90  3  3  5 19 44.0800000  0  4G 6G 9G11G13
  20797678.331    20797680.465     3990885.697 8  -3307342.501 8
  20401731.576    20401734.424    -8488906.596 8  -7943066.846 9
  20734374.289    20734378.253     -509740.222 9  -1826093.233 9
  21411350.363    21411354.578   -12715248.653 9 -11137844.194 7
 90  3  3  5 19 59.0800000  0  4G 6G 9G11G13
  20802269.642    20802271.070     4015009.255 8  -3288544.940 9
  20398882.761    20398886.552    -8503873.621 8  -7954729.439 9
  20736818.367    20736822.034     -496896.539 9  -1816085.154 9
  21405409.192    21405414.153   -12746467.019 9 -11162170.174 8
 90  3  3  5 20 14.0800000  0  4G 6G 9G11G13
  20806888.048    20806889.693     4039273.226 9  -3269637.938 8
  20396061.172    20396065.524    -8518700.422 7  -7966282.790 8
  20739280.251    20739285.282     -483955.742 9  -1806001.419 8
  21399489.945    21399492.282   -12777576.644 9 -11186411.403 8
 90  3  3  5 20 29.0800000  0  4G 6G 9G11G13
  20811531.322    20811533.847     4063677.453 8  -3250621.670 7
  20393267.277    20393270.712    -8533386.739 7  -7977726.667 8
  20741762.207    20741765.698     -470918.050 9  -1795842.163 9
  21393590.575    21393593.731   -12808577.619 9 -11210567.977 8
 90  3  3  5 20 44.0800000  0  4G 6G 9G11G13
  20816199.790    20816203.054     4088221.887 9  -3231496.154 8
  20390500.438    20390502.683    -8547932.072 8  -7989060.685 8
  20744261.404    20744264.391     -457783.683 8  -1785607.581 9
  21387711.022    21387716.619   -12839469.905 9 -11234639.868 8
 90  3  3  5 20 59.0800000  0  4G 6G 9G11G13
  20820899.243    20820901.032     4112906.304 9  -3212261.557 8
  20387758.412    20387761.015    -8562336.083 8  -8000284.575 8
  20746778.226    20746780.748     -444552.974 9  -1775297.934 9
  21381853.798    21381858.029   -12870253.597 9 -11258627.129 9
 90  3  3  5 21 14.0800000  0  4G 6G 9G11G13
  20825621.732    20825624.280     4137730.719 8  -3192917.856 8
  20385045.534    20385047.078    -8576598.880 9  -8011398.433 8
  20749314.931    20749318.382     -431226.144 9  -1764913.383 8
  21376016.824    21376021.361   -12900928.676 9 -11282529.757 8
 90  3  3  5 21 29.0800000  0  4G 6G 9G11G13
  20830372.535    20830375.511     4162694.974 9  -3173465.212 9
  20382357.766    20382359.841    -8590720.208 8  -8022402.062 8
  20751868.228    20751872.783     -417803.562 8  -1754454.228 8
  21370199.671    21370205.427   -12931494.908 9 -11306347.579 8
 90  3  3  5 21 44.0800000  0  4G 6G 9G11G13
  20835150.085    20835151.435     4187798.944 9  -3153903.692 9
  20379695.819    20379698.420    -8604700.058 8  -8033295.433 8
  20754440.894    20754445.473     -404285.405 9  -1743920.597 8
  21364403.922    21364407.930   -12961952.231 9 -11330080.519 8
 90  3  3  5 21 59.0800000  0  4G 6G 9G11G13
  20839954.569    20839955.577     4213042.601 9  -3134233.307 8
  20377063.836    20377066.807    -8618537.597 8  -8044077.926 8
  20757032.384    20757035.211     -390671.852 9  -1733312.621 8
  21358628.765    21358634.233   -12992300.685 9 -11353728.648 9
 90  3  3  5 22 14.0800000  0  4G 6G 9G11G13
  20844783.308    20844786.190     4238425.793 9  -3114454.213 9
  20374458.317    20374460.535    -8632232.917 8  -8054749.596 8
  20759641.247    20759644.000     -376963.276 8  -1722630.606 8
  21352874.577    21352879.500   -13022540.260 9 -11377291.914 8
 90  3  3  5 22 29.0800000  0  4G 6G 9G11G13
  20849641.394    20849643.648     4263948.545 9  -3094566.359 8
  20371878.770    20371881.684    -8645785.769 7  -8065310.254 8
  20762267.574    20762270.710     -363159.876 9  -1711874.693 8
  21347140.876    21347145.350   -13052670.853 9 -11400770.271 8
 90  3  3  5 22 44.0800000  0  4G 6G 9G11G13
  20854525.938    20854526.231     4289610.611 9  -3074569.950 9
  20369326.765    20369328.943    -8659195.692 9  -8075759.540 8
  20764912.207    20764915.592     -349261.934 8  -1701045.134 8
  21341427.711    21341432.606   -13082692.289 9 -11424163.575 8
 90  3  3  5 22 59.0800000  0  4G 6G 9G11G13
  20859433.790    20859437.346     4315411.967 9  -3054465.019 8
  20366801.957    20366804.009    -8672462.714 8  -8086097.462 8
  20767574.716    20767577.522     -335269.716 9  -1690142.093 9
  21335735.278    21335740.405   -13112604.570 8 -11447471.813 9
 90  3  3  5 23 14.0800000  0  4G 6G 9G11G13
  20864369.289    20864373.588     4341352.574 8  -3034251.558 8
  20364304.699    20364307.704    -8685586.678 8  -8096323.930 8
  20770255.353    20770256.848     -321183.471 9  -1679165.787 9
  21330063.837    21330070.241   -13142407.689 9 -11470694.987 9
 90  3  3  5 23 29.0800000  0  4G 6G 9G11G13
  20869333.493    20869335.730     4367432.254 9  -3013929.748 8
  20361834.441    20361837.680    -8698567.047 7  -8106438.497 7
  20772953.321    20772957.854     -307003.454 9  -1668116.409 8
  21324413.353    21324416.675   -13172101.538 9 -11493833.019 9
 90  3  3  5 23 44.0800000  0  4G 6G 9G11G13
  20874322.537    20874325.231     4393650.929 8  -2993499.610 7
  20359391.563    20359395.525    -8711403.757 8  -8116441.126 8
  20775668.960    20775673.071     -292729.948 8  -1656994.211 8
  21318784.024    21318789.085   -13201686.313 9 -11516886.065 7
 90  3  3  5 23 59.0800000  0  4G 6G 9G11G13
  20879337.850    20879339.748     4420008.488 9  -2972961.257 9
  20356976.224    20356978.302    -8724096.542 8  -8126331.594 8
  20778403.446    20778405.443     -278363.190 9  -1645799.329 9
  21313174.563    21313180.004   -13231161.920 9 -11539854.044 8
 90  3  3  5 24 14.0800000  0  4G 6G 9G11G13
  20884379.198    20884382.365     4446504.850 9  -2952314.763 8
  20354588.639    20354590.396    -8736645.096 8  -8136109.663 8
  20781154.893    20781158.033     -263903.495 9  -1634532.029 8
  21307587.070    21307591.679   -13260528.451 9 -11562737.015 8
 90  3  3  5 24 29.0800000  0  4G 6G 9G11G13
  20889449.445    20889451.682     4473139.942 9  -2931560.154 8
  20352228.241    20352231.071    -8749049.314 7  -8145775.287 8
  20783923.465    20783928.063     -249351.026 9  -1623192.440 9
  21302019.170    21302023.673   -13289785.693 9 -11585534.841 9
 90  3  3  5 24 44.0800000  0  4G 6G 9G11G13
  20894544.319    20894545.872     4499913.796 8  -2910697.412 8
  20349895.934    20349897.282    -8761308.833 8  -8155328.155 9
  20786710.639    20786713.637     -234706.034 9  -1611780.746 8
  21296473.034    21296477.137   -13318933.448 9 -11608247.349 8
 90  3  3  5 24 59.0800000  0  4G 6G 9G11G13
  20899664.649    20899666.673     4526826.153 9  -2889726.756 9
  20347590.394    20347592.959    -8773423.339 8  -8164768.035 8
  20789515.549    20789518.601     -219968.812 9  -1600297.198 8
  21290946.861    21290950.077   -13347971.608 9 -11630874.450 9
 90  3  3  5 25 14.0800000  0  4G 6G 9G11G13
  20904811.626    20904815.037     4553876.958 9  -2868648.221 8
  20345311.301    20345315.177    -8785392.738 8  -8174094.836 7
  20792338.123    20792340.720     -205139.762 8  -1588742.077 8
  21285441.359    21285445.916   -13376900.417 9 -11653416.352 8
 90  3  3  5 25 29.0800000  0  4G 6G 9G11G13
  20909987.459    20909990.072     4581066.093 9  -2847461.903 9
  20343061.873    20343064.422    -8797216.772 8  -8183308.345 8
  20795176.798    20795180.294     -190218.881 9  -1577115.413 9
  21279956.508    21279961.383   -13405719.713 8 -11675872.915 8
 90  3  3  5 25 44.0800000  0  4G 6G 9G11G13
  20915186.980    20915189.689     4608393.484 9  -2826167.842 8
  20340840.352    20340843.140    -8808895.079 8  -8192408.322 8
  20798032.964    20798036.781     -175206.448 9  -1565417.414 8
  21274494.391    21274497.362   -13434429.639 9 -11698244.255 8
 90  3  3  5 25 59.0800000  0  4G 6G 9G11G13
  20920411.725    20920415.348     4635859.116 9  -2804766.059 9
  20338644.862    20338647.656    -8820427.768 8  -8201394.825 8
  20800908.057    20800910.880     -160102.782 8  -1553648.320 8
  21269052.620    21269055.540   -13463030.214 9 -11720530.393 9
 90  3  3  5 26 14.0800000  0  4G 6G 9G11G13
  20925666.333    20925669.575     4663462.569 8  -2783256.886 9
  20336477.733    20336480.120    -8831814.184 8  -8210267.341 8
  20803799.470    20803801.766     -144908.260 8  -1541808.417 8
  21263629.581    21263634.312   -13491521.208 9 -11742731.142 8
 90  3  3  5 26 29.0800000  0  4G 6G 9G11G13
  20930945.623    20930948.692     4691204.037 9  -2761640.167 9
  20334339.216    20334343.000    -8843054.363 8  -8219025.928 8
  20806707.756    20806711.181     -129623.124 8  -1529897.917 9
  21258229.641    21258233.366   -13519902.627 9 -11764846.504 8
 90  3  3  5 26 44.0800000  0  4G 6G 9G11G13
  20936249.886    20936253.656     4719083.237 8  -2739916.128 8
  20332228.949    20332231.352    -8854148.122 8  -8227670.406 7
  20809633.315    20809636.632     -114247.592 9  -1517916.982 9
  21252849.487    21252852.875   -13548174.442 9 -11786876.460 8
 90  3  3  5 26 59.0800000  0  4G 6G 9G11G13
  20941582.233    20941584.518     4747100.082 9  -2718084.866 9
  20330144.851    20330148.337    -8865095.257 8  -8236200.647 8
  20812576.537    20812580.207      -98781.901 9  -1505865.781 8
  21247491.212    21247494.876   -13576336.555 9 -11808820.945 8
 90  3  3  5 27 14.0800000  0  4G 6G 9G11G13
  20946940.012    20946941.623     4775254.436 9  -2696146.403 8
  20328089.748    20328092.618    -8875895.252 8  -8244616.224 7
  20815536.794    20815539.959      -83226.275 9  -1493744.511 8
  21242152.574    21242156.224   -13604388.760 9 -11830679.775 9
 90  3  3  5 27 29.0800000  0  4G 6G 9G11G13
  20952323.131    20952326.743     4803546.297 8  -2674100.810 8
  20326062.892    20326065.671    -8886548.189 8  -8252917.201 8
  20818514.046    20818516.125      -67581.000 9  -1481553.399 8
  21236834.725    21236838.324   -13632331.441 9 -11852453.253 8
 90  3  3  5 27 44.0800000  0  4G 6G 9G11G13
  20957732.379    20957736.106     4831975.464 8  -2651948.241 9
  20324063.245    20324067.196    -8897053.684 8  -8261103.299 9
  20821508.866    20821512.358      -51846.443 9  -1469292.706 7
  21231538.038    21231541.936   -13660164.572 9 -11874141.394 8
 90  3  3  5 27 59.0800000  0  4G 6G 9G11G13
  20963169.341    20963172.113     4860541.794 9  -2629688.786 9
  20322092.953    20322095.230    -8907411.686 7  -8269174.462 8
  20824519.423    20824522.163      -36022.693 9  -1456962.507 8
  21226262.490    21226265.804   -13687887.774 9 -11895743.859 8
 90  3  3  5 28 14.0800000  0  4G 6G 9G11G13
  20968631.521    20968634.274     4889245.210 8  -2607322.498 8
  20320150.095    20320152.830    -8917621.964 8  -8277130.515 8
  20827547.590    20827550.891      -20110.084 9  -1444563.064 9
  21221007.510    21221012.034   -13715501.154 9 -11917260.752 8
 90  3  3  5 28 29.0800000  0  4G 6G 9G11G13
  20974118.838    20974122.567     4918085.459 9  -2584849.587 9
  20318235.736    20318237.741    -8927684.177 8  -8284971.195 8
  20830591.774    20830594.899       -4108.978 8  -1432094.652 8
  21215774.513    21215778.105   -13743004.674 9 -11938692.036 9
 90  3  3  5 28 44.0800000  0  4G 6G 9G11G13
  20979633.159    20979636.731     4947062.545 8  -2562270.059 9
  20316347.854    20316350.518    -8937598.131 8  -8292696.347 8
  20833655.170    20833657.269       11980.373 8  -1419557.497 8
  21210561.446    21210564.352   -13770398.330 9 -11960037.726 8
 90  3  3  5 28 59.0800000  0  4G 6G 9G11G13
  20985174.036    20985176.247     4976176.340 8  -2539584.007 8
  20314491.874    20314493.527    -8947363.721 7  -8300305.899 8
  20836733.506    20836735.746       28157.665 8  -1406951.813 9
  21205369.541    21205372.913   -13797682.187 9 -11981297.841 7
 90  3  3  5 29 14.0800000  0  4G 6G 9G11G13
  20990740.457    20990742.123     5005426.651 9  -2516791.562 8
  20312660.344    20312662.990    -8956980.636 8  -8307799.593 8
  20839827.055    20839831.133       44422.745 9  -1394277.721 8
  21200198.249    21200202.603   -13824856.311 9 -12002472.455 7
 90  3  3  5 29 29.0800000  0  4G 6G 9G11G13
  20996332.046    20996333.957     5034813.367 8  -2493892.837 8
  20310859.304    20310860.616    -8966448.688 8  -8315177.291 8
  20842939.712    20842942.412       60775.295 9  -1381535.466 9
  21195048.114    21195052.045   -13851920.692 9 -12023561.558 8
 90  3  3  5 29 44.0800000  0  4G 6G 9G11G13
  21001950.066    21001952.435     5064336.406 9  -2470887.888 9
  20309084.235    20309088.172    -8975767.756 8  -8322438.904 8
  20846067.345    20846072.287       77215.205 9  -1368725.159 8
  21189919.400    21189922.607   -13878875.085 9 -12044564.956 8
 90  3  3  5 29 59.0800000  0  4G 6G 9G11G13
  21007593.826    21007596.607     5093995.552 9  -2447776.875 9
  20307340.122    20307342.181    -8984937.579 8  -8329584.209 8
  20849213.141    20849215.447       93742.055 9  -1355847.084 9
  21184810.698    21184813.011   -13905719.638 9 -12065482.772 8
 90  3  3  5 30 14.0800000  0  4G 6G 9G11G13
  21013264.288    21013266.741     5123790.644 8  -2424559.931 9
  20305623.246    20305626.540    -8993957.984 8  -8336613.105 8
  20852374.207    20852376.961      110355.547 9  -1342901.512 8
  21179722.894    21179726.359   -13932454.298 9 -12086314.952 9
 90  3  3  5 30 29.0800000  0  4G 6G 9G11G13
  21018959.006    21018962.115     5153721.662 8  -2401237.079 9
  20303934.527    20303939.495    -9002828.722 8  -8343525.360 7
  20855551.923    20855554.759      127055.509 8  -1329888.544 9
  21174656.546    21174660.277   -13959078.925 9 -12107061.388 8
 90  3  3  5 30 44.0800000  0  4G 6G 9G11G13
  21024681.063    21024683.417     5183788.435 9  -2377808.434 8
  20302275.342    20302277.707    -9011549.500 8  -8350320.761 8
  20858746.822    20858750.018      143841.711 8  -1316808.395 8
  21169611.462    21169614.704   -13985593.553 9 -12127722.111 8
 90  3  3  5 30 59.0800000  0  4G 6G 9G11G13
  21030428.640    21030431.136     5213990.748 9  -2354274.182 8
  20300644.750    20300648.494    -9020120.393 8  -8356999.384 9
  20861958.509    20861961.179      160713.848 9  -1303661.279 7
  21164586.718    21164589.611   -14011998.212 9 -12148297.155 8
 90  3  3  5 31 14.0800000  0  4G 6G 9G11G13
  21036201.356    21036204.637     5244328.553 9  -2330634.344 8
  20299042.873    20299044.822    -9028541.101 7  -8363560.962 8
  20865183.594    20865187.647      177671.568 8  -1290447.462 8
  21159582.574    21159584.935   -14038293.004 9 -12168786.576 8
 90  3  3  5 31 29.0800000  0  4G 6G 9G11G13
  21041998.855    21042002.609     5274801.726 9  -2306889.023 8
  20297468.350    20297472.273    -9036811.444 7  -8370005.390 8
  20868426.993    20868430.231      194714.563 9  -1277167.200 8
  21154599.947    21154603.784   -14064477.772 9 -12189190.261 8
 90  3  3  5 31 44.0800000  0  4G 6G 9G11G13
  21047824.513    21047827.481     5305409.791 9  -2283038.600 8
  20295924.471    20295926.292    -9044931.129 7  -8376332.406 8
  20871686.643    20871688.644      211842.614 9  -1263820.653 7
  21149637.069    21149640.902   -14090552.709 9 -12209508.376 9
 90  3  3  5 31 59.0800000  0  4G 6G 9G11G13
  21053674.756    21053677.223     5336152.985 9  -2259082.866 9
  20294407.416    20294409.239    -9052900.111 8  -8382542.007 8
  20874961.498    20874964.823      229055.404 8  -1250408.092 8
  21144695.769    21144700.788   -14116517.852 9 -12229740.935 7
 90  3  3  5 32 14.0800000  0  4G 6G 9G11G13
  21059551.386    21059553.781     5367030.896 9  -2235022.167 8
  20292918.737    20292921.280    -9060718.100 8  -8388633.936 8
  20878253.654    20878256.592      246352.678 8  -1236929.709 8
  21139776.593    21139780.143   -14142372.914 9 -12249887.717 8
 90  3  3  5 32 29.0800000  0  4G 6G 9G11G13
  21065452.855    21065455.694     5398043.558 9  -2210856.479 9
  20291459.856    20291463.410    -9068384.901 7  -8394608.071 8
  20881561.301    20881564.445      263734.231 8  -1223385.643 9
  21134878.064    21134882.266   -14168118.051 9 -12269948.842 8
 90  3  3  5 32 44.0800000  0  4G 6G 9G11G13
  21071379.882    21071382.961     5429190.761 9  -2186585.954 8
  20290030.430    20290033.434    -9075900.372 8  -8400464.270 8
  20884884.731    20884887.252      281199.605 8  -1209776.259 9
  21129999.332    21130002.724   -14193753.401 9 -12289924.420 8
 90  3  3  5 32 59.0800000  0  4G 6G 9G11G13
  21077332.936    21077335.217     5460472.207 9  -2162210.798 8
  20288627.315    20288632.298    -9083264.519 7  -8406202.574 8
  20888223.964    20888227.202      298748.643 8  -1196101.687 8
  21125141.884    21125145.413   -14219278.753 9 -12309814.281 8
 90  3  3  5 33 14.0800000  0  4G 6G 9G11G13
  21083309.613    21083314.141     5491887.917 9  -2137731.039 8
  20287256.832    20287259.364    -9090476.742 7  -8411822.469 8
  20891579.648    20891582.994      316381.225 9  -1182362.010 9
  21120306.214    21120309.872   -14244694.225 9 -12329618.525 9
 90  3  3  5 33 29.0800000  0  4G 6G 9G11G13
  21089315.267    21089316.676     5523437.551 8  -2113146.930 9
  20285911.860    20285915.960    -9097537.062 9  -8417324.023 9
  20894949.547    20894953.295      334096.929 9  -1168557.569 8
  21115490.119    21115493.664   -14269999.730 9 -12349337.087 9
 90  3  3  5 33 44.0800000  0  4G 6G 9G11G13
  21095343.887    21095346.743     5555121.175 8  -2088458.412 9
  20284597.915    20284600.119    -9104445.409 8  -8422707.155 8
  20898338.660    20898341.279      351895.493 8  -1154688.566 9
  21110695.674    21110699.090   -14295195.413 9 -12368970.058 8
 90  3  3  5 33 59.0800000  0  4G 6G 9G11G13
  21101398.911    21101401.480     5586938.609 9  -2063665.615 8
  20283311.630    20283315.786    -9111201.660 6  -8427971.746 9
  20901738.926    20901744.094      369776.685 8  -1140755.170 9
  21105922.144    21105924.614   -14320281.233 9 -12388517.424 9
 90  3  3  5 34 14.0800000  0  4G 6G 9G11G13
  21107477.428    21107480.108     5618889.597 9  -2038768.745 8
  20282055.408    20282059.153    -9117805.353 7  -8433117.491 8
  20905158.117    20905161.867      387740.078 9  -1126757.713 9
  21101168.043    21101172.045   -14345257.265 9 -12407979.241 8
 90  3  3  5 34 29.0800000  0  4G 6G 9G11G13
  21113583.346    21113586.213     5650974.015 9  -2013767.934 8
  20280827.586    20280830.872    -9124256.563 8  -8438144.384 9
  20908592.707    20908596.502      405785.579 8  -1112696.284 9
  21096436.769    21096440.877   -14370123.256 9 -12427355.332 8
 90  3  3  5 34 44.0800000  0  4G 6G 9G11G13
  21119713.721    21119718.192     5683191.651 8  -1988663.286 8
  20279629.738    20279632.056    -9130555.008 8  -8443052.273 8
  20912042.241    20912044.502      423912.915 8  -1098571.082 9
  21091726.742    21091730.350   -14394879.453 9 -12446645.848 8
 90  3  3  5 34 59.0800000  0  4G 6G 9G11G13
  21125870.965    21125873.978     5715542.431 9  -1963454.916 8
  20278460.240    20278462.839    -9136700.427 8  -8447840.899 8
  20915506.794    20915510.071      442121.865 9  -1084382.311 9
  21087035.918    21087040.461   -14419525.764 9 -12465850.749 8
 90  3  3  5 35 14.0800000  0  4G 6G 9G11G13
  21132051.581    21132055.007     5748026.164 8  -1938142.943 8
  20277319.689    20277322.409    -9142692.761 7  -8452510.253 8
  20918987.872    20918991.478      460412.032 8  -1070130.219 8
  21082366.685    21082370.128   -14444062.226 9 -12484970.057 8
 90  3  3  5 35 29.0800000  0  4G 6G 9G11G13
  21138257.736    21138262.106     5780642.745 8  -1912727.440 8
  20276208.710    20276210.302    -9148531.787 8  -8457060.141 8
  20922482.034    20922486.674      478783.314 9  -1055814.944 8
  21077719.233    21077722.576   -14468488.795 9 -12504003.717 8
 90  3  3  5 35 44.0800000  0  4G 6G 9G11G13
  21144491.249    21144493.187     5813391.969 8  -1887208.571 8
  20275126.992    20275129.859    -9154217.435 8  -8461490.500 7
  20925995.258    20925998.289      497235.335 8  -1041436.725 8
  21073091.824    21073095.879   -14492805.457 9 -12522951.750 8
 90  3  3  5 35 59.0800000  0  4G 6G 9G11G13
  21150748.158    21150749.625     5846273.536 9  -1861586.585 8
  20274074.746    20274077.013    -9159749.211 8  -8465800.982 9
  20929520.682    20929524.593      515767.823 8  -1026995.843 9
  21068485.228    21068488.127   -14517012.165 9 -12541814.114 9
 90  3  3  5 36 14.0800000  0  4G 6G 9G11G13
  21157029.236    21157032.763     5879287.353 8  -1835861.565 9
  20273050.041    20273053.369    -9165127.218 8  -8469991.631 8
  20933063.128    20933065.857      534380.435 8  -1012492.504 9
  21063899.617    21063903.969   -14541109.092 9 -12560590.921 8
 90  3  3  5 36 29.0800000  0  4G 6G 9G11G13
  21163337.218    21163340.113     5912433.257 9  -1810033.600 8
  20272057.393    20272059.613    -9170351.366 7  -8474062.387 8
  20936620.326    20936623.980      553072.941 9   -997926.915 9
  21059335.700    21059337.010   -14565096.359 9 -12579282.274 8
 90  3  3  5 36 44.0800000  0  4G 6G 9G11G13
  21169670.724    21169673.020     5945711.246 9  -1784102.702 8
  20271093.206    20271094.110    -9175421.406 8  -8478013.063 9
  20940192.643    20940196.553      571845.080 8   -983299.275 8
  21054791.296    21054794.819   -14588973.665 9 -12597887.941 8
 90  3  3  5 36 59.0800000  0  4G 6G 9G11G13
  21176029.430    21176029.793     5979120.919 8  -1758069.210 8
  20270156.226    20270158.898    -9180337.126 8  -8481843.497 9
  20943779.756    20943784.138      590696.495 8   -968609.867 9
  21050268.911    21050272.163   -14612741.178 9 -12616408.055 8
 90  3  3  5 37 14.0800000  0  4G 6G 9G11G13
  21182410.757    21182413.955     6012662.154 8  -1731933.208 8
  20269249.537    20269253.055    -9185098.446 8  -8485553.615 7
  20947382.787    20947385.988      609626.935 8   -953858.881 9
  21045766.518    21045770.325   -14636398.820 9 -12634842.576 7
 90  3  3  5 37 29.0800000  0  4G 6G 9G11G13
  21188819.402    21188821.958     6046334.836 9  -1705694.784 8
  20268373.736    20268376.486    -9189705.243 8  -8489143.320 8
  20950998.893    20951002.875      628636.234 7   -939046.434 8
  21041285.345    21041289.738   -14659946.887 9 -12653191.710 8
 90  3  3  5 37 44.0800000  0  4G 6G 9G11G13
  21195251.169    21195254.223     6080138.597 8  -1679354.198 8
  20267526.408    20267529.161    -9194157.137 8  -8492612.317 8
  20954630.868    20954635.635      647724.166 8   -924172.747 8
  21036824.705    21036828.913   -14683385.431 9 -12671455.487 8
 90  3  3  5 37 59.0800000  0  4G 6G 9G11G13
  21201709.153    21201711.106     6114073.345 9  -1652911.547 8
  20266708.503    20266711.121    -9198454.244 8  -8495960.714 9
  20958278.594    20958282.870      666890.324 8   -909238.058 8
  21032385.966    21032390.553   -14706714.243 9 -12689633.771 8
 90  3  3  5 38 14.0800000  0  4G 6G 9G11G13
  21208189.930    21208193.372     6148139.162 8  -1626366.774 8
  20265920.088    20265923.457    -9202596.269 7  -8499188.249 9
  20961940.699    20961944.507      686134.544 8   -894242.574 9
  21027967.738    21027971.083   -14729933.245 8 -12707726.472 8
 90  3  3  5 38 29.0800000  0  4G 6G 9G11G13
  21214699.540    21214701.364     6182335.556 8  -1599720.252 9
  20265163.220    20265165.740    -9206583.164 8  -8502294.918 8
  20965617.938    20965620.611      705456.373 7   -879186.592 9
  21023569.966    21023572.709   -14753042.561 9 -12725733.714 8
 90  3  3  5 38 44.0800000  0  4G 6G 9G11G13
  21221231.643    21221233.083     6216662.384 9  -1572972.080 7
  20264432.590    20264435.868    -9210414.733 8  -8505280.536 9
  20969309.744    20969313.174      724855.593 7   -864070.327 9
  21019192.643    21019197.531   -14776042.235 9 -12743655.523 8
 90  3  3  5 38 59.0800000  0  4G 6G 9G11G13
  21227786.801    21227789.927     6251119.489 8  -1546122.389 8
  20263734.005    20263735.928    -9214090.806 7  -8508145.020 8
  20973015.046    20973018.759      744332.124 8   -848893.813 9
  21014837.661    21014841.428   -14798932.345 9 -12761491.946 9
 90  3  3  5 39 14.0800000  0  4G 6G 9G11G13
  21234368.413    21234373.531     6285706.693 9  -1519171.352 9
  20263064.179    20263066.560    -9217611.315 8  -8510888.283 7
  20976736.519    20976741.060      763885.540 8   -833657.385 9
  21010503.073    21010505.627   -14821712.779 9 -12779242.925 8
 90  3  3  5 39 29.0800000  0  4G 6G 9G11G13
  21240976.288    21240978.797     6320423.718 9  -1492119.146 9
  20262423.247    20262425.573    -9220976.030 9  -8513510.113 9
  20980472.397    20980475.708      783515.526 8   -818361.287 9
  21006188.685    21006190.190   -14844383.858 9 -12796908.680 8
 90  3  3  5 39 44.0800000  0  4G 6G 9G11G13
  21247608.110    21247610.136     6355270.500 9  -1464965.812 8
  20261812.617    20261815.310    -9224184.801 8  -8516010.454 8
  20984221.628    20984225.200      803221.781 9   -803005.769 9
  21001894.506    21001898.286   -14866945.552 9 -12814489.211 9
 90  3  3  5 39 59.0800000  0  4G 6G 9G11G13
  21254263.403    21254265.885     6390246.781 9  -1437711.596 9
  20261231.620    20261234.765    -9227237.713 8  -8518389.350 8
  20987985.671    20987989.204      823004.000 8   -787591.051 8
  20997621.174    20997625.463   -14889397.946 9 -12831984.566 7
 90  3  3  5 40 14.0800000  0  4G 6G 9G11G13
  21260943.921    21260946.591     6425352.246 8  -1410356.713 7
  20260680.935    20260682.148    -9230134.426 8  -8520646.523 8
  20991764.907    20991768.319      842862.035 8   -772117.260 9
  20993369.850    20993373.650   -14911740.918 9 -12849394.646 8
 90  3  3  5 40 29.0800000  0  4G 6G 9G11G13
  21267648.652    21267650.963     6460587.011 9  -1382901.069 8
  20260159.008    20260162.520    -9232874.812 8  -8522781.903 9
  20995558.345    20995563.206      862795.622 8   -756584.599 9
  20989139.824    20989143.331   -14933974.302 9 -12866719.350 9
 90  3  3  5 40 44.0800000  0  4G 6G 9G11G13
  21274379.409    21274379.832     6495950.768 9  -1355344.913 9
  20259666.832    20259669.960    -9235458.595 8  -8524795.230 8
  20999365.896    20999369.397      882804.531 9   -740993.234 8
  20984929.180    20984932.889   -14956098.363 9 -12883958.862 7
 90  3  3  5 40 59.0800000  0  4G 6G 9G11G13
  21281132.132    21281134.803     6531443.096 9  -1327688.563 8
  20259204.856    20259208.357    -9237886.007 7  -8526686.713 8
  21003188.116    21003192.422      902888.308 9   -725343.540 9
  20980739.978    20980743.468   -14978113.157 9 -12901113.231 8
 90  3  3  5 41 14.0800000  0  4G 6G 9G11G13
  21287909.597    21287913.813     6567063.864 9  -1299932.154 8
  20258772.927    20258775.668    -9240156.671 8  -8528456.052 8
  21007024.999    21007027.378      923046.727 8   -709635.688 9
  20976571.711    20976575.422   -15000018.750 9 -12918182.502 8
 90  3  3  5 41 29.0800000  0  4G 6G 9G11G13
  21294713.693    21294716.461     6602813.082 9  -1272075.632 9
  20258370.622    20258373.399    -9242270.461 7  -8530103.161 8
  21010874.044    21010877.463      943279.437 9   -693869.929 9
  20972423.920    20972427.754   -15021815.251 9 -12935166.785 8
 90  3  3  5 41 44.0800000  0  4G 6G 9G11G13
  21301540.264    21301542.975     6638690.538 9  -1244119.189 9
  20257998.811    20258002.038    -9244227.312 8  -8531627.970 8
  21014737.277    21014742.376      963586.199 9   -678046.474 9
  20968297.136    20968301.584   -15043502.552 9 -12952065.964 9
 90  3  3  5 41 59.0800000  0  4G 6G 9G11G13
  21308391.551    21308394.531     6674695.869 9  -1216063.097 8
  20257656.717    20257658.282    -9246027.139 8  -8533030.442 8
  21018616.735    21018619.716      983966.716 9   -662165.559 8
  20964190.716    20964194.445   -15065080.631 9 -12968880.037 8
 90  3  3  5 42 14.0800000  0  4G 6G 9G11G13
  21315267.605    21315271.390     6710828.829 9  -1187907.565 8
  20257343.453    20257345.156    -9247669.807 8  -8534310.430 8
  21022508.413    21022513.117     1004420.774 9   -646227.328 8
  20960105.384    20960109.149   -15086549.592 9 -12985609.088 8
 90  3  3  5 42 29.0800000  0  4G 6G 9G11G13
  21322168.628    21322171.570     6747089.324 9  -1159652.668 8
  20257061.174    20257064.021    -9249155.049 8  -8535467.770 8
  21026415.040    21026419.097     1024948.171 8   -630231.960 9
  20956040.188    20956043.879   -15107909.357 9 -13002253.043 8
 90  3  3  5 42 44.0800000  0  4G 6G 9G11G13
  21329092.619    21329095.760     6783477.229 9  -1131298.481 9
  20256808.437    20256812.701    -9250482.642 7  -8536502.255 8
  21030334.608    21030338.976     1045548.577 9   -614179.711 8
  20951996.453    20952000.690   -15129160.283 9 -13018812.190 7
 90  3  3  5 42 59.0800000  0  4G 6G 9G11G13
  21336041.577    21336043.272     6819992.236 9  -1102845.234 8
  20256586.676    20256588.309    -9251652.670 7  -8537413.963 8
  21034268.944    21034273.644     1066221.822 8   -598070.676 9
  20947973.723    20947977.183   -15150302.159 9 -13035286.358 9
 90  3  3  5 43 14.0800000  0  4G 6G 9G11G13
  21343012.804    21343015.627     6856634.206 9  -1074293.069 8
  20256392.087    20256395.143    -9252665.070 7  -8538202.841 9
  21038217.810    21038221.229     1086967.571 8   -581905.157 9
  20943971.216    20943974.071   -15171335.128 9 -13051675.668 7
 90  3  3  5 43 29.0800000  0  4G 6G 9G11G13
  21350010.614    21350012.395     6893402.886 9  -1045642.174 8
  20256230.890    20256233.089    -9253519.653 7  -8538868.748 8
  21042177.930    21042181.460     1107785.637 9   -565683.285 9
  20939989.111    20939992.854   -15192259.138 9 -13067980.082 8
 90  3  3  5 43 44.0800000  0  4G 6G 9G11G13
  21357031.492    21357034.403     6930297.932 9  -1016892.804 9
  20256098.452    20256099.936    -9254216.279 8  -8539411.587 9
  21046153.680    21046156.471     1128675.490 9   -549405.472 8
  20936029.027    20936031.169   -15213074.483 9 -13084199.826 8
 90  3  3  5 43 59.0800000  0  4G 6G 9G11G13
  21364076.679    21364080.250     6967319.233 9   -988045.056 8
  20255996.300    20255999.133    -9254755.045 8  -8539831.390 8
  21050142.139    21050144.831     1149636.916 8   -533071.894 9
  20932088.599    20932091.771   -15233780.944 9 -13100334.720 8
 90  3  3  5 44 14.0800000  0  4G 6G 9G11G13
  21371144.879    21371148.448     7004466.540 9   -959099.120 8
  20255921.984    20255924.865    -9255135.675 7  -8540127.976 8
  21054144.957    21054149.052     1170669.674 9   -516682.736 9
  20928167.823    20928173.151   -15254378.520 9 -13116384.766 8
 90  3  3  5 44 29.0800000  0  4G 6G 9G11G13
  21378237.675    21378241.657     7041739.687 9   -930055.123 8
  20255881.002    20255882.843    -9255358.018 8  -8540301.244 8
  21058161.239    21058165.391     1191773.583 9   -500238.139 9
  20924269.028    20924273.152   -15274867.337 9 -13132350.059 8
 90  3  3  5 44 44.0800000  0  4G 6G 9G11G13
  21385355.082    21385358.165     7079138.532 9   -900913.181 9
  20255868.631    20255871.718    -9255421.805 7  -8540350.936 8
  21062190.958    21062194.137     1212948.391 9   -483738.281 9
  20920391.767    20920394.646   -15295247.543 9 -13148230.728 8
 90  3  3  5 44 59.0800000  0  4G 6G 9G11G13
  21392496.930    21392498.423     7116662.718 9   -871673.581 8
  20255886.079    20255888.775    -9255327.272 8  -8540277.300 8
  21066233.746    21066237.225     1234193.574 9   -467183.600 9
  20916533.414    20916537.913   -15315519.186 9 -13164026.794 8
 90  3  3  5 45 14.0800000  0  3G 6G11G13
  21399661.093    21399663.614     7154312.145 5   -842336.372 6
  21070290.214    21070292.828     1255508.975 8   -450574.194 7
  20912696.668    20912700.025   -15335682.572 2 -13179738.525 6
 90  3  3  5 45 29.0800000  0  4G 6G12G11G13
  21406848.837    21406850.790     7192086.257 8   -812902.025 9
                  21984670.251   -35198266.861 9
  21074359.046    21074362.934     1276894.264 9   -433910.330 7
  20908880.735    20908884.354   -15355737.684 8 -13195365.867 7
 90  3  3  5 45 44.0800000  0  4G 6G12G11G13
  21414059.425    21414062.852     7229985.175 9   -783370.416 8
                  21976550.777   -35241130.241 9
  21078442.081    21078444.884     1298349.221 9   -417192.177 8
  20905085.192    20905087.753   -15375684.373 8 -13210908.741 7
 90  3  3  5 45 59.0800000  0  4G 6G12G11G13
  21421296.428    21421299.125     7268008.598 9   -753741.783 8
  21968408.446    21968412.543   -35283919.869 9  44774002.496 9
  21082538.266    21082540.916     1319873.664 9   -400419.895 8
  20901309.791    20901313.410   -15395522.673 9 -13226367.137 9
 90  3  3  5 46 14.0800000  0  4G 6G12G11G13
  21428554.294    21428558.189     7306156.346 9   -724016.272 9
  21960279.352    21960283.071   -35326635.495 9  44740717.612 9
  21086646.217    21086650.045     1341467.288 5   -383593.687 6
  20897555.992    20897559.059   -15415252.704 8 -13241741.161 8
 90  3  3  5 46 29.0800000  0  4G 6G12G11G13
  21435837.512    21435841.618     7344427.841 9   -694194.341 8
  21952164.874    21952168.757   -35369276.720 9  44707490.714 9
  21090768.638    21090772.330     1363129.745 8   -366713.839 9
  20893821.321    20893825.404   -15434874.675 9 -13257031.000 8
 90  3  3  5 46 44.0800000  0  4G 6G12G11G13
  21443144.605    21443147.630     7382823.248 9   -664275.850 9
  21944064.526    21944067.974   -35411843.209 9  44674322.039 9
  21094904.660    21094906.964     1384860.873 8   -349780.486 7
  20890108.400    20890110.094   -15454388.319 9 -13272236.414 8
 90  3  3  5 46 59.0800000  0  4G 6G12G11G13
  21450474.621    21450476.401     7421342.317 9   -634260.994 8
  21935979.310    21935983.523   -35454334.651 9  44641211.844 9
  21099051.339    21099055.209     1406660.444 9   -332793.797 7
  20886414.682    20886417.964   -15473793.890 9 -13287357.619 8
 90  3  3  5 47 14.0800000  0  4G 6G12G11G13
  21457828.012    21457830.446     7459984.742 9   -604150.032 8
  21927907.545    21927911.434   -35496750.635 9  44608160.461 9
  21103214.075    21103216.170     1428527.972 9   -315754.159 9
  20882742.852    20882748.127   -15493091.382 5 -13302394.619 3
 90  3  3  5 47 29.0800000  0  4G 6G12G11G13
  21465204.644    21465207.176     7498750.249 9   -573943.161 9
  21919850.289    21919853.687   -35539090.825 9  44575168.122 9
  21107387.666    21107391.344     1450463.160 9   -298661.805 8
  20879090.635    20879094.847   -15512280.922 4 -13317347.482 6
 90  3  3  5 47 44.0800000  0  4G 6G12G11G13
  21472604.329    21472608.091     7537638.639 9   -543640.523 8
  21911807.731    21911811.638   -35581354.831 9  44542235.147 9
  21111574.875    21111578.360     1472465.781 8   -281516.897 8
  20875459.015    20875464.876   -15531362.646 3 -13332216.331 2
 90  3  3  5 47 59.0800000  0  4G 6G12G11G13
  21480028.635    21480031.940     7576649.686 9   -513242.321 8
  21903780.334    21903783.193   -35623542.307 9  44509361.820 9
  21115775.000    21115778.697     1494535.663 9   -264319.589 9
  20871849.530    20871851.906   -15550336.477 9 -13347001.131 9
 90  3  3  5 48 14.0800000  0  4G 6G12G11G13
  21487475.066    21487478.688     7615783.192 9   -482748.702 8
  21895767.092    21895768.994   -35665652.794 9  44476548.482 9
  21119987.586    21119991.542     1516672.485 9   -247070.119 8
  20868259.382    20868262.457   -15569202.352 9 -13361701.804 8
 90  3  3  5 48 29.0800000  0  4G 6G12G11G13
  21494944.314    21494948.720     7655038.879 9   -452159.865 8
  21887767.567    21887770.920   -35707686.045 9  44443795.330 9
  21124212.272    21124216.124     1538875.994 9   -229768.667 9
  20864690.184    20864693.589   -15587960.618 9 -13376318.624 9
 90  3  3  5 48 44.0800000  0  4G 6G12G11G13
  21502438.042    21502442.810     7694416.603 9   -421475.937 9
  21879784.001    21879787.597   -35749641.671 9  44411102.647 9
  21128450.334    21128454.542     1561145.880 9   -212415.503 9
  20861140.327    20861144.991   -15606611.185 9 -13390851.506 8
 90  3  3  5 48 59.0800000  0  4G 6G12G11G13
  21509954.684    21509958.290     7733915.997 9   -390697.196 8
  21871815.091    21871818.452   -35791519.227 9  44378470.808 9
  21132701.254    21132703.757     1583481.934 8   -195010.788 8
  20857611.310    20857614.641   -15625154.272 9 -13405300.658 8
 90  3  3  5 49 14.0800000  0  4G 6G12G11G13
  21517494.273    21517498.099     7773536.809 9   -359823.834 8
  21863860.868    21863863.919   -35833318.404 9  44345900.053 9
  21136963.812    21136966.695     1605883.805 9   -177554.774 9
  20854103.639    20854105.758   -15643589.704 9 -13419665.919 8
 90  3  3  5 49 29.0800000  0  4G 6G12G11G13
  21525056.393    21525061.002     7813278.885 9   -328855.993 8
  21855921.233    21855925.261   -35875039.072 9  44313390.456 9
  21141239.262    21141242.513     1628351.341 8   -160047.609 9
  20850616.200    20850618.216   -15661917.719 9 -13433947.479 9
 90  3  3  5 49 44.0800000  0  4G 6G12G11G13
  21532643.203    21532645.931     7853142.064 8   -297793.796 8
  21847996.927    21848000.892   -35916680.655 9  44280942.497 9
  21145526.874    21145529.519     1650884.209 8   -142489.517 8
  20847149.052    20847152.386   -15680138.427 9 -13448145.412 8
 90  3  3  5 49 59.0800000  0  4G 6G12G11G13
  21540251.887    21540255.188     7893125.859 8   -266637.626 9
  21840088.229    21840092.516   -35958242.734 9  44248556.481 9
  21149826.735    21149830.035     1673481.993 9   -124880.847 8
  20843702.282    20843705.831   -15698251.898 9 -13462259.782 8
 90  3  3  5 50 14.0800000  0  4G 6G12G11G13
  21547883.479    21547886.421     7933230.111 9   -235387.572 8
  21832194.600    21832198.004   -35999724.918 9  44216232.732 8
  21154139.983    21154141.681     1696144.444 9   -107221.789 9
  20840275.773    20840279.576   -15716258.215 9 -13476290.662 9
 90  3  3  5 50 29.0800000  0  4G 6G12G11G13
  21555537.760    21555540.124     7973454.762 9   -204043.719 8
  21824316.120    21824319.735   -36041126.922 9  44183971.455 9
  21158464.658    21158467.567     1718871.261 9    -89512.570 9
  20836869.212    20836873.450   -15734157.353 9 -13490238.034 8
 90  3  3  5 50 44.0800000  0  4G 6G12G11G13
  21563214.639    21563218.234     8013799.380 8   -172606.374 9
  21816453.137    21816456.069   -36082448.446 9  44151772.885 9
  21162801.156    21162805.426     1741662.311 9    -71753.305 9
  20833483.628    20833487.493   -15751949.288 9 -13504101.866 8
 90  3  3  5 50 59.0800000  0  4G 6G12G11G13
  21570915.003    21570918.902     8054263.850 9   -141075.634 9
  21808605.236    21808608.802   -36123689.052 9  44119637.384 9
  21167150.521    21167153.986     1764517.303 9    -53944.222 9
  20830118.961    20830123.097   -15769634.155 9 -13517882.282 8
 90  3  3  5 51 14.0800000  0  4G 6G12G11G13
  21578637.294    21578640.965     8094848.023 9   -109451.627 9
  21800773.069    21800776.069   -36164848.391 9  44087565.197 9
  21171511.929    21171515.288     1787435.991 9    -36085.508 9
  20826772.873    20826777.551   -15787211.999 9 -13531579.285 8
 90  3  3  5 51 29.0800000  0  4G 6G12G11G13
  21586383.066    21586387.312     8135551.364 9    -77734.751 8
  21792955.491    21792959.730   -36205926.084 9  44055556.622 9
  21175885.179    21175888.552     1810418.212 9    -18177.291 9
  20823448.618    20823451.853   -15804682.983 9 -13545193.012 8
 90  3  3  5 51 44.0800000  0  4G 6G12G11G13
  21594151.494    21594153.589     8176373.680 9    -45925.181 8
  21785153.357    21785158.039   -36246921.886 9  44023611.883 8
  21180271.193    21180274.571     1833463.585 8      -219.863 9
  20820144.682    20820146.841   -15822047.290 9 -13558723.628 8
 90  3  3  5 51 59.0800000  0  4G 6G12G11G13
  21601943.511    21601946.530     8217314.864 9    -14022.968 9
  21777367.591    21777372.367   -36287835.326 9  43991731.302 9
  21184668.972    21184671.652     1856571.745 8     17786.499 9
  20816860.576    20816864.068   -15839305.099 9 -13572171.265 8
 90  3  3  5 52 14.0800000  0  4G 6G12G11G13
  21609756.803    21609759.375     8258374.626 9     17971.634 8
  21769598.276    21769602.659   -36328666.116 9  43959915.128 9
  21189076.576    21189079.755     1879742.418 8     35841.586 8
  20813596.275    20813600.312   -15856456.461 9 -13585535.930 9
 90  3  3  5 52 29.0800000  0  4G 6G12G11G13
  21617593.105    21617596.141     8299552.566 9     50058.320 8
  21761844.734    21761848.353   -36369413.666 9  43928163.815 9
  21193497.722    21193502.242     1902975.436 9     53945.232 8
  20810353.525    20810356.247   -15873501.180 9 -13598817.524 8
 90  3  3  5 52 44.0800000  0  4G 6G12G11G13
  21625451.024    21625453.682     8340848.602 9     82237.030 8
  21754106.707    21754110.016   -36410077.821 9  43896477.489 9
  21197930.152    21197934.086     1926270.383 8     72097.148 7
  20807130.386    20807133.674   -15890439.440 9 -13612016.142 8
 90  3  3  5 52 59.0800000  0  4G 6G12G11G13
  21633332.477    21633335.626     8382262.258 9    114507.383 8
  21746384.476    21746388.473   -36450658.194 9  43864856.436 8
  21202375.591    21202378.661     1949627.100 9     90297.186 7
  20803926.329    20803929.605   -15907271.457 9 -13625131.987 8
 90  3  3  5 53 14.0800000  0  4G 6G12G11G13
  21641234.385    21641237.736     8423793.514 9    146869.393 8
  21738678.499    21738681.092   -36491154.353 9  43833301.006 9
  21206831.931    21206835.774     1973045.245 9    108545.091 8
  20800743.955    20800747.825   -15923997.237 9 -13638165.058 8
 90  3  3  5 53 29.0800000  0  4G 6G12G11G13
  21649160.001    21649164.117     8465441.931 9    179322.685 8
  21730987.734    21730991.373   -36531565.980 9  43801811.454 9
  21211299.602    21211303.047     1996524.468 9    126840.589 8
  20797582.151    20797585.071   -15940616.789 9 -13651115.344 8
 90  3  3  5 53 44.0800000  0  4G 6G12G11G13
  21657107.628    21657111.797     8507207.335 9    211867.125 9
  21723314.174    21723318.653   -36571892.808 9  43770387.980 9
  21215780.383    21215782.682     2020064.478 9    145183.467 9
  20794439.229    20794441.890   -15957130.072 9 -13663982.809 8
 90  3  3  5 53 59.0800000  0  4G 6G12G11G13
  21665078.351    21665080.236     8549089.480 8    244502.558 9
  21715656.319    21715660.084   -36612134.445 9  43739030.894 8
  21220270.492    21220273.649     2043665.126 9    163573.575 8
  20791317.071    20791320.342   -15973537.333 9 -13676767.673 8
 90  3  3  5 54 14.0800000  0  4G 6G12G11G13
  21673069.231    21673073.558     8591088.108 8    277228.747 8
  21708014.669    21708018.856   -36652290.494 9  43707740.495 9
  21224772.994    21224776.095     2067326.130 8    182010.713 9
  20788214.958    20788217.680   -15989838.711 9 -13689470.034 8
 90  3  3  5 54 29.0800000  0  4G 6G12G11G13
  21681084.541    21681086.835     8633202.949 9    310045.491 8
  21700389.282    21700392.858   -36692360.536 9  43676517.108 9
  21229286.941    21229290.674     2091047.239 9    200494.701 8
  20785132.645    20785136.000   -16006034.300 9 -13702089.966 8
 90  3  3  5 54 44.0800000  0  4G 6G12G11G13
  21689120.799    21689123.726     8675433.798 9    342952.615 9
  21692780.281    21692784.325   -36732344.233 9  43645361.003 9
  21233812.438    21233816.210     2114828.290 8    219025.380 9
  20782070.877    20782074.029   -16022124.348 8 -13714627.633 9
 90  3  3  5 54 59.0800000  0  4G 6G12G11G13
  21697178.379    21697181.595     8717780.089 9    375949.710 8
  21685188.294    21685192.948   -36772241.264 9  43614272.445 9
  21238348.583    21238353.828     2138668.992 9    237602.560 8
  20779028.946    20779033.001   -16038108.805 9 -13727083.049 9
 90  3  3  5 55 14.0800000  0  4G 6G12G11G13
  21705257.637    21705261.661     8760241.830 9    409036.758 8
  21677612.885    21677616.827   -36812051.205 9  43583251.735 9
  21242897.157    21242900.915     2162569.051 9    256225.973 8
  20776006.546    20776010.246   -16053987.746 9 -13739456.236 9
 90  3  3  5 55 29.0800000  0  4G 6G12G11G13
  21713361.967    21713363.846     8802818.722 9    442213.537 8
  21670054.145    21670057.964   -36851773.723 8  43552299.144 9
  21247455.840    21247460.195     2186528.076 8    274895.348 8
  20773004.738    20773008.618   -16069761.313 9 -13751747.319 8
 90  3  3  5 55 44.0800000  0  4G 6G12G11G13
  21721484.839    21721488.565     8845510.519 9    475479.863 8
  21662512.646    21662515.474   -36891408.504 9  43521414.925 9
  21252027.179    21252030.209     2210545.800 9    293610.463 9
  20770023.125    20770028.496   -16085429.720 9 -13763956.455 9
 90  3  3  5 55 59.0800000  0  4G 6G12G11G13
  21729630.446    21729633.258     8888316.874 8    508835.438 8
  21654986.861    21654990.524   -36930955.142 9  43490599.389 9
  21256608.553    21256611.611     2234621.858 9    312371.035 9
  20767061.764    20767067.604   -16100992.842 9 -13776083.551 8
 90  3  3  5 56 14.0800000  0  4G 6G12G11G13
  21737797.863    21737802.002     8931237.619 9    542280.147 8
  21647478.115    21647481.947   -36970413.268 9  43459852.820 9
  21261201.460    21261204.744     2258756.113 9    331176.954 8
  20764120.650    20764124.501   -16116450.702 9 -13788128.610 8
 90  3  3  5 56 29.0800000  0  4G 6G12G11G13
  21745987.743    21745991.111     8974272.412 9    575813.739 7
  21639986.756    21639990.209   -37009782.538 9  43429175.491 9
  21265804.755    21265809.329     2282948.381 9    350028.064 9
  20761199.578    20761202.666   -16131803.576 9 -13800091.876 7
 90  3  3  5 56 44.0800000  0  4G 6G12G11G13
  21754199.279    21754201.100     9017420.953 9    609435.973 8
  21632511.642    21632514.892   -37049062.566 9  43398567.695 9
  21270418.868    21270423.042     2307198.311 9    368924.110 9
  20758297.978    20758300.935   -16147051.378 9 -13811973.264 8
 90  3  3  5 56 59.0800000  0  4G 6G12G11G13
  21762431.065    21762433.538     9060683.018 8    643146.660 9
  21625054.120    21625057.300   -37088252.996 9  43368029.717 9
  21275044.844    21275048.343     2331505.678 9    387864.912 9
  20755416.562    20755419.826   -16162194.227 9 -13823772.874 7
 90  3  3  5 57 14.0800000  0  4G 6G12G11G13
  21770684.592    21770686.281     9104058.379 9    676945.625 8
  21617613.020    21617616.962   -37127353.405 9  43337561.879 9
  21279680.866    21279684.695     2355870.255 8    406850.285 9
  20752554.749    20752558.123   -16177232.316 9 -13835490.839 8
 90  3  3  5 57 29.0800000  0  4G 6G12G11G13
  21778960.184    21778963.882     9147546.672 9    710832.585 8
  21610189.769    21610193.320   -37166363.457 9  43307164.455 9
  21284328.903    21284331.518     2380291.719 9    425880.013 9
  20749713.022    20749715.301   -16192165.791 9 -13847127.297 9
 90  3  3  5 57 44.0800000  0  4G 6G12G11G13
  21787257.695    21787260.716     9191147.669 8    744807.362 8
  21602783.451    21602787.120   -37205282.999 9  43276837.562 9
  21288987.389    21288990.615     2404769.737 8    444953.793 9
  20746890.880    20746894.301   -16206994.722 9 -13858682.296 8
 90  3  3  5 57 59.0800000  0  4G 6G12G11G13
  21795575.314    21795578.691     9234860.947 9    778869.641 8
  21595395.086    21595398.519   -37244111.623 9  43246581.505 9
  21293654.947    21293657.791     2429304.042 9    464071.425 8
  20744088.835    20744091.726   -16221719.191 9 -13870155.882 7
 90  3  3  5 58 14.0800000  0  4G 6G12G11G13
  21803916.087    21803918.097     9278686.375 8    813019.323 9
  21588022.811    21588027.237   -37282848.963 9  43216396.595 9
  21298333.571    21298338.984     2453894.347 9    483232.703 8
  20741307.574    20741311.456   -16236339.491 9 -13881548.312 8
 90  3  3  5 58 29.0800000  0  4G 6G12G11G13
  21812276.499    21812280.190     9322623.679 9    847256.168 9
  21580669.431    21580673.772   -37321494.616 9  43186283.104 9
  21303024.049    21303027.536     2478540.478 9    502437.483 8
  20738544.967    20738548.173   -16250855.574 9 -13892859.525 8
 90  3  3  5 58 44.0800000  0  4G 6G12G11G13
  21820658.959    21820661.461     9366672.447 9    881579.877 8
  21573333.233    21573336.672   -37360048.255 9  43156241.330 9
  21307725.260    21307729.134     2503242.114 9    521685.504 8
  20735801.869    20735805.851   -16265267.492 9 -13904089.570 9
 90  3  3  5 58 59.0800000  0  4G 6G12G11G13
  21829061.435    21829065.527     9410832.672 9    915990.418 8
  21566014.567    21566017.009   -37398509.426 9  43126271.603 9
  21312435.848    21312440.321     2527998.944 9    540976.534 9
  20733078.064    20733082.692   -16279575.510 9 -13915238.663 8
 90  3  3  5 59 14.0800000  0  4G 6G12G11G13
  21837486.710    21837490.764     9455103.856 8    950487.433 8
  21558713.621    21558716.181   -37436877.689 9  43096374.269 9
  21317157.337    21317161.152     2552810.718 9    560310.382 9
  20730375.586    20730380.328   -16293779.572 9 -13926306.749 8
 90  3  3  5 59 29.0800000  0  4G 6G12G11G13
  21845932.688    21845936.490     9499485.732 9    985070.698 8
  21551429.220    21551432.962   -37475152.799 9  43066549.512 9
  21321889.169    21321893.659     2577677.150 9    579686.818 8
  20727692.627    20727695.734   -16307879.908 9 -13937294.012 9
 90  3  3  5 59 44.0800000  0  4G 6G12G11G13
  21854399.166    21854401.717     9543978.070 9   1019740.046 8
  21544163.501    21544166.816   -37513334.277 9  43036797.727 9
  21326631.078    21326635.497     2602597.994 9    599105.650 8
  20725028.644    20725033.854   -16321876.502 9 -13948200.432 8
 90  3  3  5 59 59.0800000  0  4G 6G12G11G13
  21862886.549    21862888.519     9588580.525 9   1054495.167 8
  21536915.601    21536919.324   -37551421.850 9  43007119.114 9
  21331384.492    21331387.148     2627572.982 9    618566.669 9
  20722385.878    20722388.680   -16335769.693 9 -13959026.272 8
 90  3  3  6  0 14.0800000  0  4G 6G12G11G13
  21871396.325    21871398.218     9633292.849 9   1089335.931 8
  21529685.327    21529688.787   -37589415.223 9  42977513.902 8
  21336147.578    21336150.622     2652601.834 9    638069.669 9
  20719761.223    20719765.290   -16349559.493 9 -13969771.554 8
 90  3  3  6  0 29.0800000  0  4G 6G12G11G13
  21879923.243    21879927.470     9678114.683 9   1124262.010 8
  21522473.879    21522477.686   -37627313.960 9  42947982.430 9
  21340920.180    21340924.027     2677684.311 9    657614.467 9
  20717156.517    20717160.840   -16363245.658 9 -13980436.081 8
 90  3  3  6  0 44.0800000  0  4G 6G12G11G13
  21888473.941    21888477.965     9723045.790 9   1159273.252 8
  21515280.708    21515283.261   -37665117.722 9  42918524.968 9
  21345703.456    21345707.128     2702820.244 9    677200.902 8
  20714571.771    20714576.342   -16376828.593 8 -13991020.164 8
 90  3  3  6  0 59.0800000  0  4G 6G12G11G13
  21897045.691    21897048.949     9768085.899 9   1194369.430 9
  21508103.862    21508107.831   -37702826.239 9  42889141.712 8
  21350497.465    21350500.165     2728009.331 9    696828.765 9
  20712007.567    20712010.710   -16390308.388 9 -14001523.887 8
 90  3  3  6  1 14.0800000  0  4G 6G12G11G13
  21905636.298    21905639.492     9813234.671 9   1229550.281 8
  21500946.904    21500950.279   -37740439.028 9  42859833.057 9
  21355300.857    21355303.414     2753251.320 9    716497.840 9
  20709461.204    20709464.951   -16403685.281 9 -14011947.417 8
 90  3  3  6  1 29.0800000  0  4G 6G12G11G13
  21914249.060    21914253.525     9858491.904 9   1264815.643 8
  21493807.168    21493811.820   -37777955.847 9  42830599.188 9
  21360113.826    21360117.285     2778545.929 8    736207.923 9
  20706934.503    20706940.490   -16416959.316 9 -14022290.811 8
 90  3  3  6  1 44.0800000  0  4G 6G12G11G13
  21922882.330    21922884.425     9903857.345 9   1300165.330 9
  21486686.710    21486689.845   -37815376.212 9  42801440.480 8
  21364937.368    21364940.569     2803892.889 9    755958.784 9
  20704429.409    20704433.409   -16430130.620 9 -14032554.155 9
 90  3  3  6  1 59.0800000  0  4G 6G12G11G13
  21931535.632    21931538.662     9949330.595 9   1335599.020 7
  21479583.788    21479587.751   -37852699.638 9  42772357.310 9
  21369769.096    21369774.388     2829291.929 9    775750.232 9
  20701941.269    20701946.468   -16443199.122 9 -14042737.383 9
 90  3  3  6  2 14.0800000  0  4G 6G12G11G13
  21940209.651    21940212.029     9994911.390 9   1371116.494 8
  21472500.184    21472504.165   -37889925.971 9  42743349.783 8
  21374613.186    21374617.788     2854742.596 9    795581.916 8
  20699475.086    20699478.709   -16456165.105 9 -14052840.727 8
 90  3  3  6  2 29.0800000  0  4G 6G12G11G13
  21948903.964    21948906.100    10040599.312 9   1406717.452 8
  21465435.339    21465438.069   -37927054.931 9  42714418.137 9
  21379465.991    21379470.238     2880244.744 9    815453.716 8
  20697027.403    20697030.917   -16469028.801 9 -14062864.370 8
 90  3  3  6  2 44.0800000  0  4G 6G12G11G13
  21957617.140    21957620.396    10086394.276 9   1442401.810 8
  21458388.205    21458391.311   -37964086.128 9  42685562.680 9
  21384329.485    21384333.873     2905798.161 9    835365.459 9
  20694598.007    20694602.117   -16481790.085 9 -14072808.212 8
 90  3  3  6  2 59.0800000  0  4G 6G12G11G13
  21966351.469    21966355.835    10132295.932 8   1478169.318 8
  21451359.788    21451363.720   -38001019.050 9  42656783.796 8
  21389201.493    21389205.752     2931402.565 9    855316.947 8
  20692189.445    20692192.996   -16494449.043 9 -14082672.313 8
 90  3  3  6  3 14.0800000  0  4G 6G12G11G13
  21975107.214    21975110.463    10178303.794 8   1514019.580 9
  21444351.275    21444354.305   -38037853.540 9  42628081.613 9
  21394083.672    21394085.130     2957057.679 8    875307.939 8
  20689799.683    20689803.121   -16507005.907 8 -14092456.862 8
 90  3  3  6  3 29.0800000  0  4G 6G12G11G13
  21983882.746    21983885.190    10224417.790 9   1549952.551 8
  21437359.556    21437362.878   -38074589.057 9  42599456.561 9
  21398976.241    21398977.357     2982763.333 9    895338.315 8
  20687429.950    20687433.990   -16519460.832 9 -14102161.991 8
 90  3  3  6  3 44.0800000  0  4G 6G12G11G13
  21992678.055    21992680.927    10270637.614 9   1585967.984 8
  21430388.813    21430391.935   -38111225.308 9  42570908.835 8
  21403876.181    21403878.766     3008519.160 9    915407.787 8
  20685079.369    20685083.912   -16531813.943 8 -14111787.768 8
 90  3  3  6  3 59.0800000  0  4G 6G12G11G13
  22001494.059    22001496.957    10316962.837 9   1622065.550 8
  21423435.322    21423438.649   -38147761.959 9  42542438.746 9
  21408787.211    21408789.425     3034324.990 9    935516.231 8
  20682748.421    20682750.918   -16544065.218 9 -14121334.194 8
 90  3  3  6  4 14.0800000  0  4G 6G12G11G13
  22010327.995    22010332.119    10363393.211 9   1658245.031 8
  21416502.162    21416504.835   -38184198.903 8  42514046.336 9
  21413706.241    21413711.041     3060180.520 9    955663.395 8
  20680436.131    20680440.815   -16556215.007 9 -14130801.556 8
 90  3  3  6  4 29.0800000  0  4G 6G12G11G13
  22019184.372    22019187.825    10409928.293 9   1694506.113 8
  21409587.801    21409591.038   -38220535.771 9  42485731.901 8
  21418636.384    21418641.016     3086085.474 9    975849.054 9
  20678143.742    20678147.200   -16568263.405 8 -14140189.898 8
 90  3  3  6  4 44.0800000  0  4G 6G12G11G13
  22028059.183    22028062.560    10456567.938 9   1730848.681 8
  21402691.012    21402694.510   -38256772.120 9  42457495.824 9
  21423575.546    21423578.606     3112039.539 9    996072.997 8
  20675870.207    20675872.933   -16580210.450 9 -14149499.268 8
 90  3  3  6  4 59.0800000  0  4G 6G12G11G13
  22036955.177    22036957.147    10503311.859 9   1767272.514 8
  21395814.826    21395817.930   -38292907.381 9  42429338.492 9
  21428523.752    21428527.008     3138042.377 9   1016334.955 9
  20673615.009    20673618.925   -16592056.458 9 -14158729.899 8
 90  3  3  6  5 14.0800000  0  4G 6G12G11G13
  22045869.464    22045872.514    10550159.611 8   1803777.243 7
  21388959.120    21388961.607   -38328941.314 9  42401260.106 9
  21433481.153    21433484.629     3164093.833 9   1036634.781 9
  20671381.019    20671384.105   -16603801.365 9 -14167881.766 8
 90  3  3  6  5 29.0800000  0  4G 6G12G11G13
  22054803.523    22054807.004    10597111.080 8   1840362.775 9
  21382119.960    21382124.536   -38364873.506 9  42373261.030 9
  21438447.115    21438450.687     3190193.620 9   1056972.269 9
  20669165.343    20669168.229   -16615445.356 9 -14176954.969 8
 90  3  3  6  5 44.0800000  0  4G 6G12G11G13
  22063758.551    22063761.529    10644165.863 9   1877028.831 8
  21375302.546    21375305.637   -38400703.608 9  42345341.481 8
  21443423.711    21443427.083     3216341.412 8   1077347.177 8
  20666968.589    20666972.804   -16626988.662 9 -14185949.735 8
 90  3  3  6  5 59.0800000  0  4G 6G12G11G13
  22072732.683    22072736.189    10691323.720 9   1913775.194 9
  21368502.820    21368507.160   -38436431.405 9  42317501.653 9
  21448408.561    21448412.091     3242537.063 9   1097759.375 9
  20664790.749    20664795.238   -16638431.268 9 -14194866.054 8
 90  3  3  6  6 14.0800000  0  4G 6G12G11G13
  22081724.778    22081728.400    10738584.178 9   1950601.501 9
  21361723.713    21361728.319   -38472056.402 9  42289741.932 9
  21453402.281    21453406.368     3268780.354 9   1118208.685 8
  20662632.168    20662637.005   -16649773.266 9 -14203703.946 8
 90  3  3  6  6 29.0800000  0  4G 6G12G11G13
  22090737.787    22090740.939    10785947.132 9   1987507.696 8
  21354965.498    21354968.122   -38507578.274 9  42262062.571 9
  21458406.205    21458409.636     3295071.017 9   1138694.915 8
  20660492.744    20660496.683   -16661014.809 9 -14212463.580 9
 90  3  3  6  6 44.0800000  0  4G 6G12G11G13
  22099770.819    22099773.377    10833412.145 9   2024493.403 8
  21348224.750    21348228.255   -38542996.744 9  42234463.787 9
  21463417.400    21463420.999     3321408.766 9   1159217.839 8
  20658371.887    20658377.904   -16672156.284 8 -14221145.230 8
 90  3  3  6  6 59.0800000  0  4G 6G12G11G13
  22108821.099    22108825.266    10880978.952 9   2061558.430 8
  21341505.033    21341508.744   -38578311.477 9  42206945.831 9
  21468437.334    21468442.151     3347793.387 9   1179777.287 9
  20656272.165    20656274.784   -16683197.681 9 -14229748.895 8
 90  3  3  6  7 14.0800000  0  4G 6G12G11G13
  22117893.161    22117898.071    10928647.294 9   2098702.573 9
  21334804.468    21334808.146   -38613522.157 9  42179508.951 9
  21473467.449    21473471.293     3374224.539 9   1200372.985 7
  20654190.320    20654192.970   -16694138.959 9 -14238274.548 8
 90  3  3  6  7 29.0800000  0  4G 6G12G11G13
  22126982.131    22126987.438    10976416.744 9   2135925.510 9
  21328123.334    21328127.176   -38648628.401 9  42152153.460 8
  21478505.712    21478509.270     3400701.979 8   1221004.747 8
  20652127.325    20652130.311   -16704980.412 9 -14246722.417 9
 90  3  3  6  7 44.0800000  0  4G 6G12G11G13
  22136092.727    22136096.652    11024287.001 9   2173226.989 9
  21321463.573    21321465.707   -38683629.968 8  42124879.523 9
  21483553.521    21483556.607     3427225.453 9   1241672.382 9
  20650082.027    20650086.832   -16715722.141 9 -14255092.573 8
 90  3  3  6  7 59.0800000  0  4G 6G12G11G13
  22145220.545    22145226.027    11072257.824 9   2210606.835 8
  21314821.828    21314826.365   -38718526.364 9  42097687.544 9
  21488608.885    21488612.903     3453794.711 9   1262375.706 8
  20648056.904    20648060.715   -16726364.186 9 -14263385.045 7
 90  3  3  6  8 14.0800000  0  4G 6G12G11G13
  22154368.933    22154372.238    11120328.773 8   2248064.709 8
  21308202.416    21308205.804   -38753317.185 9  42070577.813 9
  21493674.740    21493677.871     3480409.535 9   1283114.532 9
  20646051.998    20646054.481   -16736906.784 9 -14271600.044 9
 90  3  3  6  8 29.0800000  0  4G 6G12G11G13
  22163536.187    22163539.325    11168499.597 9   2285600.410 8
  21301600.784    21301604.913   -38788002.231 9  42043550.520 9
  21498747.735    21498750.420     3507069.608 9   1303888.615 8
  20644063.850    20644067.460   -16747350.109 9 -14279737.674 8
 90  3  3  6  8 44.0800000  0  4G 6G12G11G13
  22172721.965    22172724.688    11216770.016 9   2323213.727 9
  21295022.219    21295025.190   -38822581.135 9  42016605.930 9
  21503829.875    21503832.221     3533774.627 9   1324697.716 8
  20642095.795    20642100.422   -16757694.178 9 -14287797.979 7
 90  3  3  6  8 59.0800000  0  4G 6G12G11G13
  22181925.640    22181927.837    11265139.671 9   2360904.351 8
  21288461.600    21288465.636   -38857053.560 9  41989744.320 9
  21508919.625    21508922.595     3560524.330 9   1345541.640 8
  20640146.101    20640150.148   -16767939.174 9 -14295781.073 9
 90  3  3  6  9 14.0800000  0  4G 6G12G11G13
  22191148.651    22191152.628    11313608.231 9   2398672.029 9
  21281922.358    21281925.734   -38891419.069 9  41962966.012 9
  21514018.364    21514022.020     3587318.525 9   1366420.232 8
  20638215.387    20638219.351   -16778085.223 9 -14303687.075 7
 90  3  3  6  9 29.0800000  0  4G 6G12G11G13
  22200391.078    22200393.863    11362175.454 9   2436516.602 9
  21275402.720    21275406.752   -38925677.258 9  41936271.340 9
  21519125.913    21519128.885     3614157.138 9   1387333.430 9
  20636303.552    20636307.101   -16788132.672 9 -14311516.233 8
 90  3  3  6  9 44.0800000  0  4G 6G12G11G13
  22209651.527    22209654.939    11410840.961 9   2474437.754 8
  21268904.775    21268907.182   -38959827.895 9  41909660.465 9
  21524241.307    21524244.793     3641039.830 9   1408280.988 9
  20634410.884    20634414.108   -16798081.391 9 -14319268.463 8
 90  3  3  6  9 59.0800000  0  4G 6G12G11G13
  22218931.315    22218935.611    11459604.429 8   2512435.264 9
  21262426.472    21262429.406   -38993870.811 9  41883133.538 9
  21529365.026    21529367.940     3667966.268 9   1429262.626 8
  20632535.999    20632539.732   -16807931.616 9 -14326943.947 9
 90  3  3  6 10 14.0800000  0  4G 6G12G11G13
  22228227.854    22228232.106    11508465.593 8   2550508.874 9
  21255968.969    21255972.274   -39027805.511 9  41856690.922 9
  21534497.046    21534500.933     3694936.207 9   1450278.161 8
  20630679.965    20630683.262   -16817683.670 9 -14334542.932 8
 90  3  3  6 10 29.0800000  0  4G 6G12G11G13
  22237545.355    22237548.476    11557424.118 9   2588658.377 8
  21249532.300    21249535.647   -39061631.596 9  41830332.943 9
  21539637.595    21539641.655     3721949.406 9   1471327.403 7
  20628843.593    20628845.895   -16827337.613 9 -14342065.465 9
 90  3  3  6 10 44.0800000  0  4G 6G12G11G13
  22246880.901    22246883.634    11606479.570 9   2626883.390 9
  21243115.120    21243118.298   -39095348.778 9  41804059.823 9
  21544786.472    21544789.787     3749005.515 9   1492410.085 9
  20627024.046    20627028.198   -16836893.620 9 -14349511.690 8
 90  3  3  6 10 59.0800000  0  4G 6G12G11G13
  22256234.625    22256237.590    11655631.754 9   2665183.794 9
  21236720.916    21236723.765   -39128956.780 9  41777871.777 9
  21549942.875    21549946.563     3776104.293 9   1513526.018 9
  20625224.722    20625227.691   -16846351.690 9 -14356881.584 8
 90  3  3  6 11 14.0800000  0  4G 6G12G11G13
  22265605.770    22265609.343    11704880.244 9   2703559.226 9
  21230345.296    21230349.187   -39162455.187 9  41751769.128 9
  21555107.579    21555111.434     3803245.406 9   1534674.931 9
  20623443.657    20623446.493   -16855712.176 9 -14364175.466 8
 90  3  3  6 11 29.0800000  0  4G 6G12G11G13
  22274995.342    22274998.386    11754224.748 9   2742009.480 9
  21223992.219    21223994.508   -39195843.676 9  41725752.137 9
  21560281.052    21560283.720     3830428.728 9   1555856.738 8
  20621680.370    20621683.946   -16864975.061 9 -14371393.279 8
 90  3  3  6 11 44.0800000  0  4G 6G12G11G13
  22284404.949    22284407.221    11803664.948 9   2780534.291 9
  21217658.901    21217663.029   -39229121.820 9  41699821.131 9
  21565461.050    21565463.847     3857653.972 9   1577071.222 9
  20619935.867    20619940.398   -16874140.387 9 -14378535.077 7
 90  3  3  6 11 59.0800000  0  4G 6G12G11G13
  22293830.072    22293833.551    11853200.485 9   2819133.384 8
  21211347.861    21211351.290   -39262289.281 9  41673976.357 9
  21570649.675    21570652.792     3884920.968 9   1598318.218 9
  20618210.985    20618213.480   -16883208.426 9 -14385601.072 9
 90  3  3  6 12 14.0800000  0  4G 6G12G11G13
  22303274.717    22303277.564    11902831.100 8   2857806.575 8
  21205057.667    21205060.744   -39295345.779 9  41648218.066 9
  21575846.104    21575849.602     3912229.451 9   1619597.546 8
  20616504.630    20616506.651   -16892179.409 9 -14392591.423 8
 90  3  3  6 12 29.0800000  0  4G 6G12G11G13
  22312737.029    22312739.862    11952556.498 9   2896553.630 9
  21198788.164    21198791.327   -39328290.973 9  41622546.492 9
  21581051.082    21581054.684     3939579.252 9   1640909.084 9
  20614815.038    20614818.539   -16901053.370 9 -14399506.193 9
 90  3  3  6 12 44.0800000  0  4G 6G12G11G13
  22322216.789    22322221.197    12002376.302 9   2935374.235 8
  21192540.010    21192544.093   -39361124.525 9  41596961.929 9
  21586263.337    21586266.666     3966970.032 8   1662252.548 8
  20613144.821    20613147.844   -16909830.454 9 -14406345.466 8
 90  3  3  6 12 59.0800000  0  4G 6G12G11G13
  22331715.934    22331718.567    12052290.126 9   2974268.112 9
  21186313.310    21186317.223   -39393846.096 9  41571464.603 9
  21591483.800    21591487.116     3994401.469 9   1683627.694 9
  20611493.493    20611495.740   -16918510.914 9 -14413109.431 7
 90  3  3  6 13 14.0800000  0  4G 6G12G11G13
  22341231.928    22341235.694    12102297.667 9   3013234.999 8
  21180107.908    21180110.791   -39426455.438 9  41546054.731 9
  21596711.434    21596715.696     4021873.353 9   1705034.350 9
  20609860.668    20609863.124   -16927094.905 9 -14419798.240 8
 90  3  3  6 13 29.0800000  0  4G 6G12G11G13
  22350765.840    22350769.290    12152398.645 8   3052274.698 8
  21173924.364    21173926.955   -39458952.120 9  41520732.655 8
  21601947.155    21601950.627     4049385.539 9   1726472.413 9
  20608244.943    20608247.296   -16935582.395 9 -14426411.852 8
 90  3  3  6 13 44.0800000  0  4G 6G12G11G13
  22360317.205    22360320.504    12202592.636 9   3091386.875 9
  21167761.358    21167764.963   -39491335.914 9  41495498.552 9
  21607190.268    21607192.514     4076937.784 9   1747941.701 9
  20606648.025    20606651.518   -16943973.537 9 -14432950.397 9
 90  3  3  6 13 59.0800000  0  4G 6G12G11G13
  22369886.446    22369889.733    12252879.346 9   3130571.306 8
  21161620.409    21161624.153   -39523606.439 9  41470352.692 9
  21612440.484    21612443.155     4104529.787 9   1769441.947 8
  20605068.989    20605070.700   -16952268.565 9 -14439414.032 7
 90  3  3  6 14 14.0800000  0  4G 6G12G11G13
  22379473.773    22379476.291    12303258.467 9   3169827.738 8
  21155501.330    21155504.831   -39555763.346 9  41445295.372 9
  21617697.769    21617700.669     4132161.193 9   1790972.918 9
  20603508.298    20603511.028   -16960467.677 9 -14445802.945 8
 90  3  3  6 14 29.0800000  0  4G 6G12G11G13
  22389077.832    22389079.949    12353729.665 9   3209155.947 9
  21149404.012    21149407.979   -39587806.294 9  41420326.857 9
  21622964.037    21622968.308     4159831.823 9   1812534.441 9
  20601966.975    20601969.987   -16968571.357 9 -14452117.478 8
 90  3  3  6 14 44.0800000  0  4G 6G12G11G13
  22398700.012    22398703.541    12404292.684 9   3248555.663 9
  21143327.589    21143332.050   -39619734.980 9  41395447.378 9
  21628236.700    21628240.503     4187541.465 9   1834126.369 9
  20600443.536    20600446.601   -16976579.526 9 -14458357.605 8
 90  3  3  6 14 59.0800000  0  4G 6G12G11G13
  22408338.787    22408342.465    12454947.088 9   3288026.592 8
  21137273.498    21137277.034   -39651549.005 9  41370657.244 8
  21633517.407    21633520.483     4215289.819 9   1855748.458 8
  20598937.728    20598938.761   -16984492.056 9 -14464523.189 9
 90  3  3  6 15 14.0800000  0  4G 6G12G11G13
  22417995.715    22417999.281    12505692.600 9   3327568.537 9
  21131242.250    21131244.965   -39683247.918 9  41345956.811 9
  21638804.669    21638807.955     4243076.650 8   1877400.532 9
  20597450.087    20597453.126   -16992309.133 9 -14470614.401 8
 90  3  3  6 15 29.0800000  0  4G 6G12G11G13
  22427668.966    22427673.944    12556528.845 9   3367181.170 9
  21125231.291    21125235.530   -39714831.517 9  41321346.225 9
  21644100.544    21644102.385     4270901.727 9   1899082.407 8
  20595980.721    20595983.560   -17000030.922 9 -14476631.360 9
 90  3  3  6 15 44.0800000  0  4G 6G12G11G13
  22437360.156    22437364.023    12607455.507 9   3406864.283 9
  21119243.600    21119246.904   -39746299.517 9  41296825.722 9
  21649401.970    21649404.798     4298764.801 9   1920793.890 8
  20594529.336    20594532.671   -17007657.835 9 -14482574.388 8
 90  3  3  6 15 59.0800000  0  4G 6G12G11G13
  22447068.310    22447072.244    12658472.262 9   3446617.580 8
  21113277.194    21113280.588   -39777651.479 9  41272395.630 9
  21654711.967    21654714.971     4326665.716 9   1942534.871 9
  20593095.727    20593098.648   -17015189.989 9 -14488443.587 8
 90  3  3  6 16 14.0800000  0  4G 6G12G11G13
  22456793.748    22456796.348    12709578.708 8   3486440.772 8
  21107333.883    21107335.773   -39808887.105 9  41248056.197 8
  21660027.661    21660031.977     4354604.208 9   1964305.110 9
  20591679.752    20591683.494   -17022627.608 9 -14494239.127 8
 90  3  3  6 16 29.0800000  0  4G 6G12G11G13
  22466535.832    22466539.010    12760774.556 9   3526333.622 9
  21101411.251    21101415.005   -39840006.035 9  41223807.685 8
  21665351.282    21665355.568     4382580.071 9   1986104.484 9
  20590283.814    20590286.409   -17029970.467 9 -14499960.813 8
 90  3  3  6 16 44.0800000  0  4G 6G12G11G13
  22476296.143    22476298.859    12812059.380 8   3566295.794 8
  21095512.172    21095515.460   -39871008.139 8  41199650.215 9
  21670682.269    21670685.429     4410592.966 9   2007932.698 8
  20588904.481    20588906.171   -17037219.027 9 -14505609.023 9
 90  3  3  6 16 59.0800000  0  4G 6G12G11G13
  22486071.391    22486075.091    12863432.925 9   3606327.087 9
  21089634.780    21089638.409   -39901893.095 9  41175584.043 8
  21676019.639    21676023.244     4438642.508 9   2029789.488 9
  20587541.724    20587545.208   -17044373.483 9 -14511183.911 8
 90  3  3  6 17 14.0800000  0  4G 6G12G11G13
  22495863.893    22495867.415    12914894.816 8   3646427.233 8
  21083780.951    21083782.847   -39932660.524 9  41151609.436 9
  21681364.154    21681367.211     4466728.644 9   2051674.798 7
  20586198.730    20586200.906   -17051433.837 9 -14516685.468 8
 90  3  3  6 17 29.0800000  0  4G 6G12G11G13
  22505673.328    22505676.908    12966444.742 9   3686595.988 8
  21077947.704    21077950.236   -39963310.092 9  41127726.661 9
  21686716.080    21686719.333     4494851.098 9   2073588.391 9
  20584872.627    20584876.234   -17058400.310 9 -14522113.877 8
 90  3  3  6 17 44.0800000  0  4G 6G12G11G13
  22515499.743    22515502.601    13018082.395 9   3726833.090 9
  21072138.219    21072140.213   -39993841.425 9  41103936.033 8
  21692074.053    21692076.927     4523009.556 9   2095530.053 8
  20583565.034    20583567.787   -17065273.369 9 -14527469.499 8
 90  3  3  6 17 59.0800000  0  4G 6G12G11G13
  22525343.416    22525346.667    13069807.235 8   3767138.150 9
  21066350.601    21066352.480   -40024254.361 9  41080237.654 9
  21697439.097    21697444.015     4551203.771 9   2117499.558 8
  20582275.270    20582278.082   -17072052.967 9 -14532752.276 8
 90  3  3  6 18 14.0800000  0  4G 6G12G11G13
  22535203.342    22535205.848    13121619.202 8   3807511.099 8
  21060586.082    21060588.636   -40054548.247 9  41056632.042 8
  21702810.969    21702814.141     4579433.645 9   2139496.863 8
  20581002.966    20581004.942   -17078739.160 9 -14537962.295 9
 90  3  3  6 18 29.0800000  0  4G 6G12G11G13
  22545078.331    22545082.238    13173517.792 9   3847951.542 9
  21054844.428    21054846.246   -40084722.952 9  41033119.294 9
  21708189.468    21708194.455     4607698.917 9   2161521.748 8
  20579748.197    20579752.075   -17085332.089 9 -14543099.625 8
 90  3  3  6 18 44.0800000  0  4G 6G12G11G13
  22554969.688    22554974.598    13225502.806 9   3888459.325 9
  21049123.846    21049126.589   -40114778.119 9  41009699.696 9
  21713576.146    21713578.487     4635999.302 8   2183574.008 9
  20578511.045    20578513.667   -17091831.882 9 -14548164.388 8
 90  3  3  6 18 59.0800000  0  4G 6G12G11G13
  22564879.511    22564883.146    13277573.621 9   3929033.976 8
  21043427.439    21043430.169   -40144713.494 9  40986373.445 9
  21718967.706    21718970.562     4664334.663 9   2205653.498 9
  20577292.115    20577294.362   -17098238.736 9 -14553156.727 8
 90  3  3  6 19 14.0800000  0  4G 6G12G11G13
  22574803.964    22574808.713    13329730.058 9   3969675.316 8
  21037754.511    21037757.625   -40174528.823 9  40963140.731 9
  21724366.350    21724368.791     4692704.559 9   2227759.911 8
  20576090.445    20576094.561   -17104553.022 9 -14558076.934 8
 90  3  3  6 19 29.0800000  0  4G 6G12G11G13
  22584744.646    22584749.648    13381971.699 9   4010383.063 9
  21032103.258    21032105.805   -40204223.616 8  40940001.948 8
  21729771.104    21729775.690     4721108.797 9   2249893.086 9
  20574906.267    20574908.889   -17110774.950 9 -14562925.158 9
 90  3  3  6 19 44.0800000  0  4G 6G12G11G13
  22594702.968    22594707.364    13434298.214 8   4051156.949 8
  21026475.490    21026478.167   -40233797.599 9  40916957.298 9
  21735182.940    21735186.056     4749547.231 9   2272052.903 8
  20573739.696    20573742.834   -17116904.444 9 -14567701.380 8
 90  3  3  6 19 59.0800000  0  4G 6G12G11G13
  22604676.698    22604681.474    13486709.410 8   4091996.826 8
  21020870.457    21020873.976   -40263250.561 9  40894006.954 9
  21740601.414    21740604.202     4778019.620 9   2294239.174 9
  20572591.608    20572593.909   -17122941.818 9 -14572405.808 8
 90  3  3  6 20 14.0800000  0  4G 6G12G11G13
  22614666.674    22614670.270    13539204.754 9   4132902.283 8
  21015289.312    21015291.968   -40292582.112 9  40871151.216 8
  21746024.686    21746028.731     4806525.782 9   2316451.774 9
  20571460.616    20571463.525   -17128887.134 9 -14577038.512 8
 90  3  3  6 20 29.0800000  0  4G 6G12G11G13
  22624672.274    22624675.224    13591784.033 9   4173873.119 9
  21009730.240    21009733.697   -40321791.873 9  40848390.363 8
  21751456.952    21751460.384     4835065.570 9   2338690.565 9
  20570345.981    20570348.255   -17134740.564 9 -14581599.614 7
 90  3  3  6 20 44.0800000  0  4G 6G12G11G13
  22634693.953    22634697.253    13644446.905 9   4214909.111 9
  21004196.284    21004197.724   -40350879.633 9  40825724.588 8
  21756894.360    21756897.304     4863638.584 9   2360955.256 9
  20569249.534    20569251.649   -17140502.254 8 -14586089.237 9
 90  3  3  6 20 59.0800000  0  4G 6G12G11G13
  22644730.798    22644734.938    13697192.820 9   4256009.800 9
  20998683.928    20998686.282   -40379845.212 9  40803154.020 8
  21762337.391    21762340.292     4892244.465 9   2383245.546 9
  20568170.283    20568171.957   -17146172.465 9 -14590507.559 8
 90  3  3  6 21 14.0800000  0  4G 6G12G11G13
  22654783.679    22654786.722    13750021.441 8   4297174.945 8
  20993194.247    20993198.518   -40408688.274 8  40780678.913 8
  21767787.147    21767790.803     4920882.971 9   2405561.280 8
  20567109.632    20567112.410   -17151751.572 9 -14594854.908 8
 90  3  3  6 21 29.0800000  0  4G 6G12G11G13
  22664852.439    22664856.951    13802932.537 9   4338404.323 9
  20987729.270    20987732.730   -40437408.262 9  40758299.711 8
  21773244.131    21773245.898     4949554.015 9   2427902.345 8
  20566064.841    20566068.336   -17157239.499 9 -14599131.189 9
 90  3  3  6 21 44.0800000  0  4G 6G12G11G13
  22674935.946    22674940.029    13855925.751 9   4379697.726 9
  20982287.067    20982290.617   -40466004.996 8  40736016.547 8
  21778704.747    21778707.919     4978257.309 9   2450268.561 8
  20565038.131    20565041.095   -17162636.518 9 -14603336.662 8
 90  3  3  6 21 59.0800000  0  4G 6G12G11G13
  22685036.772    22685040.307    13909000.690 9   4421054.796 8
  20976869.697    20976872.208   -40494478.111 9  40713829.711 9
  21784173.117    21784176.374     5006992.711 9   2472659.778 8
  20564028.083    20564029.752   -17167942.720 9 -14607471.350 9
 90  3  3  6 22 14.0800000  0  4G 6G12G11G13
  22695151.307    22695155.066    13962157.062 9   4462475.323 9
  20971475.001    20971477.888   -40522827.328 9  40691739.444 9
  21789647.585    21789650.300     5035759.899 9   2495075.770 9
  20563034.939    20563037.404   -17173158.264 9 -14611535.392 8
 90  3  3  6 22 29.0800000  0  4G 6G12G11G13
  22705282.234    22705286.975    14015394.495 9   4503959.030 9
  20966104.493    20966106.708   -40551052.392 9  40669745.889 8
  21795127.676    21795130.863     5064558.703 9   2517516.390 8
  20562059.428    20562061.953   -17178283.661 9 -14615529.197 9
 90  3  3  6 22 44.0800000  0  4G 6G12G11G13
  22715428.449    22715432.029    14068712.718 8   4545505.669 9
  20960756.357    20960759.784   -40579152.885 9  40647849.411 9
  21800614.522    21800617.237     5093388.956 9   2539981.530 9
  20561101.796    20561104.199   -17183318.756 9 -14619452.623 8
 90  3  3  6 22 59.0800000  0  4G 6G12G11G13
  22725588.677    22725594.524    14122111.291 9   4587114.932 9
  20955433.137    20955435.493   -40607128.549 9  40626050.213 8
  21806106.333    21806110.019     5122250.404 9   2562470.972 9
  20560161.497    20560162.700   -17188263.607 9 -14623305.749 9
 90  3  3  6 23 14.0800000  0  4G 6G12G11G13
  22735766.899    22735770.603    14175589.868 8   4628786.527 9
  20950133.025    20950136.423   -40634979.079 9  40604348.508 8
  21811603.983    21811607.467     5151142.681 9   2584984.436 8
  20559236.923    20559239.717   -17193118.526 9 -14627088.799 9
 90  3  3  6 23 29.0800000  0  4G 6G12G11G13
  22745959.070    22745962.692    14229148.020 8   4670520.136 8
  20944858.336    20944860.648   -40662704.160 9  40582744.550 8
  21817107.940    21817111.183     5180065.593 9   2607521.769 9
  20558330.140    20558332.103   -17197883.616 9 -14630801.850 8
 90  3  3  6 23 44.0800000  0  4G 6G12G11G13
  22756165.463    22756170.809    14282785.378 8   4712315.457 9
  20939605.413    20939608.030   -40690303.574 9  40561238.528 8
  21822617.582    21822620.194     5209019.022 9   2630082.882 8
  20557440.159    20557443.925   -17202559.130 9 -14634445.101 8
 90  3  3  6 23 59.0800000  0  4G 6G12G11G13
  22766388.158    22766390.295    14336501.790 9   4754172.378 8
  20934377.883    20934379.447   -40717777.002 9  40539830.672 8
  21828133.357    21828136.270     5238002.699 9   2652667.572 9
  20556567.362    20556570.189   -17207145.343 9 -14638018.759 8
 90  3  3  6 24 14.0800000  0  4G 6G12G11G13
  22776623.680    22776627.210    14390296.764 9   4796090.529 8
  20929173.583    20929174.965   -40745124.101 9  40518521.254 9
  21833654.786    21833656.559     5267016.368 9   2675275.618 9
  20555711.297    20555714.838   -17211642.278 9 -14641522.854 9
 90  3  3  6 24 29.0800000  0  4G 6G12G11G13
  22786876.149    22786879.057    14444169.947 8   4838069.617 8
  20923993.381    20923995.774   -40772344.464 9  40497310.581 8
  21839181.041    21839184.598     5296059.837 9   2697906.903 9
  20554872.794    20554875.731   -17216050.277 9 -14644957.657 8
 90  3  3  6 24 44.0800000  0  4G 6G12G11G13
  22797141.350    22797145.390    14498120.942 9   4880109.344 8
  20918838.094    20918840.732   -40799437.863 9  40476198.859 9
  21844713.617    21844716.360     5325132.758 9   2720561.125 9
  20554051.446    20554054.645   -17220369.472 9 -14648323.253 8
 90  3  3  6 24 59.0800000  0  4G 6G12G11G13
  22807423.678    22807427.427    14552149.491 8   4922209.484 8
  20913706.137    20913709.476   -40826404.134 9  40455186.193 9
  21850251.589    21850255.163     5354234.961 9   2743238.168 8
  20553246.382    20553248.702   -17224599.942 9 -14651619.708 8
 90  3  3  6 25 14.0800000  0  4G 6G12G11G13
  22817718.516    22817723.763    14606255.269 9   4964369.815 9
  20908599.460    20908602.317   -40853242.991 9  40434272.804 9
  21855794.628    21855798.170     5383366.296 9   2765937.910 8
  20552457.961    20552460.694   -17228741.650 9 -14654847.001 8
 90  3  3  6 25 29.0800000  0  4G 6G12G11G13
  22828031.752    22828034.009    14660437.824 9   5006589.965 9
  20903516.238    20903518.939   -40879954.079 9  40413458.979 8
  21861344.431    21861346.647     5412526.553 9   2788660.194 8
  20551686.323    20551688.725   -17232795.127 9 -14658005.547 9
 90  3  3  6 25 44.0800000  0  4G 6G12G11G13
  22838355.355    22838359.150    14714696.791 9   5048869.640 9
  20898458.074    20898460.554   -40906537.068 9  40392744.967 9
  21866898.746    21866902.161     5441715.463 9   2811404.796 8
  20550932.385    20550934.808   -17236760.368 9 -14661095.326 7
 90  3  3  6 25 59.0800000  0  4G 6G12G11G13
  22848696.160    22848698.413    14769031.795 9   5091208.590 8
  20893424.550    20893426.932   -40932991.623 9  40372131.029 8
  21872458.570    21872461.769     5470932.769 8   2834171.524 9
  20550194.221    20550197.456   -17240637.765 9 -14664116.659 8
 90  3  3  6 26 14.0800000  0  4G 6G12G11G13
  22859048.313    22859052.740    14823442.645 9   5133606.644 9
  20888413.501    20888416.822   -40959317.336 9  40351617.498 9
  21878023.269    21878026.242     5500178.348 9   2856960.276 9
  20549472.408    20549475.455   -17244427.518 9 -14667069.715 8
 90  3  3  6 26 29.0800000  0  4G 6G12G11G13
  22869416.389    22869421.025    14877928.790 9   5176063.344 9
  20883427.845    20883431.524   -40985514.123 9  40331204.413 8
  21883593.955    21883597.039     5529451.984 9   2879770.904 8
  20548768.119    20548771.220   -17248129.380 9 -14669954.280 8
 90  3  3  6 26 44.0800000  0  4G 6G12G11G13
  22879799.995    22879803.401    14932489.952 9   5218578.532 9
  20878468.326    20878472.060   -41011581.465 9  40310892.212 8
  21889170.272    21889173.073     5558753.323 9   2902603.116 8
  20548080.563    20548083.853   -17251743.745 9 -14672770.651 8
 90  3  3  6 26 59.0800000  0  4G 6G12G11G13
  22890197.199    22890201.171    14987125.763 8   5261151.883 8
  20873532.432    20873535.683   -41037519.137 9  40290681.052 8
  21894751.330    21894754.141     5588082.261 9   2925456.844 9
  20547410.361    20547411.440   -17255270.809 9 -14675519.005 8
 90  3  3  6 27 14.0800000  0  4G 6G12G11G13
  22900607.722    22900610.921    15041835.924 8   5303783.150 8
  20868621.225    20868625.365   -41063326.813 9  40270571.164 9
  21900337.023    21900339.995     5617438.529 9   2948331.852 8
  20546755.050    20546758.049   -17258710.812 9 -14678199.520 8
 90  3  3  6 27 29.0800000  0  4G 6G12G11G13
  22911033.350    22911037.572    15096619.910 9   5346471.956 8
  20863735.609    20863738.130   -41089004.389 9  40250562.678 8
  21905929.156    21905931.197     5646821.887 9   2971227.982 8
  20546116.148    20546119.144   -17262063.998 9 -14680812.384 8
 90  3  3  6 27 44.0800000  0  4G 6G12G11G13
  22921473.411    22921477.479    15151477.553 9   5389218.147 9
  20858873.660    20858877.093   -41114551.657 9  40230655.717 8
  21911525.537    21911528.553     5676232.113 9   2994145.047 8
  20545494.287    20545497.650   -17265330.581 9 -14683357.767 8
 90  3  3  6 27 59.0800000  0  4G 6G12G11G13
  22931926.440    22931928.590    15206408.288 9   5432021.311 8
  20854036.650    20854039.834   -41139968.215 9  40210850.606 9
  21917127.027    21917129.542     5705668.956 9   3017082.844 8
  20544890.021    20544893.167   -17268510.788 9 -14685835.829 7
 90  3  3  6 28 14.0800000  0  4G 6G12G11G13
  22942391.453    22942396.459    15261411.925 8   5474881.271 9
  20849225.311    20849228.381   -41165253.612 9  40191147.715 9
  21922734.111    21922737.684     5735132.338 8   3040041.329 9
  20544301.058    20544304.305   -17271604.495 9 -14688246.503 8
 90  3  3  6 28 29.0800000  0  4G 6G12G11G13
  22952873.003    22952877.177    15316488.042 9   5517797.707 9
  20844438.803    20844441.645   -41190407.530 9  40171547.268 8
  21928345.804    21928348.547     5764621.982 9   3063020.270 8
  20543729.314    20543732.062   -17274611.855 9 -14690589.885 8
 90  3  3  6 28 44.0800000  0  4G 6G12G11G13
  22963367.570    22963369.922    15371636.284 9   5560770.348 9
  20839676.168    20839680.862   -41215429.753 9  40152049.433 9
  21933961.264    21933965.765     5794137.664 9   3086019.507 8
  20543173.569    20543176.203   -17277533.344 9 -14692866.356 9
 90  3  3  6 28 59.0800000  0  4G 6G12G11G13
  22973874.923    22973878.444    15426856.239 8   5603798.890 7
  20834939.821    20834944.045   -41240320.121 9  40132654.340 8
  21939583.571    21939586.757     5823679.242 9   3109038.915 9
  20542632.842    20542636.683   -17280369.141 9 -14695076.073 8
 90  3  3  6 29 14.0800000  0  4G 6G12G11G13
  22984396.237    22984400.050    15482147.572 9   5646883.012 9
  20830228.195    20830232.814   -41265078.429 9  40113362.178 8
  21945210.089    21945214.134     5853246.258 9   3132078.145 9
  20542110.400    20542113.116   -17283119.349 9 -14697219.079 8
 90  3  3  6 29 29.0800000  0  4G 6G12G11G13
  22994932.366    22994933.850    15537509.911 8   5690022.492 8
  20825541.903    20825546.512   -41289704.382 9  40094173.115 9
  21950841.746    21950845.116     5882838.697 9   3155137.194 8
  20541602.738    20541605.347   -17285784.077 9 -14699295.481 7
 90  3  3  6 29 44.0800000  0  4G 6G12G11G13
  23005480.364    23005484.141    15592943.012 9   5733217.098 9
  20820882.510    20820885.101   -41314197.682 9  40075087.431 9
  21956477.521    21956480.817     5912456.372 9   3178215.899 9
  20541112.372    20541114.124   -17288363.677 9 -14701305.555 7
 90  3  3  6 29 59.0800000  0  4G 6G12G11G13
  23016042.522    23016046.172    15648446.299 9   5776466.381 8
  20816245.800    20816250.157   -41338557.916 9  40056105.442 8
  21962117.444    21962122.389     5942099.053 9   3201314.099 9
  20540637.675    20540640.622   -17290858.185 9 -14703249.314 8
 90  3  3  6 30 14.0800000  0  4G 6G12G11G13
  23026617.620    23026621.129    15704019.547 9   5819770.202 8
  20811635.761    20811639.253   -41362784.830 8  40037227.343 9
  21967763.822    21967766.567     5971766.478 9   3224431.573 9
  20540178.493    20540181.702   -17293267.867 9 -14705126.984 8
 90  3  3  6 30 29.0800000  0  4G 6G12G11G13
  23037206.037    23037210.612    15759662.407 9   5863128.259 8
  20807051.040    20807054.269   -41386878.097 9  40018453.366 8
  21973412.820    21973416.865     6001458.515 9   3247568.224 9
  20539736.609    20539738.558   -17295592.974 9 -14706938.749 7
 90  3  3  6 30 44.0800000  0  4G 6G12G11G13
  23047807.038    23047812.761    15815374.497 8   5906540.258 9
  20802492.238    20802494.878   -41410837.440 9  39999783.759 9
  21979068.814    21979072.601     6031174.987 9   3270723.910 8
  20539309.817    20539312.380   -17297833.730 9 -14708684.785 9
 90  3  3  6 30 59.0800000  0  4G 6G12G11G13
  23058422.862    23058426.243    15871155.336 8   5950005.840 8
  20797957.236    20797961.799   -41434662.658 9  39981218.663 9
  21984728.914    21984731.971     6060915.441 9   3293898.304 8
  20538900.071    20538902.095   -17299990.403 9 -14710365.292 7
 90  3  3  6 31 14.0800000  0  4G 6G12G11G13
  23069051.020    23069054.022    15927004.656 8   5993524.800 8
  20793449.348    20793452.679   -41458353.490 8  39962758.268 8
  21990392.262    21990395.951     6090679.858 9   3317091.349 9
  20538504.765    20538507.213   -17302062.831 9 -14711980.166 8
 90  3  3  6 31 29.0800000  0  4G 6G12G11G13
  23079691.320    23079694.429    15982922.070 9   6037096.799 9
  20788966.384    20788971.130   -41481909.734 9  39944402.763 8
  21996060.448    21996063.734     6120467.985 9   3340302.881 9
  20538126.792    20538128.691   -17304051.456 9 -14713529.718 9
 90  3  3  6 31 44.0800000  0  4G 6G12G11G13
  23090345.439    23090346.476    16038907.227 8   6080721.575 9
  20784510.465    20784514.266   -41505331.047 9  39926152.403 9
  22001733.757    22001737.331     6150279.547 8   3363532.671 8
  20537764.532    20537767.779   -17305956.183 9 -14715013.922 8
 90  3  3  6 31 59.0800000  0  4G 6G12G11G13
  23101011.488    23101013.892    16094959.674 9   6124398.799 9
  20780078.781    20780082.108   -41528617.220 9  39908007.336 8
  22007410.444    22007414.246     6180114.270 9   3386780.509 9
  20537417.076    20537420.792   -17307777.465 9 -14716433.101 8
 90  3  3  6 32 14.0800000  0  4G 6G12G11G13
  23111689.471    23111693.993    16151079.040 9   6168128.143 8
  20775672.681    20775677.187   -41551767.894 9  39889967.854 9
  22013092.666    22013096.111     6209971.959 9   3410046.243 9
  20537087.611    20537090.829   -17309515.629 9 -14717787.501 8
 90  3  3  6 32 29.0800000  0  4G 6G12G11G13
  23122380.405    23122385.685    16207265.065 9   6211909.420 8
  20771294.147    20771297.058   -41574782.795 9  39872034.179 8
  22018779.351    22018782.809     6239852.465 9   3433329.743 9
  20536772.624    20536774.927   -17311170.621 9 -14719077.093 8
 90  3  3  6 32 44.0800000  0  4G 6G12G11G13
  23133085.613    23133090.506    16263517.280 9   6255742.292 8
  20766939.816    20766943.248   -41597661.659 9  39854206.502 8
  22024469.377    22024472.718     6269755.628 9   3456630.913 9
  20536473.183    20536475.895   -17312742.555 9 -14720301.969 8
 90  3  3  6 32 59.0800000  0  4G 6G12G11G13
  23143803.932    23143808.472    16319835.399 8   6299626.504 8
  20762612.802    20762615.474   -41620404.176 9  39836485.066 8
  22030163.976    22030167.492     6299681.235 9   3479949.575 9
  20536189.842    20536190.670   -17314231.632 9 -14721462.270 8
 90  3  3  6 33 14.0800000  0  4G 6G12G11G13
  23154533.600    23154537.077    16376219.038 9   6343561.783 8
  20758310.825    20758314.372   -41643009.972 9  39818870.161 9
  22035862.053    22035865.270     6329629.037 9   3503285.523 8
  20535921.723    20535925.220   -17315638.101 9 -14722558.213 8
 90  3  3  6 33 29.0800000  0  4G 6G12G11G13
  23165275.919    23165279.234    16432667.909 8   6387547.915 8
  20754035.553    20754038.213   -41665479.004 8  39801361.843 8
  22041566.169    22041569.027     6359598.965 9   3526638.722 9
  20535669.891    20535672.937   -17316962.261 9 -14723590.013 8
 90  3  3  6 33 44.0800000  0  4G 6G12G11G13
  23176030.021    23176034.100    16489181.584 9   6431584.505 8
  20749785.302    20749788.318   -41687810.934 9  39783960.345 9
  22047272.260    22047276.130     6389590.725 9   3550008.927 8
  20535433.537    20535435.732   -17318204.347 9 -14724557.869 8
 90  3  3  6 33 59.0800000  0  4G 6G12G11G13
  23186796.286    23186799.352    16545759.576 9   6475671.207 8
  20745561.680    20745564.792   -41710005.580 9  39766665.820 9
  22052984.845    22052987.162     6419604.196 9   3573396.035 9
  20535212.625    20535216.412   -17319364.573 9 -14725461.934 7
 90  3  3  6 34 14.0800000  0  4G 6G12G11G13
  23197573.633    23197577.326    16602401.535 8   6519807.766 8
  20741364.403    20741367.620   -41732062.722 9  39749478.448 8
  22058699.667    22058702.539     6449638.997 9   3596799.779 9
  20535007.240    20535011.860   -17320443.031 9 -14726302.268 8
 90  3  3  6 34 29.0800000  0  4G 6G12G11G13
  23208364.224    23208368.686    16659107.197 8   6563993.979 9
  20737192.820    20737196.940   -41753981.950 9  39732398.541 9
  22064419.006    22064422.152     6479694.996 9   3620220.044 8
  20534818.210    20534820.490   -17321439.893 9 -14727079.036 9
 90  3  3  6 34 44.0800000  0  4G 6G12G11G13
  23219166.668    23219171.446    16715876.025 8   6608229.396 8
  20733048.107    20733050.676   -41775763.164 9  39715426.180 8
  22070142.468    22070146.313     6509772.039 9   3643656.690 8
  20534643.584    20534645.213   -17322355.422 9 -14727792.436 9
 90  3  3  6 34 59.0800000  0  4G 6G12G11G13
  23229982.633    23229985.926    16772707.861 8   6652513.909 8
  20728930.388    20728933.177   -41797405.936 9  39698561.680 9
  22075870.067    22075873.508     6539869.959 9   3667109.615 9
  20534485.785    20534488.631   -17323189.806 9 -14728442.577 7
 90  3  3  6 35 14.0800000  0  4G 6G12G11G13
  23240808.841    23240813.057    16829602.305 9   6696847.227 8
  20724838.622    20724841.607   -41818909.940 9  39681805.325 9
  22081601.471    22081604.423     6569988.540 9   3690578.653 8
  20534340.867    20534343.793   -17323943.225 9 -14729029.651 8
 90  3  3  6 35 29.0800000  0  4G 6G12G11G13
  23251648.637    23251652.711    16886558.842 9   6741228.921 9
  20720772.740    20720775.552   -41840275.068 9  39665157.177 8
  22087336.966    22087340.009     6600127.566 9   3714063.603 8
  20534212.898    20534215.389   -17324615.725 9 -14729553.670 8
 90  3  3  6 35 44.0800000  0  4G 6G12G11G13
  23262498.632    23262501.971    16943577.219 9   6785658.788 9
  20716733.738    20716736.762   -41861501.178 9  39648617.364 8
  22093076.139    22093079.252     6630286.752 9   3737564.277 9
  20534099.980    20534103.377   -17325207.630 9 -14730014.875 9
 90  3  3  6 35 59.0800000  0  4G 6G12G11G13
  23273359.152    23273364.233    17000657.112 9   6830136.614 9
  20712720.780    20712724.358   -41882587.863 9  39632186.179 9
  22098819.063    22098821.391     6660466.051 9   3761080.625 8
  20534002.556    20534005.788   -17325718.901 9 -14730413.275 8
 90  3  3  6 36 14.0800000  0  4G 6G12G11G13
  23284233.352    23284237.775    17057798.037 8   6874661.982 8
  20708735.271    20708737.993   -41903535.017 9  39615863.730 8
  22104565.404    22104568.104     6690665.127 9   3784612.364 8
  20533921.830    20533923.779   -17326149.915 8 -14730749.124 8
 90  3  3  6 36 29.0800000  0  4G 6G12G11G13
  23295116.947    23295123.471    17114999.629 8   6919234.636 8
  20704775.209    20704777.871   -41924342.302 9  39599650.269 8
  22110316.526    22110319.711     6720883.888 9   3808159.453 9
  20533854.592    20533857.351   -17326500.882 9 -14731022.595 8
 90  3  3  6 36 44.0800000  0  4G 6G12G11G13
  23306014.207    23306018.972    17172261.445 9   6963854.195 8
  20700842.354    20700844.847   -41945009.356 9  39583546.075 9
  22116070.067    22116074.097     6751122.100 9   3831721.700 9
  20533802.993    20533805.822   -17326772.045 9 -14731233.883 8
 90  3  3  6 36 59.0800000  0  4G 6G12G11G13
  23316921.832    23316926.207    17229583.108 8   7008520.390 8
  20696936.615    20696938.878   -41965536.156 9  39567551.176 9
  22121827.942    22121831.659     6781379.494 9   3855298.883 9
  20533766.076    20533769.116   -17326963.703 9 -14731383.212 8
 90  3  3  6 37 14.0800000  0  4G 6G12G11G13
  23327842.384    23327845.514    17286964.487 8   7053233.142 8
  20693057.156    20693059.828   -41985922.063 9  39551666.056 8
  22127588.866    22127591.509     6811656.056 9   3878891.003 9
  20533745.915    20533748.842   -17327075.699 9 -14731470.473 7
 90  3  3  6 37 29.0800000  0  4G 6G12G11G13
  23338773.839    23338774.633    17344404.617 9   7097991.682 9
  20689203.907    20689207.622   -42006167.511 8  39535890.389 9
  22133354.154    22133357.856     6841951.033 9   3902497.465 9
  20533739.149    20533742.233   -17327108.731 9 -14731496.207 8
 90  3  3  6 37 44.0800000  0  4G 6G12G11G13
  23349715.316    23349718.094    17401903.731 9   7142796.159 8
  20685378.381    20685381.614   -42026271.751 9  39520224.759 8
  22139122.646    22139126.891     6872264.675 9   3926118.488 9
  20533748.774    20533751.201   -17327062.781 9 -14731460.390 8
 90  3  3  6 37 59.0800000  0  4G 6G12G11G13
  23360667.791    23360671.887    17459461.398 9   7187646.263 9
  20681580.820    20681582.920   -42046234.467 9  39504669.392 8
  22144894.802    22144897.733     6902596.991 9   3949754.045 9
  20533771.818    20533775.717   -17326937.786 9 -14731362.981 9
 90  3  3  6 38 14.0800000  0  4G 6G12G11G13
  23371630.549    23371635.376    17517077.181 8   7232541.670 8
  20677807.874    20677811.659   -42066055.534 9  39489224.407 9
  22150670.621    22150673.409     6932947.634 9   3973403.889 9
  20533810.106    20533812.072   -17326734.195 9 -14731204.326 8
 90  3  3  6 38 29.0800000  0  4G 6G12G11G13
  23382606.222    23382611.317    17574750.473 8   7277481.858 8
  20674063.475    20674066.608   -42085734.918 9  39473889.830 8
  22156448.946    22156452.376     6963316.028 9   3997067.564 8
  20533864.086    20533866.809   -17326452.248 9 -14730984.626 9
 90  3  3  6 38 44.0800000  0  4G 6G12G11G13
  23393592.204    23393597.593    17632481.356 8   7322466.922 8
  20670346.254    20670349.055   -42105271.836 9  39458666.264 8
  22162230.992    22162234.806     6993702.660 9   4020745.455 9
  20533933.244    20533934.211   -17326091.673 9 -14730703.662 9
 90  3  3  6 38 59.0800000  0  4G 6G12G11G13
  23404587.796    23404593.972    17690269.076 8   7367496.300 8
  20666654.810    20666657.088   -42124666.543 9  39443553.506 8
  22168018.086    22168020.755     7024106.843 9   4044437.018 9
  20534015.375    20534018.132   -17325653.308 9 -14730362.055 9
 90  3  3  6 39 14.0800000  0  4G 6G12G11G13
  23415595.392    23415600.081    17748113.144 8   7412569.584 9
  20662991.182    20662993.656   -42143918.738 9  39428551.799 8
  22173805.896    22173810.596     7054528.383 9   4068142.115 8
  20534114.404    20534117.301   -17325137.246 9 -14729959.937 7
 90  3  3  6 39 29.0800000  0  4G 6G12G11G13
  23426614.278    23426618.108    17806013.380 9   7457686.633 8
  20659354.623    20659356.660   -42163028.160 9  39413661.347 9
  22179598.569    22179602.013     7084967.258 9   4091860.707 9
  20534226.871    20534230.614   -17324543.765 9 -14729497.482 7
 90  3  3  6 39 44.0800000  0  4G 6G12G11G13
  23437642.407    23437646.344    17863969.539 8   7502847.256 9
  20655746.040    20655748.205   -42181994.536 9  39398882.357 8
  22185395.155    22185397.009     7115423.258 9   4115592.652 8
  20534355.498    20534358.130   -17323872.992 9 -14728974.789 8
 90  3  3  6 39 59.0800000  0  4G 6G12G11G13
  23448681.785    23448685.049    17921981.036 8   7548051.016 8
  20652163.648    20652165.641   -42200817.697 9  39384214.952 9
  22191192.651    22191196.298     7145896.058 9   4139337.689 9
  20534497.331    20534499.758   -17323124.837 9 -14728391.795 8
 90  3  3  6 40 14.0800000  0  4G 6G12G11G13
  23459731.677    23459734.578    17980047.632 9   7593297.669 8
  20648609.113    20648611.908   -42219497.463 9  39369659.289 8
  22196994.943    22196997.672     7176385.528 9   4163095.709 8
  20534653.756    20534655.442   -17322299.650 9 -14727748.790 9
 90  3  3  6 40 29.0800000  0  4G 6G12G11G13
  23470791.407    23470796.427    18038168.874 8   7638586.933 8
  20645081.795    20645083.908   -42238033.501 9  39355215.633 9
  22202800.184    22202802.766     7206891.573 9   4186866.649 9
  20534825.740    20534828.555   -17321397.575 9 -14727045.862 8
 90  3  3  6 40 44.0800000  0  4G 6G12G11G13
  23481861.951    23481866.082    18096344.330 9   7683918.448 9
  20641582.063    20641584.521   -42256425.621 9  39340884.110 9
  22208608.955    22208611.354     7237413.921 9   4210650.283 9
  20535011.403    20535014.215   -17320418.669 9 -14726283.078 7
 90  3  3  6 40 59.0800000  0  4G 6G12G11G13
  23492943.192    23492947.927    18154573.701 9   7729291.989 9
  20638109.596    20638112.715   -42274673.616 9  39326664.900 9
  22214419.430    22214423.833     7267952.511 9   4234446.581 8
  20535212.313    20535215.081   -17319363.340 9 -14725460.757 8
 90  3  3  6 41 14.0800000  0  4G 6G12G11G13
  23504034.100    23504039.375    18212856.577 9   7774707.204 9
  20634664.309    20634668.308   -42292777.172 9  39312558.237 9
  22220234.430    22220238.029     7298507.006 9   4258255.261 9
  20535427.707    20535430.996   -17318231.932 9 -14724579.137 8
 90  3  3  6 41 29.0800000  0  4G 6G12G11G13
  23515134.845    23515139.810    18271192.660 9   7820163.857 9
  20631247.100    20631248.416   -42310736.167 9  39298564.216 9
  22226051.117    22226055.232     7329077.360 9   4282076.306 9
  20535657.796    20535660.291   -17317024.398 9 -14723638.190 8
 90  3  3  6 41 44.0800000  0  4G 6G12G11G13
  23526247.110    23526251.220    18329581.523 8   7865661.659 9
  20627857.306    20627859.103   -42328550.491 9  39284682.935 9
  22231871.650    22231875.612     7359663.298 9   4305909.490 9
  20535901.946    20535905.387   -17315740.883 9 -14722638.045 8
 90  3  3  6 41 59.0800000  0  4G 6G12G11G13
  23537368.180    23537371.921    18388022.745 9   7911200.244 9
  20624494.819    20624498.009   -42346219.959 9  39270914.512 9
  22237695.549    22237698.792     7390264.651 9   4329754.700 9
  20536161.323    20536163.158   -17314381.820 9 -14721579.024 8
 90  3  3  6 42 14.0800000  0  4G 6G12G11G13
  23548499.527    23548502.678    18446515.931 9   7956779.328 8
  20621160.148    20621162.847   -42363744.098 9  39257259.341 8
  22243521.236    22243523.180     7420881.200 9   4353611.740 9
  20536433.859    20536436.212   -17312947.320 9 -14720461.220 8
 90  3  3  6 42 29.0800000  0  4G 6G12G11G13
  23559638.791    23559642.800    18505060.747 9   8002398.650 9
  20617853.621    20617856.250   -42381122.700 9  39243717.577 9
  22249349.501    22249353.744     7451512.849 9   4377480.555 9
  20536721.283    20536722.854   -17311437.710 9 -14719284.903 8
 90  3  3  6 42 44.0800000  0  4G 6G12G11G13
  23570788.256    23570792.255    18563656.850 9   8048057.920 9
  20614573.792    20614575.439   -42398355.586 9  39230289.362 8
  22255181.584    22255186.084     7482159.345 9   4401360.936 9
  20537021.712    20537024.417   -17309853.072 9 -14718050.110 8
 90  3  3  6 42 59.0800000  0  4G 6G12G11G13
  23581948.643    23581953.546    18622303.847 9   8093756.872 8
  20611321.589    20611324.533   -42415442.508 9  39216974.869 9
  22261016.501    22261019.568     7512820.560 9   4425252.785 9
  20537338.318    20537341.280   -17308193.614 9 -14716757.031 9
 90  3  3  6 43 14.0800000  0  4G 6G12G11G13
  23593118.692    23593123.711    18681001.331 8   8139495.143 9
  20608098.564    20608101.196   -42432383.289 9  39203774.264 8
  22266852.861    22266857.950     7543496.227 9   4449155.905 9
  20537667.830    20537671.004   -17306459.522 9 -14715405.795 8
 90  3  3  6 43 29.0800000  0  4G 6G12G11G13
  23604298.673    23604303.002    18739748.979 8   8185272.513 8
  20604902.792    20604904.089   -42449177.847 8  39190687.603 9
  22272693.614    22272697.902     7574186.227 9   4473070.184 9
  20538012.332    20538014.204   -17304651.063 9 -14713996.593 7
 90  3  3  6 43 44.0800000  0  4G 6G12G11G13
  23615487.148    23615492.232    18798546.338 7   8231088.605 8
  20601734.256    20601737.183   -42465825.817 9  39177715.162 9
  22278536.302    22278540.776     7604890.396 9   4496995.510 8
  20538370.102    20538373.259   -17302768.374 9 -14712529.547 8
 90  3  3  6 43 59.0800000  0  4G 6G12G11G13
  23626686.463    23626689.397    18857393.052 8   8276943.160 9
  20598594.116    20598596.883   -42482327.070 9  39164857.042 9
  22284382.036    22284385.422     7635608.565 9   4520931.734 9
  20538742.606    20538745.213   -17300811.589 9 -14711004.779 8
 90  3  3  6 44 14.0800000  0  4G 6G12G11G13
  23637893.376    23637897.785    18916288.769 8   8322835.900 8
  20595482.900    20595484.757   -42498681.452 9  39152113.378 8
  22290230.730    22290233.420     7666340.540 9   4544878.720 9
  20539128.985    20539130.972   -17298781.012 9 -14709422.509 8
 90  3  3  6 44 29.0800000  0  4G 6G12G11G13
  23649109.790    23649114.809    18975233.120 9   8368766.522 9
  20592398.508    20592401.444   -42514888.710 9  39139484.346 8
  22296081.402    22296085.418     7697086.042 9   4568836.261 9
  20539529.759    20539532.323   -17296676.932 9 -14707782.968 7
 90  3  3  6 44 44.0800000  0  4G 6G12G11G13
  23660335.447    23660340.179    19034225.622 8   8414734.677 9
  20589342.561    20589344.923   -42530948.637 9  39126970.120 8
  22301934.478    22301937.994     7727845.042 9   4592804.302 9
  20539944.164    20539946.900   -17294499.468 8 -14706086.248 8
 90  3  3  6 44 59.0800000  0  4G 6G12G11G13
  23671567.427    23671575.490    19093265.945 6   8460740.085 8
  20586314.088    20586316.215   -42546861.036 9  39114570.860 9
  22307790.830    22307792.540     7758617.237 9   4616782.638 9
  20540372.736    20540375.530   -17292248.795 9 -14704332.468 8
 90  3  3  6 45 14.0800000  0  3G12G11G13
  20583314.598    20583316.611   -42562625.572 9  39102286.800 9
  22313648.134    22313652.314     7789402.460 8   4640771.120 8
  20540814.778    20540817.770   -17289925.148 8 -14702521.836 7
 90  3  3  6 45 29.0800000  0  4G 3G12G11G13
                  23185591.078   -56780626.617 9
  20580341.415    20580344.846   -42578242.133 9  39090118.059 8
  22319510.204    22319512.264     7820200.629 9   4664769.686 9
  20541271.292    20541273.236   -17287528.606 8 -14700654.390 8
 90  3  3  6 45 44.0800000  0  4G 3G12G11G13
  23179382.625    23179386.626   -56813387.755 9  72111324.620 9
  20577397.672    20577401.133   -42593710.548 9  39078064.738 8
  22325372.465    22325376.138     7851011.578 9   4688778.213 9
  20541740.114    20541742.258   -17285059.557 9 -14698730.449 8
 90  3  3  6 45 59.0800000  0  4G 3G12G11G13
  23173159.807    23173163.278   -56846088.907 8  72085842.727 9
  20574483.315    20574486.776   -42609030.614 9  39066127.039 9
  22331238.208    22331240.683     7881834.962 9   4712796.422 9
  20542224.262    20542227.163   -17282518.153 9 -14696750.127 8
 90  3  3  6 46 14.0800000  0  4G 3G12G11G13
  23166947.779    23166951.923   -56878730.273 9  72060407.920 8
  20571595.908    20571598.179   -42624202.250 9  39054304.999 8
  22337105.855    22337108.649     7912670.748 9   4736824.305 9
  20542720.975    20542724.002   -17279904.576 9 -14694713.567 8
 90  3  3  6 46 29.0800000  0  4G 3G12G11G13
  23160747.368    23160751.477   -56911311.908 9  72035019.648 9
  20568737.144    20568739.858   -42639225.312 9  39042598.713 9
  22342975.257    22342978.648     7943518.665 9   4760861.654 8
  20543230.879    20543234.615   -17277219.047 9 -14692620.940 8
 90  3  3  6 46 44.0800000  0  4G 3G12G11G13
  23154557.892    23154563.209   -56943833.719 9  72009677.999 9
  20565907.127    20565909.614   -42654099.474 9  39031008.466 8
  22348848.839    22348851.557     7974378.584 9   4784908.344 9
  20543756.397    20543760.508   -17274461.871 9 -14690472.496 8
 90  3  3  6 46 59.0800000  0  4G 3G12G11G13
  23148381.241    23148385.349   -56976295.950 9  71984382.782 9
  20563104.759    20563109.018   -42668824.495 9  39019534.416 9
  22354722.675    22354726.188     8005250.444 9   4808964.325 9
  20544295.882    20544298.779   -17271633.014 9 -14688268.179 7
 90  3  3  6 47 14.0800000  0  4G 3G12G11G13
  23142215.434    23142218.782   -57008698.385 8  71959134.143 9
  20560330.961    20560335.207   -42683400.137 9  39008176.778 9
  22360599.908    22360602.900     8036134.003 9   4833029.447 9
  20544847.225    20544850.015   -17268732.837 9 -14686008.292 9
 90  3  3  6 47 29.0800000  0  4G 3G12G11G13
  23136062.357    23136064.840   -57041041.011 9  71933932.118 9
  20557585.054    20557589.215   -42697826.198 9  38996935.698 9
  22366479.107    22366482.510     8067029.196 9   4857103.616 8
  20545411.980    20545414.588   -17265761.350 9 -14683692.837 8
 90  3  3  6 47 44.0800000  0  4G 3G12G11G13
  23129917.075    23129921.935   -57073324.027 9  71908776.545 8
  20554868.452    20554872.042   -42712102.648 9  38985811.199 8
  22372359.580    22372362.464     8097935.754 9   4881186.643 9
  20545992.453    20545994.585   -17262718.907 8 -14681322.106 8
 90  3  3  6 47 59.0800000  0  4G 3G12G11G13
  23123786.373    23123789.628   -57105547.365 9  71883667.472 9
  20552180.669    20552184.830   -42726229.229 9  38974803.477 9
  22378244.562    22378246.857     8128853.412 9   4905278.328 9
  20546584.170    20546586.443   -17259605.769 9 -14678896.269 8
 90  3  3  6 48 14.0800000  0  4G 3G12G11G13
  23117664.878    23117669.311   -57137711.315 9  71858604.681 9
  20549521.020    20549523.950   -42740205.731 9  38963912.691 8
  22384129.430    22384131.807     8159782.041 9   4929378.546 9
  20547190.212    20547193.134   -17256422.214 9 -14676415.573 8
 90  3  3  6 48 29.0800000  0  4G 3G12G11G13
  23111555.197    23111559.239   -57169815.583 9  71833588.383 9
  20546890.331    20546893.744   -42754031.993 9  38953138.992 8
  22390017.166    22390019.794     8190721.575 9   4953487.272 9
  20547809.574    20547811.922   -17253168.369 9 -14673880.107 9
 90  3  3  6 48 44.0800000  0  4G 3G12G11G13
  23105457.341    23105461.712   -57201860.337 8  71808618.460 9
  20544287.589    20544290.502   -42767707.764 9  38942482.545 8
  22395906.255    22395909.282     8221671.755 9   4977604.284 9
  20548442.256    20548445.704   -17249844.354 9 -14671289.958 8
 90  3  3  6 48 59.0800000  0  4G 3G12G11G13
  23099370.832    23099375.160   -57233845.526 8  71783694.944 8
  20541712.933    20541717.421   -42781232.867 9  38931943.505 9
  22401798.269    22401801.145     8252632.450 9   5001729.496 9
  20549087.050    20549090.397   -17246450.483 9 -14668645.371 8
 90  3  3  6 49 14.0800000  0  4G 3G12G11G13
  23093296.608    23093299.635   -57265771.372 9  71758817.674 9
  20539168.829    20539172.159   -42794607.252 8  38921521.911 9
  22407691.516    22407695.682     8283603.456 9   5025862.738 9
  20549746.027    20549749.835   -17242986.878 9 -14665946.460 8
 90  3  3  6 49 29.0800000  0  4G 3G12G11G13
  23087232.421    23087236.256   -57297637.683 9  71733986.803 9
  20536653.156    20536655.257   -42807830.678 9  38911217.945 9
  22413587.533    22413590.329     8314584.733 9   5050003.998 9
  20550418.642    20550421.303   -17239453.776 9 -14663193.384 7
 90  3  3  6 49 44.0800000  0  4G 3G12G11G13
  23081179.518    23081183.981   -57329444.619 9  71709202.187 9
  20534164.499    20534168.463   -42820903.008 9  38901031.725 8
  22419484.848    22419488.484     8345576.039 9   5074153.057 9
  20551104.669    20551107.159   -17235851.370 8 -14660386.299 9
 90  3  3  6 49 59.0800000  0  4G 3G12G11G13
  23075138.477    23075142.132   -57361192.125 9  71684463.877 9
  20531706.110    20531708.624   -42833824.074 9  38890963.350 9
  22425383.966    22425387.387     8376577.244 9   5098309.845 9
  20551803.135    20551805.564   -17232179.687 9 -14657525.234 8
 90  3  3  6 50 14.0800000  0  4G 3G12G11G13
  23069108.304    23069111.710   -57392880.284 8  71659771.815 9
  20529276.005    20529279.550   -42846593.752 9  38881012.951 9
  22431285.667    22431289.046     8407588.155 9   5122474.175 9
  20552514.239    20552516.992   -17228439.018 9 -14654610.427 8
 90  3  3  6 50 29.0800000  0  4G 3G12G11G13
  23063089.952    23063092.734   -57424509.143 9  71635125.971 9
  20526875.021    20526878.180   -42859211.837 9  38871180.682 9
  22437188.048    22437191.673     8438608.604 9   5146645.951 9
  20553240.316    20553242.475   -17224629.670 9 -14651642.090 9
 90  3  3  6 50 44.0800000  0  4G 3G12G11G13
  23057082.463    23057085.649   -57456078.729 9  71610526.298 9
  20524503.330    20524506.346   -42871678.049 9  38861466.767 8
  22443093.277    22443096.611     8469638.420 9   5170825.016 8
  20553977.397    20553980.515   -17220751.751 9 -14648620.327 7
 90  3  3  6 50 59.0800000  0  4G 3G12G11G13
  23051085.194    23051088.020   -57487589.065 8  71585972.804 9
  20522159.956    20522162.042   -42883992.233 9  38851871.289 9
  22449000.384    22449004.042     8500677.587 9   5195011.379 9
  20554728.318    20554731.112   -17216805.606 9 -14645545.404 8
 90  3  3  6 51 14.0800000  0  4G 3G12G11G13
  23045100.330    23045104.181   -57519040.039 8  71561465.555 9
  20519845.699    20519848.215   -42896154.333 9  38842394.327 8
  22454907.590    22454911.895     8531725.739 9   5219204.730 9
  20555492.254    20555494.548   -17212791.629 9 -14642417.616 8
 90  3  3  6 51 29.0800000  0  4G 3G12G11G13
  23039127.660    23039130.843   -57550431.957 9  71537004.321 9
  20517560.807    20517563.919   -42908164.231 9  38833035.958 9
  22460817.297    22460821.395     8562782.753 9   5243404.989 9
  20556269.287    20556272.190   -17208709.829 9 -14639236.988 8
 90  3  3  6 51 44.0800000  0  4G 3G12G11G13
  23033165.277    23033168.032   -57581764.611 9  71512589.270 9
  20515303.889    20515307.534   -42920021.681 9  38823796.389 8
  22466729.054    22466733.160     8593848.500 9   5267612.057 9
  20557059.209    20557060.872   -17204560.252 9 -14636003.538 9
 90  3  3  6 51 59.0800000  0  4G 3G12G11G13
  23027213.867    23027217.418   -57613038.222 9  71488220.223 9
  20513076.234    20513078.846   -42931726.469 9  38814675.774 8
  22472642.601    22472646.777     8624922.869 9   5291825.853 8
  20557861.239    20557864.065   -17200343.135 9 -14632717.466 8
 90  3  3  6 52 14.0800000  0  4G 3G12G11G13
  23021272.813    23021277.248   -57644252.683 9  71463897.272 9
  20510878.553    20510880.666   -42943278.476 9  38805674.204 9
  22478557.237    22478560.889     8656005.578 8   5316046.148 9
  20558676.806    20558679.608   -17196058.837 9 -14629379.045 8
 90  3  3  6 52 29.0800000  0  4G 3G12G11G13
  23015344.350    23015347.910   -57675408.107 9  71439620.330 9
  20508709.464    20508711.963   -42954677.494 9  38796791.853 9
  22484474.292    22484478.100     8687096.560 9   5340272.884 9
  20559504.713    20559506.657   -17191707.571 9 -14625988.445 8
 90  3  3  6 52 44.0800000  0  4G 3G12G11G13
  23009427.679    23009430.847   -57706504.467 9  71415389.394 8
  20506568.952    20506572.078   -42965923.476 9  38788028.753 9
  22490391.399    22490394.783     8718195.597 9   5364505.890 8
  20560345.076    20560347.207   -17187289.314 9 -14622545.629 7
 90  3  3  6 52 59.0800000  0  4G 3G12G11G13
  23003520.437    23003524.457   -57737541.886 9  71391204.389 9
  20504457.486    20504460.013   -42977016.272 9  38779385.023 8
  22496311.659    22496315.154     8749302.575 9   5388745.087 9
  20561199.459    20561201.640   -17182804.494 9 -14619050.947 8
 90  3  3  6 53 14.0800000  0  4G 3G12G11G13
  22997626.612    22997628.532   -57768520.479 9  71367065.225 9
  20502376.726    20502379.426   -42987955.680 9  38770860.794 8
  22502233.026    22502236.024     8780417.332 9   5412990.343 9
  20562065.259    20562067.214   -17178253.352 9 -14615504.604 8
 90  3  3  6 53 29.0800000  0  4G 3G12G11G13
  22991742.652    22991745.907   -57799440.060 9  71342972.051 9
  20500323.397    20500326.369   -42998741.409 9  38762456.333 9
  22508154.253    22508157.900     8811539.742 9   5437241.571 9
  20562943.358    20562946.354   -17173635.934 9 -14611906.611 8
 90  3  3  6 53 44.0800000  0  4G 3G12G11G13
  22985869.536    22985873.269   -57830300.868 9  71318924.669 9
  20498300.851    20498303.478   -43009373.367 9  38754171.682 8
  22514078.512    22514081.705     8842669.589 9   5461498.600 9
  20563835.043    20563836.592   -17168952.611 8 -14608257.255 8
 90  3  3  6 53 59.0800000  0  4G 3G12G11G13
  22980008.566    22980012.432   -57861103.089 9  71294922.946 9
  20496306.734    20496309.347   -43019851.485 9  38746006.920 9
  22520003.969    22520008.114     8873806.745 9   5485761.317 9
  20564737.893    20564741.093   -17164203.548 9 -14604556.676 9
 90  3  3  6 54 14.0800000  0  4G 3G12G11G13
  22974157.688    22974161.842   -57891846.260 9  71270967.231 9
  20494341.768    20494345.352   -43030175.581 9  38737962.156 8
  22525930.810    22525934.421     8904951.117 9   5510029.657 9
  20565654.047    20565657.694   -17159388.741 9 -14600804.886 9
 90  3  3  6 54 29.0800000  0  4G 3G12G11G13
  22968319.495    22968322.751   -57922530.688 8  71247057.285 9
  20492407.662    20492409.091   -43040345.428 9  38730037.605 8
  22531859.317    22531861.305     8936102.546 9   5534303.492 9
  20566581.658    20566587.088   -17154508.606 9 -14597002.175 8
 90  3  3  6 54 44.0800000  0  4G 3G12G11G13
  22962491.020    22962494.053   -57953156.569 8  71223192.976 9
  20490501.107    20490503.163   -43050360.994 9  38722233.273 8
  22537787.261    22537791.382     8967260.844 9   5558582.677 9
  20567524.572    20567528.658   -17149563.224 9 -14593148.624 8
 90  3  3  6 54 59.0800000  0  4G 3G12G11G13
  22956674.512    22956678.987   -57983723.764 9  71199374.389 9
  20488624.322    20488626.167   -43060222.127 9  38714549.270 8
  22543718.156    22543721.119     8998425.881 9   5582867.116 8
  20568477.898    20568480.401   -17144552.855 9 -14589244.436 7
 90  3  3  6 55 14.0800000  0  4G 3G12G11G13
  22950868.440    22950872.109   -58014232.470 9  71175601.383 9
  20486777.652    20486779.878   -43069928.745 9  38706985.659 8
  22549650.258    22549653.837     9029597.558 9   5607156.730 9
  20569443.063    20569445.304   -17139477.761 9 -14585289.815 8
 90  3  3  6 55 29.0800000  0  4G 3G12G11G13
  22945074.803    22945077.045   -58044682.544 9  71151874.063 8
  20484959.895    20484962.440   -43079480.627 9  38699542.656 8
  22555583.050    22555587.136     9060775.705 9   5631451.388 9
  20570421.153    20570423.234   -17134338.222 9 -14581284.966 8
 90  3  3  6 55 44.0800000  0  4G 3G12G11G13
  22939291.159    22939294.584   -58075074.152 9  71128192.292 9
  20483171.791    20483173.557   -43088877.773 9  38692220.194 8
  22561516.346    22561521.117     9091960.272 9   5655751.034 9
  20571412.513    20571413.986   -17129134.248 9 -14577229.923 7
 90  3  3  6 55 59.0800000  0  4G 3G12G11G13
  22933519.580    22933521.992   -58105407.308 9  71104556.089 9
  20481413.387    20481414.157   -43098119.930 9  38685018.524 8
  22567452.327    22567456.844     9123151.006 9   5680055.487 9
  20572414.697    20572417.177   -17123866.139 9 -14573124.892 7
 90  3  3  6 56 14.0800000  0  4G 3G12G11G13
  22927757.726    22927761.331   -58135681.933 9  71080965.477 8
  20479683.391    20479685.889   -43107207.017 8  38677937.678 7
  22573389.172    22573392.824     9154347.606 9   5704364.514 8
  20573428.258    20573432.247   -17118534.115 9 -14568970.071 8
 90  3  3  6 56 29.0800000  0  4G 3G12G11G13
  22922007.925    22922011.091   -58165898.231 8  71057420.319 9
  20477983.803    20477986.071   -43116138.891 9  38670977.778 7
  22579326.607    22579330.399     9185549.937 9   5728678.004 9
  20574454.939    20574457.518   -17113138.499 9 -14564765.681 9
 90  3  3  6 56 44.0800000  0  4G 3G12G11G13
  22916268.761    22916271.780   -58196056.232 9  71033920.590 9
  20476313.700    20476315.527   -43124915.563 9  38664138.825 8
  22585265.392    22585269.634     9216757.914 9   5752995.914 9
  20575494.617    20575497.534   -17107679.276 8 -14560511.732 7
 90  3  3  6 56 59.0800000  0  4G 3G12G11G13
  22910540.977    22910544.381   -58226155.859 9  71010466.352 9
  20474673.552    20474676.377   -43133536.928 9  38657420.873 8
  22591204.725    22591208.892     9247971.453 9   5777318.140 9
  20576545.464    20576547.846   -17102156.753 9 -14556208.463 9
 90  3  3  6 57 14.0800000  0  4G 3G12G11G13
  22904823.074    22904828.710   -58256197.251 9  70987057.481 8
  20473062.021    20473064.420   -43142002.736 9  38650824.134 8
  22597145.053    22597148.344     9279190.456 9   5801644.636 9
  20577608.405    20577611.174   -17096571.219 9 -14551856.101 7
 90  3  3  6 57 29.0800000  0  4G 3G12G11G13
  22899118.398    22899121.605   -58286180.534 9  70963693.900 9
  20471480.738    20471482.598   -43150312.850 9  38644348.726 9
  22603087.632    22603091.115     9310414.674 9   5825975.183 9
  20578683.458    20578686.389   -17090922.695 9 -14547454.643 8
 90  3  3  6 57 44.0800000  0  4G 3G12G11G13
  22893423.804    22893427.302   -58316105.628 9  70940375.653 9
  20469929.193    20469930.504   -43158467.021 8  38637994.820 7
  22609030.984    22609032.754     9341644.010 9   5850309.735 9
  20579770.889    20579773.218   -17085211.243 8 -14543004.162 8
 90  3  3  6 57 59.0800000  0  4G 3G12G11G13
  22887740.750    22887744.128   -58345972.549 9  70917102.735 9
  20468407.436    20468409.177   -43166465.237 9  38631762.450 9
  22614973.695    22614977.663     9372878.424 9   5874648.237 9
  20580868.633    20580871.568   -17079437.328 9 -14538505.004 8
 90  3  3  6 58 14.0800000  0  4G 3G12G11G13
  22882068.167    22882071.651   -58375781.609 9  70893874.917 9
  20466914.513    20466917.098   -43174307.349 9  38625651.712 8
  22620918.946    22620922.347     9404117.756 9   5898990.574 9
  20581979.017    20581981.728   -17073601.202 9 -14533957.373 7
 90  3  3  6 58 29.0800000  0  4G 3G12G11G13
  22876406.003    22876410.391   -58405532.466 8  70870692.438 8
  20465452.328    20465453.870   -43181993.238 9  38619662.722 8
  22626864.829    22626867.682     9435361.794 9   5923336.578 9
  20583101.735    20583103.889   -17067703.043 9 -14529361.392 8
 90  3  3  6 58 44.0800000  0  4G 3G12G11G13
  22870754.880    22870760.017   -58435225.398 9  70847555.090 9
  20464018.819    20464022.203   -43189522.872 9  38613795.468 8
  22632810.525    22632814.623     9466610.292 9   5947686.047 9
  20584235.557    20584237.184   -17061742.939 9 -14524717.154 8
 90  3  3  6 58 59.0800000  0  4G 3G12G11G13
  22865116.649    22865120.806   -58464860.557 9  70824462.772 9
  20462616.757    20462618.102   -43196896.190 9  38608050.032 8
  22638758.132    22638762.308     9497863.156 9   5972038.926 9
  20585381.628    20585384.214   -17055721.129 9 -14520024.826 7
 90  3  3  6 59 14.0800000  0  4G 3G12G11G13
  22859488.718    22859492.913   -58494437.788 7  70801415.591 9
  20461243.003    20461244.904   -43204113.078 9  38602426.476 8
  22644706.167    22644708.620     9529120.380 9   5996395.200 8
  20586539.166    20586541.193   -17049637.787 9 -14515284.547 8
 90  3  3  6 59 29.0800000  0  4G 3G12G11G13
  22853871.583    22853873.937   -58523957.209 9  70778413.454 9
  20459899.882    20459901.205   -43211173.333 9  38596924.982 8
  22650654.870    22650659.281     9560381.836 9   6020754.762 9
  20587708.448    20587710.963   -17043493.169 8 -14510496.536 8
 90  3  3  6 59 44.0800000  0  4G 3G12G11G13
  22848264.854    22848268.689   -58553418.919 9  70755456.291 8
  20458585.955    20458587.224   -43218076.889 9  38591545.596 8
  22656604.297    22656608.741     9591647.289 9   6045117.449 9
  20588888.340    20588891.409   -17037287.634 9 -14505661.051 8
 90  3  3  6 59 59.0800000  0  4G 3G12G11G13
  22842669.995    22842672.536   -58582822.966 9  70732544.061 9
  20457302.018    20457304.603   -43224823.514 9  38586288.480 8
  22662555.110    22662559.169     9622916.776 9   6069483.273 9
  20590081.679    20590084.762   -17031021.058 9 -14500777.999 8
 90  3  3  7  0 14.0800000  0  4G 3G12G11G13
  22837085.032    22837089.282   -58612169.227 9  70709676.861 9
  20456048.089    20456049.772   -43231413.250 8  38581153.621 9
  22668505.941    22668510.203     9654189.975 9   6093851.979 9
  20591285.483    20591290.169   -17024693.909 8 -14495847.738 8
 90  3  3  7  0 29.0800000  0  4G 3G12G11G13
  22831511.102    22831514.482   -58641457.848 9  70686854.575 9
  20454823.091    20454827.194   -43237845.965 9  38576141.131 9
  22674457.688    22674461.694     9685466.676 9   6118223.442 9
  20592501.328    20592504.441   -17018306.218 9 -14490870.310 8
 90  3  3  7  0 44.0800000  0  4G 3G12G11G13
  22825948.443    22825952.361   -58670689.010 8  70664077.076 8
  20453629.647    20453632.089   -43244121.522 9  38571251.075 8
  22680409.875    22680413.901     9716746.679 9   6142597.451 9
  20593728.243    20593731.849   -17011858.087 9 -14485845.781 7
 90  3  3  7  0 59.0800000  0  4G 3G12G11G13
  22820397.330    22820401.658   -58699862.721 9  70641344.354 8
  20452465.419    20452466.948   -43250239.876 9  38566483.529 8
  22686362.926    22686367.380     9748029.966 9   6166974.025 8
  20594967.273    20594968.198   -17005349.900 9 -14480774.465 8
 90  3  3  7  1 14.0800000  0  4G 3G12G11G13
  22814856.582    22814860.035   -58728978.877 9  70618656.458 9
  20451331.287    20451332.115   -43256200.902 9  38561838.582 9
  22692315.877    22692319.983     9779316.479 9   6191353.127 9
  20596216.544    20596219.662   -16998782.181 8 -14475656.764 7
 90  3  3  7  1 29.0800000  0  4G 3G12G11G13
  22809327.185    22809331.126   -58758037.570 9  70596013.344 8
  20450226.574    20450228.182   -43262004.574 9  38557316.228 8
  22698271.324    22698275.003     9810606.140 9   6215734.671 9
  20597477.022    20597481.215   -16992154.855 9 -14470492.600 8
 90  3  3  7  1 44.0800000  0  4G 3G12G11G13
  22803808.202    22803811.456   -58787039.086 9  70573414.798 8
  20449151.764    20449154.396   -43267650.729 9  38552916.628 8
  22704225.777    22704228.526     9841898.742 9   6240118.505 9
  20598749.385    20598752.848   -16985467.961 9 -14465282.027 7
 90  3  3  7  1 59.0800000  0  4G 3G12G11G13
  22798300.579    22798303.340   -58815983.373 9  70550860.831 9
  20448108.010    20448109.964   -43273139.281 9  38548639.832 9
  22710181.196    22710185.026     9873194.162 9   6264504.544 9
  20600033.391    20600036.240   -16978721.748 9 -14460025.240 8
 90  3  3  7  2 14.0800000  0  4G 3G12G11G13
  22792803.494    22792807.214   -58844870.517 9  70528351.411 9
  20447094.173    20447095.181   -43278470.086 9  38544485.964 8
  22716135.727    22716140.475     9904492.162 9   6288892.589 9
  20601327.772    20601332.225   -16971916.497 8 -14454722.445 8
 90  3  3  7  2 29.0800000  0  4G 3G12G11G13
  22787317.050    22787319.990   -58873700.405 9  70505886.598 9
  20446108.752    20446112.198   -43283643.000 9  38540455.112 8
  22722093.085    22722096.664     9935792.797 9   6313282.690 9
  20602635.495    20602638.809   -16965052.467 9 -14449373.853 8
 90  3  3  7  2 44.0800000  0  4G 3G12G11G13
  22781841.472    22781844.181   -58902473.274 9  70483466.211 9
  20445154.558    20445157.229   -43288657.938 9  38536547.370 8
  22728049.897    22728052.706     9967095.932 9   6337674.745 9
  20603952.990    20603955.649   -16958129.801 9 -14443979.553 8
 90  3  3  7  2 59.0800000  0  4G 3G12G11G13
  22776377.521    22776380.084   -58931189.025 9  70461090.323 9
  20444230.169    20444234.083   -43293514.925 8  38532762.704 7
  22734007.522    22734010.931     9998401.436 9   6362068.638 9
  20605281.118    20605283.119   -16951148.899 9 -14438539.902 8
 90  3  3  7  3 14.0800000  0  4G 3G12G11G13
  22770923.101    22770927.707   -58959847.802 9  70438758.840 9
  20443335.626    20443338.100   -43298213.957 9  38529101.124 7
  22739964.996    22739968.530    10029709.052 9   6386464.172 9
  20606619.539    20606623.747   -16944109.789 9 -14433054.854 8
 90  3  3  7  3 29.0800000  0  4G 3G12G11G13
  22765481.672    22765484.491   -58988449.473 9  70416471.857 9
  20442472.225    20442475.169   -43302754.838 9  38525562.774 8
  22745922.293    22745926.060    10061018.777 9   6410861.342 9
  20607971.474    20607973.974   -16937012.483 9 -14427524.497 8
 90  3  3  7  3 44.0800000  0  4G 3G12G11G13
  22760048.976    22760052.147   -59016994.273 9  70394229.186 8
  20441638.098    20441639.425   -43307137.549 9  38522147.663 7
  22751881.322    22751884.600    10092330.465 9   6435260.060 9
  20609332.202    20609335.403   -16929857.139 9 -14421948.902 8
 90  3  3  7  3 59.0800000  0  4G 3G12G11G13
  22754628.083    22754631.968   -59045482.345 9  70372030.723 9
  20440834.852    20440837.189   -43311362.054 9  38518855.841 8
  22757840.021    22757843.123    10123643.913 9   6459660.139 8
  20610705.252    20610708.060   -16922644.184 9 -14416328.407 8
 90  3  3  7  4 14.0800000  0  4G 3G12G11G13
  22749217.091    22749221.010   -59073913.591 9  70349876.537 9
  20440061.221    20440062.862   -43315428.299 9  38515687.332 9
  22763799.724    22763801.643    10154958.981 9   6484061.482 9
  20612087.883    20612091.864   -16915373.799 9 -14410663.174 7
 90  3  3  7  4 29.0800000  0  4G 3G12G11G13
  22743817.478    22743820.694   -59102288.107 9  70327766.557 9
  20439316.412    20439319.468   -43319336.077 9  38512642.292 9
  22769758.120    22769761.752    10186275.616 9   6508464.063 9
  20613481.731    20613484.817   -16908046.424 9 -14404953.527 8
 90  3  3  7  4 44.0800000  0  4G 3G12G11G13
  22738429.361    22738432.747   -59130606.111 9  70305700.614 9
  20438603.826    20438605.782   -43323085.356 9  38509720.774 8
  22775717.817    22775720.452    10217593.652 9   6532867.722 9
  20614888.353    20614891.358   -16900662.240 9 -14399199.620 7
 90  3  3  7  4 59.0800000  0  4G 3G12G11G13
  22733051.678    22733055.024   -59158867.512 9  70283678.769 9
  20437921.319    20437923.574   -43326676.035 9  38506922.834 9
  22781678.258    22781681.281    10248912.957 9   6557272.372 9
  20616304.763    20616306.914   -16893221.254 9 -14393401.461 7
 90  3  3  7  5 14.0800000  0  4G 3G12G11G13
  22727683.686    22727687.789   -59187072.361 9  70261701.000 9
  20437267.075    20437269.159   -43330108.130 9  38504248.475 8
  22787638.617    22787641.832    10280233.360 9   6581677.871 9
  20617730.883    20617734.012   -16885723.620 9 -14387559.141 8
 90  3  3  7  5 29.0800000  0  4G 3G12G11G13
  22722328.133    22722331.324   -59215220.725 9  70239767.238 9
  20436644.250    20436647.110   -43333381.520 9  38501697.778 9
  22793598.512    22793601.603    10311554.877 9   6606084.235 9
  20619167.733    20619169.798   -16878169.650 8 -14381672.902 8
 90  3  3  7  5 44.0800000  0  4G 3G12G11G13
  22716982.013    22716985.603   -59243312.694 9  70217877.412 8
  20436052.048    20436053.960   -43336496.086 9  38499270.823 8
  22799558.908    22799561.675    10342877.359 9   6630491.355 9
  20620616.573    20620619.341   -16870559.329 9 -14375742.797 7
 90  3  3  7  5 59.0800000  0  4G 3G12G11G13
  22711647.458    22711650.207   -59271348.450 9  70196031.388 9
  20435490.137    20435490.837   -43339451.660 9  38496967.786 8
  22805520.083    22805523.445    10374200.648 9   6654899.109 9
  20622075.138    20622079.044   -16862892.951 9 -14369768.995 8
 90  3  3  7  6 14.0800000  0  4G 3G12G11G13
  22706323.307    22706325.554   -59299327.812 9  70174229.297 9
  20434956.977    20434958.301   -43342248.367 9  38494788.521 8
  22811480.290    22811483.457    10405524.684 9   6679307.445 9
  20623544.807    20623547.993   -16855170.699 9 -14363751.653 8
 90  3  3  7  6 29.0800000  0  4G 3G12G11G13
  22701009.546    22701012.578   -59327250.917 9  70152471.056 9
  20434455.753    20434456.825   -43344886.183 9  38492733.084 9
  22817441.371    22817444.503    10436849.373 9   6703716.286 9
  20625025.992    20625027.151   -16847392.811 9 -14357690.948 8
 90  3  3  7  6 44.0800000  0  4G 3G12G11G13
  22695705.822    22695709.477   -59355117.768 9  70130756.648 9
  20433983.264    20433985.616   -43347364.978 9  38490801.549 8
  22823402.622    22823405.974    10468174.509 9   6728125.469 9
  20626514.065    20626518.420   -16839559.596 9 -14351587.153 8
 90  3  3  7  6 59.0800000  0  4G 3G12G11G13
  22690412.987    22690417.415   -59382928.712 9  70109085.799 9
  20433541.108    20433544.635   -43349684.771 9  38488993.901 8
  22829363.251    22829367.801    10499499.937 9   6752534.881 9
  20628016.582    20628019.776   -16831671.248 9 -14345440.389 8
 90  3  3  7  7 14.0800000  0  4G 3G12G11G13
  22685131.550    22685135.421   -59410683.680 8  70087458.564 9
  20433130.491    20433133.247   -43351845.377 9  38487310.310 8
  22835324.708    22835327.865    10530825.555 9   6776944.449 9
  20629528.710    20629531.668   -16823728.104 8 -14339250.922 7
 90  3  3  7  7 29.0800000  0  4G 3G12G11G13
  22679861.490    22679864.888   -59438382.545 9  70065875.058 9
  20432750.452    20432752.679   -43353846.786 9  38485750.764 9
  22841285.345    22841288.604    10562151.357 9   6801354.159 9
  20631051.132    20631053.634   -16815730.031 9 -14333018.651 8
 90  3  3  7  7 44.0800000  0  4G 3G12G11G13
  22674601.241    22674604.061   -59466025.551 9  70044335.070 9
  20432400.034    20432401.326   -43355689.027 9  38484315.238 8
  22847246.534    22847250.509    10593477.069 9   6825763.785 9
  20632581.824    20632585.833   -16807677.186 9 -14326743.704 8
 90  3  3  7  7 59.0800000  0  4G 3G12G11G13
  22669350.950    22669354.112   -59493612.596 9  70022838.688 8
  20432078.818    20432081.432   -43357372.016 9  38483003.831 8
  22853207.849    22853211.146    10624802.736 9   6850173.380 9
  20634124.530    20634128.319   -16799570.102 9 -14320426.498 8
 90  3  3  7  8 14.0800000  0  4G 3G12G11G13
  22664113.453    22664116.314   -59521143.896 9  70001385.761 9
  20431788.881    20431791.438   -43358895.563 9  38481816.634 9
  22859168.211    22859172.764    10656128.192 9   6874582.816 9
  20635677.532    20635680.450   -16791408.921 9 -14314067.127 8
 90  3  3  7  8 29.0800000  0  4G 3G12G11G13
  22658885.082    22658887.045   -59548619.616 9  69979976.129 8
  20431529.426    20431530.782   -43360259.626 9  38480753.728 8
  22865129.839    22865133.369    10687453.335 9   6898991.999 8
  20637241.599    20637243.310   -16783193.597 8 -14307665.579 8
 90  3  3  7  8 44.0800000  0  4G 3G12G11G13
  22653665.390    22653668.993   -59576039.619 9  69958609.919 9
  20431300.166    20431302.692   -43361464.262 9  38479815.042 8
  22871090.997    22871094.075    10718778.008 9   6923400.832 8
  20638815.988    20638818.044   -16774924.640 8 -14301222.237 8
 90  3  3  7  8 59.0800000  0  4G 3G12G11G13
  22648457.722    22648462.237   -59603404.088 9  69937286.985 9
  20431101.952    20431104.165   -43362509.497 9  38479000.572 8
  22877051.915    22877054.643    10750102.145 8   6947809.240 9
  20640399.183    20640401.091   -16766602.161 8 -14294737.167 8
 90  3  3  7  9 14.0800000  0  4G 3G12G11G13
  22643261.082    22643264.933   -59630713.010 8  69916007.327 9
  20430933.175    20430934.597   -43363395.329 9  38478310.303 8
  22883012.171    22883015.252    10781425.617 9   6972217.136 8
  20641993.119    20641996.275   -16758226.047 8 -14288210.329 7
 90  3  3  7  9 29.0800000  0  4G 3G12G11G13
  22638075.221    22638079.165   -59657966.519 9  69894770.860 9
  20430793.700    20430796.431   -43364121.690 9  38477744.310 8
  22888972.387    22888975.492    10812748.239 9   6996624.376 9
  20643596.655    20643598.418   -16749796.660 9 -14281641.973 8
 90  3  3  7  9 44.0800000  0  4G 3G12G11G13
  22632899.058    22632903.064   -59685164.806 9  69873577.413 9
  20430686.779    20430688.681   -43364688.412 9  38477302.690 8
  22894932.920    22894936.260    10844069.932 9   7021030.877 9
  20645211.123    20645213.623   -16741314.261 9 -14275032.308 8
 90  3  3  7  9 59.0800000  0  4G 3G12G11G13
  22627734.712    22627737.767   -59712307.651 8  69852427.173 9
  20430608.566    20430610.266   -43365095.441 9  38476985.529 8
  22900892.590    22900896.525    10875390.654 9   7045436.620 9
  20646834.405    20646838.447   -16732779.083 8 -14268381.528 7
 90  3  3  7 10 14.0800000  0  4G 3G12G11G13
  22622580.097    22622583.401   -59739395.202 9  69831320.014 9
  20430561.687    20430564.819   -43365342.721 9  38476792.827 8
  22906853.223    22906856.537    10906710.379 9   7069841.594 9
  20648469.700    20648472.211   -16724191.291 9 -14261689.756 8
 90  3  3  7 10 29.0800000  0  4G 3G12G11G13
  22617436.334    22617439.470   -59766427.783 9  69810255.705 9
  20430545.286    20430547.987   -43365430.551 9  38476724.398 8
  22912813.666    22912816.078    10938028.549 9   7094245.362 9
  20650114.465    20650117.242   -16715551.196 9 -14254957.204 9
 90  3  3  7 10 44.0800000  0  4G 3G12G11G13
  22612301.681    22612305.816   -59793405.203 9  69789234.366 9
  20430558.421    20430562.036   -43365358.711 9  38476780.363 8
  22918771.613    22918776.670    10969345.444 8   7118648.116 9
  20651767.855    20651770.319   -16706858.848 9 -14248183.943 8
 90  3  3  7 10 59.0800000  0  4G 3G12G11G13
  22607178.565    22607182.194   -59820327.356 9  69768256.092 9
  20430604.109    20430605.905   -43365127.017 9  38476960.916 8
  22924731.964    22924734.450    11000661.280 9   7143050.060 9
  20653430.512    20653434.410   -16698114.251 9 -14241369.964 8
 90  3  3  7 11 14.0800000  0  4G 3G12G11G13
  22602066.270    22602069.501   -59847194.668 8  69747320.554 8
  20430677.887    20430680.341   -43364735.733 9  38477265.801 8
  22930690.387    22930693.120    11031975.463 9   7167450.717 9
  20655105.406    20655107.669   -16689317.910 9 -14234515.688 8
 90  3  3  7 11 29.0800000  0  4G 3G12G11G13
  22596963.081    22596967.822   -59874006.923 9  69726427.925 9
  20430782.012    20430785.030   -43364184.543 9  38477695.294 8
  22936649.023    22936652.980    11063288.073 9   7191850.138 8
  20656789.039    20656791.633   -16680470.027 8 -14227621.236 8
 90  3  3  7 11 44.0800000  0  4G 3G12G11G13
  22591871.214    22591874.823   -59900764.467 9  69705577.923 9
  20430918.047    20430919.702   -43363473.642 9  38478249.243 8
  22942607.181    22942609.897    11094598.845 8   7216248.117 9
  20658482.294    20658485.348   -16671570.859 9 -14220686.808 8
 90  3  3  7 11 59.0800000  0  4G 3G12G11G13
  22586789.586    22586794.470   -59927467.314 9  69684770.541 8
  20431084.745    20431084.833   -43362602.893 9  38478927.745 8
  22948564.286    22948568.600    11125907.759 9   7240644.668 9
  20660185.647    20660188.876   -16662620.264 8 -14213712.300 8
 90  3  3  7 12 14.0800000  0  4G 3G12G11G13
  22581719.435    22581722.913   -59954115.650 9  69664005.637 9
  20431279.326    20431282.840   -43361572.395 9  38479730.721 8
  22954521.442    22954526.122    11157214.678 9   7265039.637 9
  20661898.753    20661901.292   -16653618.668 9 -14206698.069 8
 90  3  3  7 12 29.0800000  0  4G 3G12G11G13
  22576659.521    22576664.127   -59980709.228 9  69643283.388 9
  20431506.465    20431508.606   -43360382.122 9  38480658.213 9
  22960479.037    22960483.243    11188519.619 9   7289433.080 9
  20663621.061    20663623.637   -16644566.168 9 -14199644.170 9
 90  3  3  7 12 44.0800000  0  4G 3G12G11G13
  22571608.652    22571611.847   -60007248.174 9  69622603.727 9
  20431763.901    20431765.370   -43359031.834 9  38481710.386 8
  22966437.043    22966439.853    11219822.367 9   7313824.823 8
  20665353.354    20665357.133   -16635463.102 9 -14192550.883 9
 90  3  3  7 12 59.0800000  0  4G 3G12G11G13
  22566568.948    22566572.947   -60033732.609 9  69601966.532 9
  20432050.670    20432052.555   -43357521.712 9  38482887.097 9
  22972391.613    22972396.942    11251122.865 9   7338214.800 9
  20667094.532    20667098.878   -16626309.377 9 -14185418.100 8
 90  3  3  7 13 14.0800000  0  4G 3G12G11G13
  22561539.760    22561542.961   -60060162.676 9  69581371.711 9
  20432367.676    20432371.076   -43355851.725 9  38484188.385 8
  22978347.686    22978352.779    11282421.076 8   7362602.993 9
  20668846.927    20668851.009   -16617105.405 9 -14178246.176 8
 90  3  3  7 13 29.0800000  0  4G 3G12G11G13
  22556519.644    22556524.260   -60086538.298 9  69560819.308 9
  20432716.187    20432719.817   -43354021.855 9  38485614.238 9
  22984303.611    22984307.795    11313716.837 9   7386989.289 9
  20670608.023    20670609.769   -16607851.466 9 -14171035.313 8
 90  3  3  7 13 44.0800000  0  4G 3G12G11G13
  22551511.636    22551514.741   -60112859.802 9  69540309.078 8
  20433095.351    20433096.808   -43352032.164 9  38487164.655 9
  22990257.220    22990262.770    11345009.970 9   7411373.529 9
  20672378.837    20672381.185   -16598547.677 8 -14163785.588 8
 90  3  3  7 13 59.0800000  0  4G 3G12G11G13
  22546513.391    22546515.878   -60139127.070 9  69519841.112 9
  20433504.292    20433506.134   -43349882.474 9  38488839.738 9
  22996213.875    22996217.977    11376300.537 9   7435755.786 9
  20674158.967    20674160.980   -16589194.117 9 -14156497.097 8
 90  3  3  7 14 14.0800000  0  4G 3G12G11G13
  22541525.377    22541528.266   -60165340.368 8  69499415.196 9
  20433943.584    20433945.140   -43347572.907 9  38490639.391 8
  23002166.842    23002170.315    11407588.339 9   7460135.871 9
  20675946.554    20675950.647   -16579791.039 9 -14149170.016 8
 90  3  3  7 14 29.0800000  0  4G 3G12G11G13
  22536547.032    22536550.594   -60191499.571 9  69479031.428 9
  20434412.937    20434415.880   -43345103.488 9  38492563.615 9
  23008119.734    23008122.265    11438873.317 9   7484513.772 8
  20677746.058    20677750.161   -16570338.696 9 -14141804.558 8
 90  3  3  7 14 44.0800000  0  4G 3G12G11G13
  22531579.458    22531582.433   -60217604.897 9  69458689.652 8
  20434913.745    20434916.501   -43342474.124 9  38494612.484 9
  23014072.587    23014076.213    11470155.415 9   7508889.421 8
  20679554.829    20679558.023   -16560837.240 9 -14134400.834 8
 90  3  3  7 14 59.0800000  0  4G 3G12G11G13
  22526621.994    22526625.191   -60243656.347 9  69438389.837 9
  20435444.441    20435446.998   -43339684.964 8  38496785.840 8
  23020026.407    23020029.140    11501434.411 9   7533262.658 9
  20681372.952    20681375.092   -16551286.885 9 -14126958.996 8
 90  3  3  7 15 14.0800000  0  4G 3G12G11G13
  22521675.447    22521677.139   -60269653.875 9  69418132.054 9
  20436005.833    20436007.685   -43336735.980 9  38499083.751 8
  23025977.236    23025980.296    11532710.286 8   7557633.469 8
  20683198.986    20683201.259   -16541687.812 9 -14119479.191 7
 90  3  3  7 15 29.0800000  0  4G 3G12G11G13
  22516737.814    22516741.240   -60295597.708 9  69397916.090 9
  20436597.061    20436599.203   -43333627.058 9  38501506.287 8
  23031928.178    23031931.918    11563982.973 9   7582001.789 9
  20685034.973    20685036.494   -16532040.135 9 -14111961.516 8
 90  3  3  7 15 44.0800000  0  4G 3G12G11G13
  22511810.389    22511815.169   -60321487.838 9  69377741.987 8
  20437220.208    20437220.964   -43330358.252 9  38504053.384 9
  23037877.848    23037882.886    11595252.310 9   7606367.503 9
  20686880.821    20686882.023   -16522344.174 9 -14104406.222 8
 90  3  3  7 15 59.0800000  0  4G 3G12G11G13
  22506894.059    22506896.743   -60347324.434 9  69357609.613 9
  20437871.318    20437873.889   -43326929.611 9  38506725.054 8
  23043828.315    23043831.275    11626518.320 9   7630730.602 9
  20688733.498    20688737.331   -16512600.136 9 -14096813.449 8
 90  3  3  7 16 14.0800000  0  4G 3G12G11G13
  22501988.025    22501991.087   -60373107.499 9  69337518.926 9
  20438555.110    20438557.126   -43323341.209 9  38509521.224 8
  23049777.446    23049780.575    11657780.816 9   7655090.991 8
  20690596.644    20690599.291   -16502807.966 8 -14089183.189 7
 90  3  3  7 16 29.0800000  0  4G 3G12G11G13
  22497092.312    22497095.437   -60398837.075 9  69317469.936 9
  20439268.276    20439270.580   -43319592.965 9  38512441.924 8
  23055725.000    23055729.613    11689039.717 8   7679448.550 9
  20692469.024    20692472.306   -16492967.941 9 -14081515.635 8
 90  3  3  7 16 44.0800000  0  4G 3G12G11G13
  22492206.216    22492208.821   -60424513.438 9  69297462.418 9
  20440011.812    20440014.800   -43315684.850 9  38515487.206 8
  23061672.820    23061675.606    11720295.023 9   7703803.327 9
  20694351.405    20694354.227   -16483080.393 9 -14073811.055 8
 90  3  3  7 16 59.0800000  0  4G 3G12G11G13
  22487330.179    22487333.229   -60450136.568 9  69277496.371 9
  20440785.308    20440788.408   -43311617.073 9  38518656.900 8
  23067619.304    23067623.336    11751546.507 9   7728155.121 9
  20696241.257    20696245.423   -16473145.403 9 -14066069.498 8
 90  3  3  7 17 14.0800000  0  4G 3G12G11G13
  22482464.532    22482467.373   -60475706.379 9  69257571.859 9
  20441591.371    20441592.670   -43307389.625 9  38521951.009 9
  23073566.778    23073570.183    11782794.150 9   7752503.931 9
  20698141.661    20698143.691   -16463163.195 9 -14058291.139 7
 90  3  3  7 17 29.0800000  0  4G 3G12G11G13
  22477608.450    22477610.758   -60501222.775 9  69237688.972 8
  20442425.838    20442428.500   -43303002.393 9  38525369.642 9
  23079511.739    23079515.628    11814037.936 9   7776849.718 9
  20700049.264    20700053.186   -16453133.991 9 -14050476.188 8
 90  3  3  7 17 44.0800000  0  4G 3G12G11G13
  22472763.069    22472765.996   -60526686.348 9  69217847.246 9
  20443290.028    20443293.201   -43298455.469 8  38528912.683 9
  23085456.360    23085459.658    11845277.697 9   7801192.384 8
  20701967.376    20701971.430   -16443058.049 9 -14042624.800 7
 90  3  3  7 17 59.0800000  0  4G 3G12G11G13
  22467927.766    22467930.819   -60552096.894 9  69198046.852 9
  20444186.067    20444188.839   -43293748.808 9  38532580.209 8
  23091400.216    23091404.028    11876513.302 9   7825531.808 9
  20703893.428    20703896.669   -16432935.402 9 -14034737.020 9
 90  3  3  7 18 14.0800000  0  4G 3G12G11G13
  22463101.582    22463105.059   -60577454.562 9  69178287.643 9
  20445113.103    20445114.900   -43288882.385 9  38536372.237 9
  23097343.627    23097348.046    11907744.691 9   7849867.933 8
  20705828.985    20705831.786   -16422766.182 9 -14026812.941 8
 90  3  3  7 18 29.0800000  0  4G 3G12G11G13
  22458287.111    22458289.816   -60602759.391 9  69158569.623 9
  20446068.610    20446071.383   -43283856.368 9  38540288.603 8
  23103287.234    23103289.636    11938971.804 9   7874200.744 8
  20707772.933    20707775.771   -16412550.690 8 -14018852.815 7
 90  3  3  7 18 44.0800000  0  4G 3G12G11G13
  22453482.183    22453483.793   -60628011.579 9  69138892.608 8
  20447055.286    20447059.001   -43278670.718 9  38544329.359 9
  23109228.725    23109230.428    11970194.513 9   7898530.116 9
  20709725.556    20709728.878   -16402289.180 9 -14010856.830 9
 90  3  3  7 18 59.0800000  0  4G 3G12G11G13
  22448685.498    22448689.199   -60653210.961 9  69119256.747 9
  20448071.983    20448075.097   -43273325.633 8  38548494.356 9
  23115168.224    23115172.434    12001412.773 9   7922856.024 9
  20711687.738    20711688.854   -16391981.927 9 -14002825.193 8
 90  3  3  7 19 14.0800000  0  4G 3G12G11G13
  22443900.346    22443903.833   -60678357.819 9  69099661.807 9
  20449120.158    20449122.815   -43267820.967 9  38552783.701 8
  23121107.749    23121112.000    12032626.583 9   7947178.466 9
  20713656.676    20713659.997   -16381628.689 9 -13994757.731 8
 90  3  3  7 19 29.0800000  0  4G 3G12G11G13
  22439125.868    22439128.515   -60703452.097 9  69080107.840 9
  20450197.181    20450200.954   -43262156.767 9  38557197.368 9
  23127046.953    23127051.178    12063835.727 9   7971497.284 9
  20715635.077    20715637.825   -16371229.868 9 -13986654.751 8
 90  3  3  7 19 44.0800000  0  4G 3G12G11G13
  22434360.515    22434362.152   -60728493.935 9  69060594.721 9
  20451305.897    20451310.085   -43256333.182 9  38561735.221 9
  23132985.752    23132986.941    12095040.225 9   7995812.484 8
  20717622.970    20717626.431   -16360785.662 9 -13978516.409 8
 90  3  3  7 19 59.0800000  0  4G 3G12G11G13
  22429603.938    22429607.678   -60753483.382 9  69041122.448 9
  20452444.734    20452446.721   -43250350.138 9  38566397.328 9
  23138922.333    23138925.281    12126240.020 9   8020124.010 9
  20719619.291    20719621.804   -16350296.276 9 -13970342.858 8
 90  3  3  7 20 14.0800000  0  4G 3G12G11G13
  22424859.273    22424862.165   -60778420.609 8  69021690.858 9
  20453613.110    20453614.979   -43244207.704 9  38571183.635 8
  23144858.960    23144861.633    12157434.854 9   8044431.671 9
  20721625.312    20721626.658   -16339762.046 9 -13962134.362 8
 90  3  3  7 20 29.0800000  0  4G 3G12G11G13
  22420124.584    22420126.330   -60803305.733 9  69002299.883 9
  20454813.333    20454815.089   -43237905.866 9  38576094.155 9
  23150793.781    23150797.589    12188624.719 9   8068735.463 9
  20723638.275    20723640.769   -16329182.804 9 -13953890.800 8
 90  3  3  7 20 44.0800000  0  4G 3G12G11G13
  22415398.922    22415400.581   -60828138.672 9  68982949.547 9
  20456042.433    20456045.047   -43231444.707 9  38581128.820 9
  23156727.220    23156731.721    12219809.624 9   8093035.376 9
  20725657.881    20725661.067   -16318558.956 9 -13945612.475 8
 90  3  3  7 20 59.0800000  0  4G 3G12G11G13
  22410683.076    22410685.745   -60852919.605 9  68963639.757 9
  20457301.487    20457305.546   -43224824.197 8  38586287.649 8
  23162661.567    23162664.929    12250989.480 9   8117331.352 9
  20727688.364    20727690.900   -16307890.560 9 -13937299.427 8
 90  3  3  7 21 14.0800000  0  4G 3G12G11G13
  22405976.725    22405979.802   -60877648.691 9  68944370.363 9
  20458591.756    20458594.541   -43218044.538 9  38591570.493 9
  23168593.758    23168596.597    12282164.186 9   8141623.341 9
  20729728.044    20729730.160   -16297177.743 9 -13928951.780 8
 90  3  3  7 21 29.0800000  0  4G 3G12G11G13
  22401280.627    22401283.976   -60902325.896 9  68925141.389 9
  20459912.078    20459915.824   -43211105.816 8  38596977.282 9
  23174524.268    23174527.507    12313333.631 9   8165911.209 9
  20731774.952    20731776.958   -16286421.066 9 -13920569.935 8
 90  3  3  7 21 44.0800000  0  4G 3G12G11G13
  22396594.853    22396598.044   -60926951.353 9  68905952.737 9
  20461261.908    20461266.642   -43204008.082 9  38602507.987 9
  23180455.420    23180458.851    12344497.702 9   8190194.875 9
  20733830.095    20733832.216   -16275620.630 9 -13912154.010 8
 90  3  3  7 21 59.0800000  0  4G 3G12G11G13
  22391918.595    22391921.700   -60951525.032 8  68886804.426 9
  20462644.230    20462648.047   -43196751.229 9  38608162.665 9
  23186384.889    23186388.311    12375656.427 9   8214474.399 9
  20735892.943    20735896.701   -16264776.534 9 -13903704.070 8
 90  3  3  7 22 14.0800000  0  4G 3G12G11G13
  22387251.903    22387254.772   -60976047.141 9  68867696.318 9
  20464055.803    20464058.844   -43189335.498 9  38613941.153 9
  23192312.037    23192316.818    12406809.751 9   8238749.693 9
  20737965.140    20737968.249   -16253888.926 9 -13895220.211 9
 90  3  3  7 22 29.0800000  0  4G 3G12G11G13
  22382595.809    22382598.622   -61000517.688 9  68848628.357 8
  20465495.993    20465499.838   -43181760.789 9  38619843.512 9
  23198240.010    23198243.767    12437957.528 9   8263020.674 9
  20740044.892    20740047.902   -16242958.012 9 -13886702.623 8
 90  3  3  7 22 44.0800000  0  4G 3G12G11G13
  22377948.967    22377950.913   -61024936.799 9  68829600.513 9
  20466968.750    20466971.252   -43174027.141 9  38625869.727 8
  23204166.119    23204170.504    12469099.645 9   8287287.248 9
  20742133.385    20742135.951   -16231983.921 9 -13878151.375 8
 90  3  3  7 22 59.0800000  0  4G 3G12G11G13
  22373312.199    22373314.717   -61049304.512 9  68810612.698 9
  20468469.828    20468472.371   -43166134.683 9  38632019.695 9
  23210090.871    23210095.118    12500236.064 9   8311549.379 9
  20744229.621    20744232.372   -16220966.838 9 -13869566.645 8
 90  3  3  7 23 14.0800000  0  4G 3G12G11G13
  22368684.306    22368686.755   -61073620.948 9  68791664.840 9
  20470002.066    20470005.655   -43158083.492 9  38638293.336 9
  23216015.833    23216019.017    12531366.658 9   8335806.981 9
  20746334.341    20746337.198   -16209907.014 9 -13860948.593 8
 90  3  3  7 23 29.0800000  0  4G 3G12G11G13
  22364067.243    22364069.655   -61097886.161 9  68772756.911 9
  20471565.118    20471567.099   -43149873.683 9  38644690.573 9
  23221937.719    23221941.764    12562491.400 9   8360060.014 9
  20748447.214    20748450.168   -16198804.419 9 -13852297.214 8
 90  3  3  7 23 44.0800000  0  4G 3G12G11G13
  22359459.074    22359462.561   -61122100.193 9  68753888.849 9
  20473156.754    20473160.428   -43141505.279 9  38651211.412 8
  23227858.938    23227863.206    12593610.324 9   8384308.499 9
  20750567.837    20750570.699   -16187659.317 9 -13843612.721 9
 90  3  3  7 23 59.0800000  0  4G 3G12G11G13
  22354861.017    22354863.438   -61146263.218 9  68735060.540 9
  20474779.329    20474783.460   -43132978.367 9  38657855.751 8
  23233780.989    23233784.215    12624723.307 9   8408552.375 9
  20752696.704    20752700.267   -16176471.919 9 -13834895.260 9
 90  3  3  7 24 14.0800000  0  4G 3G12G11G13
  22350273.832    22350275.883   -61170375.233 9  68716271.974 9
  20476431.681    20476435.940   -43124292.914 9  38664623.627 8
  23239699.310    23239704.569    12655830.310 9   8432791.590 8
  20754833.572    20754836.475   -16165242.356 9 -13826144.962 8
 90  3  3  7 24 29.0800000  0  4G 3G12G11G13
  22345694.813    22345696.996   -61194436.418 9  68697523.019 9
  20478114.628    20478119.044   -43115449.181 8  38671514.839 9
  23245617.983    23245621.032    12686931.039 9   8457025.915 9
  20756979.034    20756981.281   -16153971.053 9 -13817362.110 8
 90  3  3  7 24 44.0800000  0  4G 3G12G11G13
  22341124.878    22341128.298   -61218446.880 8  68678813.594 9
  20479828.384    20479831.480   -43106447.121 8  38678529.424 9
  23251534.650    23251537.531    12718025.652 9   8481255.479 9
  20759132.301    20759133.577   -16142658.008 9 -13808546.746 8
 90  3  3  7 24 59.0800000  0  4G 3G12G11G13
  22336565.648    22336568.532   -61242406.736 9  68660143.606 9
  20481571.912    20481574.995   -43097286.855 9  38685667.279 9
  23257451.196    23257454.722    12749113.997 9   8505480.151 9
  20761292.760    20761294.054   -16131303.458 9 -13799699.036 9
 90  3  3  7 25 14.0800000  0  4G 3G12G11G13
  22332016.969    22332018.665   -61266315.762 9  68641513.223 9
  20483344.219    20483348.163   -43087968.488 8  38692928.341 8
  23263365.441    23263370.424    12780196.024 8   8529699.893 9
  20763460.889    20763463.351   -16119907.664 9 -13790819.204 9
 90  3  3  7 25 29.0800000  0  4G 3G12G11G13
  22327475.896    22327478.185   -61290174.287 9  68622922.200 9
  20485148.337    20485150.720   -43078491.987 9  38700312.621 9
  23269279.366    23269283.325    12811271.640 9   8553914.645 9
  20765636.916    20765639.480   -16108470.636 9 -13781907.234 8
 90  3  3  7 25 44.0800000  0  4G 3G12G11G13
  22322944.596    22322947.566   -61313982.366 9  68604370.474 9
  20486981.699    20486983.583   -43068857.527 9  38707819.984 8
  23275191.992    23275195.397    12842340.678 9   8578124.288 9
  20767821.392    20767824.546   -16096992.673 9 -13772963.366 8
 90  3  3  7 25 59.0800000  0  4G 3G12G11G13
  22318423.741    22318427.063   -61337740.234 8  68585857.876 9
  20488844.240    20488847.527   -43059065.182 8  38715450.371 9
  23281102.287    23281105.985    12873403.186 9   8602328.831 8
  20770012.991    20770016.233   -16085473.861 9 -13763987.676 8
 90  3  3  7 26 14.0800000  0  4G 3G12G11G13
  22313912.825    22313915.646   -61361447.842 9  68567384.458 9
  20490737.832    20490741.345   -43049115.004 9  38723203.741 9
  23287012.521    23287016.160    12904459.142 8   8626528.266 9
  20772212.416    20772215.587   -16073914.272 9 -13754980.193 8
 90  3  3  7 26 29.0800000  0  4G 3G12G11G13
  22309410.403    22309413.930   -61385105.188 9  68548950.190 9
  20492662.015    20492665.531   -43039007.127 8  38731080.003 9
  23292921.065    23292925.272    12935508.457 9   8650722.530 9
  20774420.334    20774422.424   -16062313.999 9 -13745941.018 8
 90  3  3  7 26 44.0800000  0  4G 3G12G11G13
  22304918.377    22304921.401   -61408712.467 9  68530554.941 9
  20494616.251    20494618.616   -43028741.613 8  38739079.099 8
  23298827.658    23298831.534    12966551.183 9   8674911.650 9
  20776636.102    20776637.739   -16050673.413 9 -13736870.427 9
 90  3  3  7 26 59.0800000  0  4G 3G12G11G13
  22300435.942    22300438.066   -61432269.669 9  68512198.717 9
  20496598.303    20496602.272   -43018318.580 8  38747200.937 9
  23304734.738    23304737.939    12997587.236 9   8699095.558 9
  20778858.227    20778860.203   -16038992.726 9 -13727768.610 9
 90  3  3  7 27 14.0800000  0  4G 3G12G11G13
  22295962.822    22295965.369   -61455777.026 9  68493881.313 9
  20498610.698    20498615.659   -43007738.154 8  38755445.409 8
  23310638.629    23310643.072    13028616.380 8   8723274.103 9
  20781088.967    20781091.887   -16027272.196 9 -13718635.711 8
 90  3  3  7 27 29.0800000  0  4G 3G12G11G13
  22291498.409    22291501.440   -61479234.528 9  68475602.766 9
  20500655.008    20500658.696   -42997000.454 9  38763812.443 9
  23316540.449    23316546.543    13059638.636 9   8747447.266 9
  20783327.427    20783329.770   -16015511.862 9 -13709471.810 9
 90  3  3  7 27 44.0800000  0  4G 3G12G11G13
  22287044.446    22287046.860   -61502642.244 9  68457363.019 9
  20502727.551    20502731.669   -42986105.550 8  38772301.973 9
  23322444.426    23322448.050    13090653.866 8   8771614.945 9
  20785572.444    20785575.255   -16003711.832 9 -13700276.985 8
 90  3  3  7 27 59.0800000  0  4G 3G12G11G13
  22282599.683    22282601.812   -61526000.438 9  68439161.855 9
  20504830.488    20504835.232   -42975053.548 8  38780913.913 9
  23328345.707    23328348.907    13121662.091 8   8795777.191 9
  20787825.563    20787829.166   -15991872.339 9 -13691051.410 8
 90  3  3  7 28 14.0800000  0  4G 3G12G11G13
  22278164.269    22278166.600   -61549309.059 9  68420999.319 9
  20506964.012    20506967.245   -42963844.438 8  38789648.282 9
  23334244.481    23334248.726    13152663.328 9   8819933.963 9
  20790086.193    20790089.050   -15979993.403 9 -13681795.098 9
 90  3  3  7 28 29.0800000  0  4G 3G12G11G13
  22273737.783    22273740.801   -61572568.143 9  68402875.387 9
  20509126.974    20509130.937   -42952478.376 8  38798504.947 8
  23340140.103    23340146.239    13183657.399 8   8844085.159 9
  20792353.554    20792355.936   -15968075.430 9 -13672508.360 8
 90  3  3  7 28 44.0800000  0  4G 3G12G11G13
  22269319.974    22269323.428   -61595777.800 9  68384789.969 8
  20511320.256    20511323.847   -42940955.486 8  38807483.819 8
  23346038.834    23346042.800    13214644.162 8   8868230.671 9
  20794628.709    20794631.711   -15956118.518 9 -13663191.281 7
 90  3  3  7 28 59.0800000  0  4G 3G12G11G13
  22264913.656    22264916.280   -61618938.143 9  68366742.960 9
  20513542.434    20513545.920   -42929275.929 8  38816584.762 9
  23351934.056    23351938.134    13245623.645 9   8892370.519 9
  20796911.677    20796914.168   -15944122.939 8 -13653844.075 8
 90  3  3  7 29 14.0800000  0  4G 3G12G11G13
  22260515.094    22260518.686   -61642049.249 9  68348734.335 8
  20515794.396    20515798.556   -42917439.666 8  38825807.807 8
  23357828.090    23357831.415    13276595.763 8   8916504.620 9
  20799201.469    20799204.601   -15932088.798 9 -13644466.827 9
 90  3  3  7 29 29.0800000  0  4G 3G12G11G13
  22256128.028    22256129.435   -61665111.185 8  68330764.019 9
  20518076.354    20518080.614   -42905446.917 9  38835152.813 9
  23363720.940    23363722.845    13307560.592 9   8940633.053 9
  20801499.118    20801501.416   -15920016.064 9 -13635059.488 9
 90  3  3  7 29 44.0800000  0  4G 3G12G11G13
  22251749.004    22251751.129   -61688124.160 9  68312831.862 9
  20520388.302    20520393.320   -42893297.752 9  38844619.683 8
  23369611.454    23369614.998    13338517.992 8   8964755.693 8
  20803803.203    20803805.962   -15907905.002 9 -13625622.307 8
 90  3  3  7 29 59.0800000  0  4G 3G12G11G13
  22247377.631    22247380.808   -61711088.210 9  68294937.815 9
  20522730.003    20522733.732   -42880992.383 8  38854208.280 9
  23375501.048    23375502.933    13369467.973 9   8988872.575 9
  20806115.658    20806118.220   -15895755.787 9 -13616155.391 8
 90  3  3  7 30 14.0800000  0  4G 3G12G11G13
  22243017.731    22243020.053   -61734003.295 9  68277081.922 9
  20525102.135    20525105.992   -42868530.979 8  38863918.463 8
  23381388.989    23381392.457    13400410.342 9   9012983.504 8
  20808434.250    20808437.099   -15883568.956 9 -13606659.155 8
 90  3  3  7 30 29.0800000  0  4G 3G12G11G13
  22238665.207    22238668.662   -61756869.699 9  68259263.978 9
  20527503.061    20527506.389   -42855913.533 9  38873750.232 9
  23387275.997    23387279.296    13431345.168 9   9037088.548 9
  20810760.866    20810762.994   -15871344.453 9 -13597133.559 8
 90  3  3  7 30 44.0800000  0  4G 3G12G11G13
  22234324.348    22234326.465   -61779687.244 9  68241484.089 9
  20529934.003    20529937.233   -42843140.053 9  38883703.582 8
  23393161.012    23393164.143    13462272.351 9   9061187.639 8
  20813094.877    20813096.551   -15859082.305 9 -13587578.636 8
 90  3  3  7 30 59.0800000  0  4G 3G12G11G13
  22229990.248    22229994.214   -61802456.251 9  68223742.011 9
  20532393.667    20532397.525   -42830210.825 8  38893778.302 9
  23399045.115    23399048.087    13493191.857 9   9085280.764 8
  20815435.873    20815436.991   -15846782.516 9 -13577994.387 7
 90  3  3  7 31 14.0800000  0  4G 3G12G11G13
  22225668.086    22225669.491   -61825176.797 9  68206037.712 9
  20534884.022    20534887.893   -42817126.038 8  38903974.228 8
  23404927.491    23404929.827    13524103.622 9   9109367.855 9
  20817783.296    20817783.945   -15834445.590 9 -13568381.192 8
 90  3  3  7 31 29.0800000  0  4G 3G12G11G13
  22221353.766    22221356.169   -61847848.828 8  68188371.225 9
  20537403.085    20537408.198   -42803885.786 9  38914291.306 8
  23410807.616    23410811.772    13555007.545 9   9133448.829 9
  20820136.640    20820139.729   -15822071.396 9 -13558738.967 7
 90  3  3  7 31 44.0800000  0  4G 3G12G11G13
  22217049.323    22217051.225   -61870472.539 9  68170742.375 9
  20539952.092    20539955.263   -42790490.060 8  38924729.526 8
  23416687.394    23416691.533    13585903.601 9   9157523.659 9
  20822499.139    20822502.636   -15809660.214 9 -13549067.908 8
 90  3  3  7 31 59.0800000  0  4G 3G12G11G13
  22212752.453    22212755.249   -61893047.940 9  68153151.170 8
  20542531.780    20542534.323   -42776939.090 9  38935288.719 9
  23422564.817    23422568.572    13616791.768 9   9181592.341 9
  20824867.377    20824871.046   -15797212.297 9 -13539368.234 7
 90  3  3  7 32 14.0800000  0  4G 3G12G11G13
  22208464.209    22208467.059   -61915575.247 8  68135597.460 9
  20545140.503    20545142.946   -42763232.983 9  38945968.809 9
  23428441.176    23428445.116    13647672.144 9   9205654.959 9
  20827243.275    20827244.998   -15784727.808 9 -13529640.063 8
 90  3  3  7 32 29.0800000  0  4G 3G12G11G13
  22204188.043    22204190.295   -61938054.417 9  68118081.239 9
  20547777.629    20547780.588   -42749371.865 9  38956769.669 8
  23434316.170    23434320.851    13678544.578 9   9229711.393 9
  20829625.793    20829628.974   -15772207.025 9 -13519883.597 8
 90  3  3  7 32 44.0800000  0  4G 3G12G11G13
  22199920.540    22199921.863   -61960485.558 8  68100602.447 9
  20550444.372    20550448.420   -42735355.854 8  38967691.220 9
  23440188.990    23440193.400    13709409.026 8   9253761.582 9
  20832016.474    20832018.185   -15759649.645 9 -13510098.626 8
 90  3  3  7 32 59.0800000  0  4G 3G12G11G13
  22195660.035    22195662.316   -61982868.876 9  68083160.921 8
  20553141.382    20553145.726   -42721185.089 9  38978733.356 9
  23446059.975    23446065.529    13740265.414 9   9277805.498 9
  20834411.970    20834414.466   -15747056.237 9 -13500285.587 8
 90  3  3  7 33 14.0800000  0  4G 3G12G11G13
  22191408.897    22191411.826   -62005204.262 9  68065756.749 9
  20555866.895    20555871.370   -42706859.828 9  38989895.908 8
  23451932.556    23451935.025    13771113.721 9   9301843.124 9
  20836815.739    20836818.347   -15734426.847 9 -13490444.484 8
 90  3  3  7 33 29.0800000  0  4G 3G12G11G13
  22187167.924    22187170.827   -62027492.056 9  68048389.662 9
  20558621.776    20558626.832   -42692380.131 8  39001178.786 9
  23457800.823    23457804.623    13801953.809 9   9325874.350 9
  20839225.296    20839228.119   -15721761.411 9 -13480575.321 7
 90  3  3  7 33 44.0800000  0  4G 3G12G11G13
  22182936.378    22182938.147   -62049732.071 9  68031059.811 9
  20561406.568    20561410.825   -42677746.103 8  39012581.922 8
  23463667.555    23463671.101    13832785.656 8   9349899.138 9
  20841642.150    20841644.718   -15709060.461 9 -13470678.475 7
 90  3  3  7 33 59.0800000  0  4G 3G12G11G13
  22178713.527    22178715.503   -62071924.694 9  68013766.879 8
  20564222.129    20564224.387   -42662957.885 9  39024105.205 9
  23469533.140    23469537.122    13863609.223 9   9373917.494 8
  20844065.517    20844069.226   -15696324.093 8 -13460754.028 7
 90  3  3  7 34 14.0800000  0  4G 3G12G11G13
  22174498.319    22174501.665   -62094069.857 8  67996510.920 9
  20567066.235    20567068.736   -42648015.694 8  39035748.463 8
  23475396.209    23475400.289    13894424.461 9   9397929.358 9
  20846495.974    20846500.450   -15683552.356 9 -13450802.022 8
 90  3  3  7 34 29.0800000  0  4G 3G12G11G13
  22170293.377    22170296.203   -62116167.775 8  67979291.786 9
  20569936.502    20569941.132   -42632919.604 9  39047511.639 9
  23481259.112    23481263.317    13925231.315 9   9421934.696 8
  20848933.485    20848936.773   -15670745.486 9 -13440822.641 8
 90  3  3  7 34 44.0800000  0  4G 3G12G11G13
  22166097.291    22166099.781   -62138218.297 9  67962109.582 9
  20572839.021    20572843.065   -42617669.703 9  39059394.676 8
  23487120.480    23487123.745    13956029.882 9   9445933.587 8
  20851377.218    20851379.428   -15657903.666 9 -13430816.030 8
 90  3  3  7 34 59.0800000  0  4G 3G12G11G13
  22161910.069    22161912.025   -62160221.841 9  67944963.987 9
  20575770.544    20575774.814   -42602266.184 8  39071397.413 9
  23492979.273    23492984.058    13986820.111 9   9469925.979 8
  20853826.894    20853830.696   -15645027.038 9 -13420782.288 8
 90  3  3  7 35 14.0800000  0  3G 3G12G13
  22157732.224    22157734.510   -62182178.181 9  67927855.163 9
  20578729.699    20578734.522   -42586709.336 8  39083519.628 9
  20856284.226    20856287.118   -15632115.701 9 -13410721.507 9
 90  3  3  7 35 29.0800000  0  4G 3G12G19G13
  22153562.691    22153564.795   -62204087.566 8  67910782.924 8
  20581719.472    20581723.572   -42570999.316 9  39095761.200 9
                  22898022.099   -74769130.602 9
  20858747.750    20858750.628   -15619169.806 9 -13400633.801 8
 90  3  3  7 35 44.0800000  0  4G 3G12G19G13
  22149402.906    22149405.305   -62225950.054 8  67893747.237 7
  20584738.724    20584742.323   -42555136.262 9  39108122.010 9
                  22893098.663   -74795132.089 9
  20861217.813    20861220.554   -15606189.546 9 -13390519.302 8
 90  3  3  7 35 59.0800000  0  4G 3G12G19G13
  22145252.410    22145254.289   -62247765.790 9  67876747.998 9
  20587786.684    20587789.805   -42539120.263 8  39120602.020 8
  22888173.783    22888176.697   -74821011.009 9  94947939.192 9
  20863695.281    20863697.448   -15593175.026 8 -13380378.123 9
 90  3  3  7 36 14.0800000  0  4G 3G12G19G13
  22141107.968    22141111.413   -62269534.755 9  67859785.183 9
  20590863.029    20590866.594   -42522951.436 9  39133201.086 7
  22883273.136    22883274.401   -74846767.564 9  94927869.152 9
  20866177.213    20866181.026   -15580126.564 9 -13370210.503 8
 90  3  3  7 36 29.0800000  0  4G 3G12G19G13
  22136975.912    22136978.009   -62291257.163 9  67842858.648 9
  20593969.753    20593972.748   -42506629.988 9  39145919.088 9
  22878394.151    22878396.732   -74872401.556 9  94907894.618 9
  20868666.631    20868670.264   -15567044.380 9 -13360016.592 8
 90  3  3  7 36 44.0800000  0  4G 3G12G19G13
  22132850.396    22132853.327   -62312933.114 9  67825968.316 9
  20597104.866    20597107.343   -42490155.985 9  39158755.977 8
  22873539.692    22873541.722   -74897912.504 9  94888015.954 9
  20871163.492    20871165.775   -15553928.497 9 -13349796.427 8
 90  3  3  7 36 59.0800000  0  4G 3G12G19G13
  22128734.246    22128737.035   -62334562.666 9  67809114.124 9
  20600268.286    20600271.650   -42473529.645 8  39171711.556 8
  22868709.473    22868711.196   -74923300.409 9  94868233.188 9
  20873665.287    20873666.565   -15540779.088 9 -13339550.121 8
 90  3  3  7 37 14.0800000  0  4G 3G12G19G13
  22124627.118    22124630.024   -62356145.768 9  67792296.151 9
  20603460.820    20603464.976   -42456751.105 9  39184785.750 8
  22863900.953    22863903.164   -74948564.890 9  94848546.581 9
  20876174.117    20876176.368   -15527596.010 8 -13329277.602 8
 90  3  3  7 37 29.0800000  0  4G 3G12G19G13
  22120529.500    22120531.309   -62377682.564 9  67775514.247 9
  20606682.805    20606686.344   -42439820.547 8  39197978.377 8
  22859117.176    22859119.573   -74973706.042 9  94828956.081 9
  20878688.264    20878690.900   -15514379.529 9 -13318979.048 8
 90  3  3  7 37 44.0800000  0  4G 3G12G19G13
  22116438.895    22116440.990   -62399173.124 9  67758768.372 9
  20609933.555    20609937.337   -42422738.239 9  39211289.265 8
  22854355.440    22854359.162   -74998723.495 9  94809461.978 9
  20881209.853    20881214.246   -15501129.873 9 -13308654.647 9
 90  3  3  7 37 59.0800000  0  4G 3G12G19G13
  22112357.578    22112360.236   -62420617.706 9  67742058.334 9
  20613213.376    20613217.801   -42405504.206 9  39224718.376 8
  22849618.840    22849620.951   -75023617.227 9  94790064.276 9
  20883737.266    20883740.557   -15487847.253 9 -13298304.556 7
 90  3  3  7 38 14.0800000  0  4G 3G12G19G13
  22108286.598    22108287.675   -62442016.353 9  67725384.072 8
  20616521.677    20616525.113   -42388118.658 9  39238265.558 8
  22844905.664    22844908.227   -75048387.052 9  94770763.116 9
  20886271.974    20886273.777   -15474531.857 9 -13287928.918 8
 90  3  3  7 38 29.0800000  0  4G 3G12G19G13
  22104222.593    22104225.769   -62463369.078 9  67708745.599 9
  20619859.365    20619861.242   -42370581.813 9  39251930.627 9
  22840215.855    22840217.420   -75073032.808 9  94751558.640 9
  20888811.550    20888813.812   -15461183.863 9 -13277527.879 8
 90  3  3  7 38 44.0800000  0  4G 3G12G19G13
  22100170.303    22100171.294   -62484675.940 9  67692142.872 9
  20623225.525    20623228.051   -42352893.659 9  39265713.594 8
  22835549.646    22835551.524   -75097554.241 9  94732451.027 9
  20891357.705    20891360.758   -15447803.224 8 -13267101.412 8
 90  3  3  7 38 59.0800000  0  4G 3G12G19G13
  22096123.446    22096125.940   -62505937.111 9  67675575.739 9
  20626619.642    20626623.333   -42335054.538 9  39279614.206 8
  22830906.814    22830909.348   -75121951.280 9  94713440.352 9
  20893910.144    20893911.800   -15434390.120 9 -13256649.633 8
 90  3  3  7 39 14.0800000  0  4G 3G12G19G13
  22092085.299    22092089.410   -62527152.746 9  67659044.104 9
  20630042.494    20630044.662   -42317064.725 9  39293632.233 8
  22826287.835    22826290.762   -75146223.737 9  94694526.750 9
  20896468.776    20896471.698   -15420944.854 9 -13246172.808 9
 90  3  3  7 39 29.0800000  0  4G 3G12G19G13
  22088057.761    22088060.347   -62548322.845 9  67642547.940 8
  20633495.572    20633497.153   -42298924.314 9  39307767.605 8
  22821692.156    22821695.058   -75170371.350 9  94675710.447 9
  20899032.889    20899035.412   -15407467.512 9 -13235670.983 7
 90  3  3  7 39 44.0800000  0  4G 3G12G19G13
  22084037.565    22084040.150   -62569447.516 9  67626087.174 8
  20636974.710    20636977.634   -42280633.567 8  39322020.141 9
  22817121.389    22817125.319   -75194394.177 9  94656991.363 9
  20901604.222    20901607.960   -15393958.184 9 -13225144.239 7
 90  3  3  7 39 59.0800000  0  4G 3G12G19G13
  22080025.589    22080027.914   -62590526.771 9  67609661.788 9
  20640483.681    20640488.592   -42262192.590 9  39336389.716 9
  22812574.167    22812576.873   -75218291.836 8  94638369.829 9
  20904180.855    20904183.791   -15380417.015 8 -13214592.682 9
 90  3  3  7 40 14.0800000  0  4G 3G12G19G13
  22076022.692    22076025.919   -62611560.841 9  67593271.627 9
  20644022.528    20644025.681   -42243601.649 9  39350876.156 8
  22808049.527    22808052.637   -75242064.032 8  94619846.038 9
  20906763.922    20906767.087   -15366844.413 9 -13204016.639 8
 90  3  3  7 40 29.0800000  0  4G 3G12G19G13
  22072029.905    22072030.517   -62632549.815 9  67576916.593 9
  20647588.035    20647591.076   -42224860.908 9  39365479.326 8
  22803550.171    22803552.319   -75265710.771 9  94601420.013 8
  20909351.663    20909355.066   -15353240.578 9 -13193416.231 8
 90  3  3  7 40 44.0800000  0  4G 3G12G19G13
  22068043.906    22068047.531   -62653493.638 9  67560596.751 9
  20651183.920    20651186.428   -42205970.479 9  39380199.136 8
  22799074.278    22799077.602   -75289231.853 9  94583091.907 9
  20911946.635    20911950.673   -15339605.201 9 -13182791.267 8
 90  3  3  7 40 59.0800000  0  4G 3G12G19G13
  22064067.382    22064068.890   -62674392.551 9  67544311.893 9
  20654807.076    20654809.655   -42186930.569 9  39395035.420 8
  22794622.243    22794624.511   -75312627.162 9  94564861.805 9
  20914548.011    20914550.275   -15325938.339 9 -13172141.769 7
 90  3  3  7 41 14.0800000  0  4G 3G12G19G13
  22060098.038    22060101.215   -62695246.553 8  67528062.040 8
  20658458.500    20658462.421   -42167741.337 9  39409988.046 7
  22790193.662    22790196.127   -75335896.460 9  94546729.890 9
  20917154.822    20917158.354   -15312240.516 9 -13161468.129 9
 90  3  3  7 41 29.0800000  0  4G 3G12G19G13
  22056138.652    22056140.875   -62716055.731 9  67511847.110 9
  20662138.735    20662141.454   -42148403.063 9  39425056.843 8
  22785789.802    22785792.477   -75359039.602 8  94528696.288 9
  20919767.713    20919769.943   -15298511.827 9 -13150770.452 9
 90  3  3  7 41 44.0800000  0  4G 3G12G19G13
  22052186.858    22052190.584   -62736820.410 9  67495666.857 9
  20665846.257    20665848.851   -42128915.901 9  39440241.635 8
  22781410.257    22781412.381   -75382056.664 9  94510760.924 9
  20922385.909    20922387.770   -15284752.198 8 -13140048.662 7
 90  3  3  7 41 59.0800000  0  4G 3G12G19G13
  22048243.942    22048246.991   -62757540.455 9  67479521.380 9
  20669582.325    20669586.010   -42109280.096 9  39455542.246 8
  22777053.717    22777057.051   -75404947.209 9  94492924.147 9
  20925009.742    20925011.453   -15270962.004 9 -13129303.056 8
 90  3  3  7 42 14.0800000  0  4G 3G12G19G13
  22044309.764    22044311.341   -62778215.905 9  67463410.646 9
  20673348.232    20673351.898   -42089495.878 9  39470958.517 8
  22772723.551    22772725.429   -75427711.224 9  94475185.964 9
  20927639.885    20927642.295   -15257141.489 9 -13118533.816 8
 90  3  3  7 42 29.0800000  0  4G 3G12G19G13
  22040384.434    22040386.652   -62798847.145 9  67447334.366 9
  20677141.826    20677144.466   -42069563.459 9  39486490.257 8
  22768414.565    22768416.830   -75450348.731 9  94457546.373 9
  20930274.876    20930277.445   -15243290.674 9 -13107740.987 8
 90  3  3  7 42 44.0800000  0  4G 3G12G19G13
  22036466.564    22036468.445   -62819433.995 9  67431292.699 9
  20680961.009    20680966.248   -42049482.916 9  39502137.427 8
  22764131.990    22764134.007   -75472859.310 9  94440005.662 9
  20932917.029    20932919.393   -15229409.735 9 -13096924.666 8
 90  3  3  7 42 59.0800000  0  4G 3G12G19G13
  22032557.301    22032559.736   -62839976.718 9  67415285.386 9
  20684811.509    20684814.647   -42029254.604 9  39517899.747 7
  22759871.683    22759874.229   -75495242.768 9  94422564.023 9
  20935563.699    20935566.142   -15215498.660 9 -13086084.866 9
 90  3  3  7 43 14.0800000  0  4G 3G12G19G13
  22028655.413    22028659.403   -62860475.292 9  67399312.480 8
  20688689.428    20688691.868   -42008878.605 9  39533777.131 8
  22755636.373    22755638.664   -75517499.002 9  94405221.503 9
  20938216.970    20938219.444   -15201557.789 9 -13075221.855 8
 90  3  3  7 43 29.0800000  0  4G 3G12G19G13
  22024764.148    22024766.050   -62880929.848 9  67383373.884 9
  20692593.936    20692597.358   -41988355.179 9  39549769.404 8
  22751425.844    22751428.016   -75539627.872 9  94387978.237 9
  20940875.344    20940878.789   -15187587.169 9 -13064335.658 8
 90  3  3  7 43 44.0800000  0  4G 3G12G19G13
  22020879.647    22020881.541   -62901340.434 9  67367469.540 9
  20696526.957    20696531.213   -41967684.618 8  39565876.325 8
  22747238.486    22747242.075   -75561629.227 9  94370834.340 9
  20943538.848    20943541.738   -15173586.728 9 -13053426.222 7
 90  3  3  7 43 59.0800000  0  4G 3G12G19G13
  22017004.559    22017005.738   -62921707.130 9  67351599.407 9
  20700490.058    20700492.163   -41946867.164 9  39582097.703 9
  22743075.694    22743079.388   -75583502.927 9  94353789.904 9
  20946208.975    20946211.435   -15159556.934 9 -13042493.908 8
 90  3  3  7 44 14.0800000  0  4G 3G12G19G13
  22013137.271    22013139.329   -62942030.088 9  67335763.338 9
  20704479.189    20704481.253   -41925902.895 9  39598433.492 8
  22738937.736    22738940.671   -75605248.647 8  94336845.199 9
  20948885.086    20948887.725   -15145497.549 8 -13031538.546 8
 90  3  3  7 44 29.0800000  0  4G 3G12G19G13
  22009277.415    22009280.018   -62962309.398 9  67319961.296 9
  20708495.333    20708499.931   -41904792.041 9  39614883.502 8
  22734823.559    22734826.414   -75626866.606 9  94320000.038 9
  20951565.933    20951568.467   -15131408.831 9 -13020560.323 8
 90  3  3  7 44 44.0800000  0  4G 3G12G19G13
  22005427.584    22005428.943   -62982545.184 9  67304193.158 8
  20712540.798    20712544.051   -41883534.773 9  39631447.594 9
  22730734.364    22730737.346   -75648356.416 8  94303254.747 9
  20954251.418    20954254.588   -15117291.196 8 -13009559.570 8
 90  3  3  7 44 59.0800000  0  4G 3G12G19G13
  22001584.714    22001586.887   -63002737.548 9  67288458.865 9
  20716613.653    20716617.359   -41862131.343 9  39648125.582 9
  22726670.066    22726672.681   -75669718.036 8  94286609.332 9
  20956944.353    20956948.128   -15103144.863 9 -12998536.459 8
 90  3  3  7 45 14.0800000  0  4G 3G12G19G13
  21997751.046    21997753.048   -63022886.419 9  67272758.456 9
  20720714.706    20720718.264   -41840581.926 9  39664917.329 8
  22722629.145    22722631.867   -75690951.362 9  94270063.904 9
  20959641.684    20959644.120   -15088969.635 9 -12987490.820 8
 90  3  3  7 45 29.0800000  0  4G 3G12G19G13
  21993923.861    21993926.230   -63042991.967 9  67257091.809 8
  20724842.922    20724846.175   -41818886.720 9  39681822.682 8
  22718613.777    22718615.910   -75712055.917 8  94253618.799 9
  20962344.764    20962346.873   -15074765.660 9 -12976422.801 8
 90  3  3  7 45 44.0800000  0  4G 3G12G19G13
  21990105.878    21990108.123   -63063054.410 9  67241458.762 8
  20728999.398    20729003.195   -41797046.044 9  39698841.379 9
  22714621.275    22714624.255   -75733031.813 9  94237273.952 9
  20965052.702    20965056.628   -15060533.383 9 -12965332.701 7
 90  3  3  7 45 59.0800000  0  4G 3G12G19G13
  21986297.801    21986299.812   -63083073.715 9  67225859.313 8
  20733183.891    20733186.257   -41775060.082 9  39715973.286 8
  22710654.178    22710658.368   -75753879.220 9  94221029.231 8
  20967766.609    20967769.666   -15046272.781 9 -12954220.549 8
 90  3  3  7 46 14.0800000  0  4G 3G12G19G13
  21982495.659    21982498.592   -63103049.975 9  67210293.420 8
  20737395.043    20737397.880   -41752929.065 9  39733218.222 9
  22706711.374    22706715.074   -75774597.752 9  94204884.925 9
  20970486.086    20970487.371   -15031983.819 9 -12943086.287 8
 90  3  3  7 46 29.0800000  0  4G 3G12G19G13
  21978701.273    21978705.136   -63122983.365 9  67194760.920 8
  20741633.953    20741636.947   -41730653.354 9  39750575.905 8
  22702793.836    22702797.119   -75795187.289 9  94188841.134 8
  20973210.490    20973212.791   -15017666.616 9 -12931930.028 8
 90  3  3  7 46 44.0800000  0  4G 3G12G19G13
  21974918.194    21974919.345   -63142873.992 8  67179261.755 8
  20745900.080    20745903.719   -41708233.146 9  39768046.191 7
  22698900.316    22698902.762   -75815647.524 9  94172898.104 9
  20975941.001    20975941.275   -15003321.316 9 -12920751.875 7
 90  3  3  7 46 59.0800000  0  4G 3G12G19G13
  21971140.259    21971142.541   -63162721.768 9  67163795.973 9
  20750193.479    20750197.332   -41685668.539 9  39785628.989 9
  22695032.061    22695034.023   -75835978.411 9  94157055.854 9
  20978675.609    20978678.052   -14988948.113 9 -12909551.981 7
 90  3  3  7 47 14.0800000  0  4G 3G12G19G13
  21967370.755    21967374.593   -63182526.999 9  67148363.336 9
  20754515.512    20754517.963   -41662959.841 9  39803324.086 8
  22691186.770    22691190.099   -75856179.506 9  94141314.751 9
  20981416.478    20981418.048   -14974547.081 9 -12898330.398 8
 90  3  3  7 47 29.0800000  0  4G 3G12G19G13
  21963610.777    21963613.320   -63202289.829 9  67132963.754 8
  20758864.618    20758866.354   -41640107.272 9  39821131.266 8
  22687369.100    22687370.497   -75876251.148 9  94125674.521 9
  20984160.504    20984163.492   -14960118.424 9 -12887087.277 9
 90  3  3  7 47 44.0800000  0  4G 3G12G19G13
  21959857.774    21959860.607   -63222009.983 9  67117597.408 8
  20763239.480    20763242.674   -41617110.880 9  39839050.529 9
  22683572.346    22683575.909   -75896193.256 9  94110135.222 9
  20986911.138    20986914.423   -14945662.436 9 -12875822.872 9
 90  3  3  7 47 59.0800000  0  4G 3G12G19G13
  21956113.238    21956115.834   -63241687.775 9  67102264.078 9
  20767642.863    20767647.215   -41593971.107 9  39857081.515 8
  22679802.056    22679805.351   -75916005.415 9  94094697.175 9
  20989668.770    20989670.842   -14931179.059 9 -12864537.139 8
 90  3  3  7 48 14.0800000  0  4G 3G12G19G13
  21952376.820    21952379.328   -63261323.412 9  67086963.612 8
  20772074.261    20772077.312   -41570688.139 9  39875224.073 8
  22676058.076    22676059.470   -75935687.433 8  94079360.561 9
  20992429.462    20992431.778   -14916668.481 9 -12853230.207 8
 90  3  3  7 48 29.0800000  0  4G 3G12G19G13
  21948648.868    21948651.158   -63280916.825 9  67071696.024 9
  20776531.914    20776536.109   -41547262.145 9  39893478.086 8
  22672337.833    22672339.202   -75955239.362 8  94064125.292 9
  20995196.268    20995197.808   -14902130.576 9 -12841901.972 8
 90  3  3  7 48 44.0800000  0  4G 3G12G19G13
  21944928.972    21944930.058   -63300468.242 9  67056461.174 8
  20781016.930    20781020.152   -41523693.493 9  39911843.265 8
  22668642.464    22668643.375   -75974661.210 9  94048991.388 9
  20997967.354    20997969.750   -14887565.684 9 -12830552.703 7
 90  3  3  7 48 59.0800000  0  4G 3G12G19G13
  21941214.851    21941218.597   -63319977.459 9  67041259.198 9
  20785528.533    20785531.642   -41499982.406 9  39930319.424 9
  22664970.149    22664972.487   -75993952.613 8  94033959.131 9
  21000744.586    21000746.890   -14872974.040 9 -12819182.589 8
 90  3  3  7 49 14.0800000  0  4G 3G12G19G13
  21937510.543    21937513.560   -63339444.872 8  67026089.790 8
  20790068.237    20790071.976   -41476129.230 9  39948906.302 8
  22661322.170    22661326.100   -76013113.383 8  94019028.654 8
  21003526.662    21003528.419   -14858355.721 9 -12807791.689 7
 90  3  3  7 49 29.0800000  0  4G 3G12G19G13
  21933814.557    21933817.116   -63358870.501 9  67010952.959 9
  20794633.539    20794637.607   -41452134.201 9  39967603.721 9
  22657701.756    22657705.666   -76032143.653 8  94004199.885 9
  21006313.326    21006315.433   -14843710.836 9 -12796380.094 8
 90  3  3  7 49 44.0800000  0  4G 3G12G19G13
  21930125.934    21930128.049   -63378254.382 9  66995848.648 8
  20799226.718    20799230.428   -41427997.436 9  39986411.581 9
  22654105.807    22654108.449   -76051043.174 9  93989472.994 9
  21009104.628    21009107.214   -14829039.686 9 -12784948.032 8
 90  3  3  7 49 59.0800000  0  4G 3G12G19G13
  21926444.984    21926448.015   -63397596.727 9  66980776.706 9
  20803847.455    20803850.892   -41403719.193 9  40005329.679 9
  22650535.475    22650536.830   -76069811.902 9  93974848.016 9
  21011901.775    21011904.110   -14814342.238 9 -12773495.478 7
 90  3  3  7 50 14.0800000  0  4G 3G12G19G13
  21922770.864    21922774.325   -63416897.609 9  66965737.080 9
  20808494.708    20808497.000   -41379299.790 9  40024357.777 9
  22646988.402    22646990.885   -76088449.741 9  93960325.031 9
  21014703.833    21014705.519   -14799618.525 9 -12762022.465 8
 90  3  3  7 50 29.0800000  0  4G 3G12G19G13
  21919106.377    21919109.153   -63436157.031 9  66950729.744 9
  20813167.589    20813170.753   -41354739.364 9  40043495.761 8
  22643467.305    22643468.469   -76106956.738 9  93945904.002 9
  21017510.037    21017511.865   -14784868.552 9 -12750528.968 7
 90  3  3  7 50 44.0800000  0  4G 3G12G19G13
  21915450.724    21915452.748   -63455375.246 8  66935754.532 9
  20817867.886    20817871.838   -41330038.195 9  40062743.412 8
  22639969.774    22639971.683   -76125332.583 8  93931585.150 9
  21020322.395    21020325.002   -14770092.586 9 -12739015.234 7
 90  3  3  7 50 59.0800000  0  4G 3G12G19G13
  21911800.590    21911803.207   -63474552.089 9  66920811.551 9
  20822596.139    20822597.962   -41305196.544 9  40082100.533 9
  22636498.661    22636500.518   -76143577.001 9  93917368.733 9
  21023138.666    21023141.234   -14755290.820 9 -12727481.390 8
 90  3  3  7 51 14.0800000  0  4G 3G12G19G13
  21908159.160    21908162.788   -63493687.736 9  66905900.661 9
  20827348.676    20827352.734   -41280214.731 9  40101566.880 8
  22633051.656    22633053.843   -76161689.770 9  93903254.888 9
  21025960.706    21025962.600   -14740463.436 9 -12715927.560 8
 90  3  3  7 51 29.0800000  0  4G 3G12G19G13
  21904525.405    21904528.212   -63512782.236 9  66891021.849 9
  20832128.978    20832133.548   -41255092.829 9  40121142.383 9
  22629628.671    22629631.620   -76179671.009 9  93889243.533 9
  21028786.292    21028790.142   -14725610.291 9 -12704353.701 8
 90  3  3  7 51 44.0800000  0  4G 3G12G19G13
  21900899.534    21900903.007   -63531835.842 9  66876174.903 9
  20836936.953    20836939.832   -41229831.202 9  40140826.753 8
  22626232.637    22626235.333   -76197520.863 9  93875334.565 9
  21031618.157    21031620.873   -14710731.759 9 -12692760.050 8
 90  3  3  7 51 59.0800000  0  4G 3G12G19G13
  21897282.485    21897284.944   -63550848.641 9  66861359.737 9
  20841770.453    20841775.162   -41204430.195 9  40160619.732 9
  22622860.932    22622863.184   -76215238.969 9  93861528.253 9
  21034454.677    21034457.355   -14695828.039 9 -12681146.763 9
 90  3  3  7 52 14.0800000  0  4G 3G12G19G13
  21893672.224    21893673.711   -63569820.786 9  66846576.255 9
  20846630.854    20846634.165   -41178889.982 9  40180521.192 8
  22619514.406    22619516.296   -76232825.274 9  93847824.650 9
  21037294.759    21037298.761   -14680899.043 9 -12669513.776 7
 90  3  3  7 52 29.0800000  0  4G 3G12G19G13
  21890068.791    21890071.457   -63588752.142 9  66831824.554 9
  20851517.485    20851520.780   -41153210.829 9  40200530.911 9
  22616192.458    22616194.610   -76250279.684 8  93834223.810 9
  21040141.153    21040142.753   -14665944.983 9 -12657861.270 9
 90  3  3  7 52 44.0800000  0  4G 3G12G19G13
  21886474.308    21886477.522   -63607642.803 8  66817104.574 9
  20856430.532    20856433.039   -41127393.169 9  40220648.561 9
  22612896.607    22612899.293   -76267601.898 8  93820725.979 9
  21042990.104    21042993.568   -14650966.061 9 -12646189.380 8
 90  3  3  7 52 59.0800000  0  4G 3G12G19G13
  21882886.871    21882889.851   -63626492.910 9  66802416.193 9
  20861369.190    20861373.141   -41101437.101 9  40240874.057 8
  22609625.653    22609627.561   -76284791.857 9  93807331.211 9
  21045845.981    21045848.973   -14635962.089 9 -12634497.969 9
 90  3  3  7 53 14.0800000  0  4G 3G12G19G13
  21879307.712    21879309.062   -63645302.703 9  66787759.219 9
  20866335.611    20866339.606   -41075342.933 9  40261207.169 8
  22606380.508    22606381.922   -76301849.764 8  93794039.340 9
  21048706.633    21048709.059   -14620933.302 9 -12622787.234 8
 90  3  3  7 53 29.0800000  0  4G 3G12G19G13
  21875736.288    21875738.197   -63664072.119 9  66773133.710 8
  20871326.571    20871330.049   -41049110.869 9  40281647.718 9
  22603157.916    22603159.892   -76318775.367 9  93780850.559 9
  21051570.328    21051573.199   -14605879.798 9 -12611057.228 8
 90  3  3  7 53 44.0800000  0  4G 3G12G19G13
  21872171.745    21872174.233   -63682801.193 9  66758539.638 9
  20876345.357    20876347.425   -41022741.213 9  40302195.494 8
  22599962.631    22599965.901   -76335568.483 9  93767765.004 9
  21054440.341    21054442.135   -14590801.707 9 -12599308.062 8
 90  3  3  7 53 59.0800000  0  4G 3G12G19G13
  21868616.146    21868618.233   -63701490.164 9  66743976.809 9
  20881389.232    20881392.615   -40996234.443 9  40322850.113 8
  22596792.296    22596795.110   -76352229.152 9  93754782.673 9
  21057313.901    21057316.973   -14575699.376 9 -12587540.001 8
 90  3  3  7 54 14.0800000  0  4G 3G12G19G13
  21865066.616    21865069.265   -63720139.149 9  66729445.140 9
  20886459.294    20886462.934   -40969590.741 9  40343611.428 8
  22593647.776    22593649.889   -76368757.391 9  93741903.529 9
  21060192.636    21060194.477   -14560572.795 9 -12575753.054 9
 90  3  3  7 54 29.0800000  0  4G 3G12G19G13
  21861525.867    21861528.099   -63738748.279 8  66714944.527 9
  20891555.210    20891559.009   -40942810.317 9  40364479.277 8
  22590526.438    22590529.982   -76385152.779 9  93729127.905 9
  21063076.006    21063077.807   -14545421.994 9 -12563947.231 9
 90  3  3  7 54 44.0800000  0  4G 3G12G19G13
  21857991.287    21857994.387   -63757317.513 8  66700475.006 8
  20896678.372    20896681.152   -40915893.347 9  40385453.530 9
  22587432.823    22587434.785   -76401415.148 8  93716455.936 9
  21065964.722    21065966.394   -14530247.162 9 -12552122.693 8
 90  3  3  7 54 59.0800000  0  4G 3G12G19G13
  21854466.330    21854468.787   -63775846.890 9  66686036.534 9
  20901824.916    20901827.541   -40888840.119 9  40406533.953 8
  22584362.713    22584365.374   -76417544.552 9  93703887.565 9
  21068855.777    21068857.261   -14515048.381 9 -12540279.479 8
 90  3  3  7 55 14.0800000  0  4G 3G12G19G13
  21850947.204    21850950.034   -63794336.546 9  66671629.006 9
  20906999.305    20907002.487   -40861650.945 9  40427720.311 8
  22581319.403    22581322.238   -76433540.949 9  93691422.847 9
  21071752.877    21071755.359   -14499825.594 9 -12528417.554 8
 90  3  3  7 55 29.0800000  0  4G 3G12G19G13
  21847437.780    21847439.016   -63812786.547 9  66657252.391 9
  20912199.993    20912202.331   -40834326.144 9  40449012.358 8
  22578300.689    22578303.092   -76449404.340 9  93679061.758 9
  21074653.458    21074656.222   -14484578.990 9 -12516537.090 9
 90  3  3  7 55 44.0800000  0  4G 3G12G19G13
  21843932.545    21843935.697   -63831196.991 9  66642906.599 9
  20917425.594    20917429.390   -40806866.059 9  40470409.816 9
  22575307.124    22575310.656   -76465134.626 9  93666804.398 9
  21077559.686    21077562.305   -14469308.898 9 -12504638.307 8
 90  3  3  7 55 59.0800000  0  4G 3G12G19G13
  21840437.023    21840440.547   -63849567.990 9  66628591.547 8
  20922676.780    20922679.347   -40779270.912 9  40491912.517 9
  22572338.196    22572341.707   -76480731.579 9  93654650.926 9
  21080469.592    21080472.486   -14454015.233 9 -12492721.170 9
 90  3  3  7 56 14.0800000  0  4G 3G12G19G13
  21836948.814    21836951.302   -63867899.572 8  66614307.201 8
  20927952.978    20927955.518   -40751541.024 9  40513520.206 8
  22569396.884    22569399.210   -76496195.285 9  93642601.287 9
  21083384.803    21083386.941   -14438698.108 9 -12480785.747 9
 90  3  3  7 56 29.0800000  0  4G 3G12G19G13
  21833468.740    21833470.505   -63886191.908 9  66600053.462 9
  20933255.722    20933258.016   -40723676.661 9  40535232.680 9
  22566479.538    22566481.794   -76511525.594 9  93630655.589 9
  21086302.883    21086306.778   -14423357.492 9 -12468832.022 9
 90  3  3  7 56 44.0800000  0  4G 3G12G19G13
  21829994.573    21829996.813   -63904445.163 9  66585830.141 9
  20938582.619    20938586.640   -40695678.154 9  40557049.698 9
  22563587.088    22563590.328   -76526722.555 9  93618813.821 9
  21089226.967    21089230.586   -14407993.510 9 -12456860.081 8
 90  3  3  7 56 59.0800000  0  4G 3G12G19G13
  21826528.350    21826530.445   -63922659.366 9  66571637.259 9
  20943936.071    20943939.828   -40667545.805 9  40578970.989 9
  22560720.875    22560723.179   -76541785.757 9  93607076.261 9
  21092155.044    21092158.421   -14392606.623 9 -12444870.310 7
 90  3  3  7 57 14.0800000  0  4G 3G12G19G13
  21823069.310    21823072.650   -63940834.700 8  66557474.671 9
  20949314.895    20949318.106   -40639279.771 9  40600996.463 8
  22557879.928    22557882.154   -76556715.468 9  93595442.723 9
  21095087.748    21095091.662   -14377196.955 9 -12432862.768 8
 90  3  3  7 57 29.0800000  0  4G 3G12G19G13
  21819618.663    21819621.466   -63958971.153 9  66543342.393 9
  20954720.019    20954722.744   -40610880.413 9  40623125.820 8
  22555063.687    22555066.505   -76571511.569 9  93583913.303 9
  21098024.350    21098026.305   -14361764.436 9 -12420837.421 8
 90  3  3  7 57 44.0800000  0  4G 3G12G19G13
  21816175.542    21816177.749   -63977068.811 8  66529240.323 9
  20960148.641    20960153.624   -40582348.051 9  40645358.828 8
  22552274.605    22552276.279   -76586173.795 8  93572488.191 9
  21100965.373    21100968.464   -14346309.110 9 -12408794.304 8
 90  3  3  7 57 59.0800000  0  4G 3G12G19G13
  21812739.812    21812741.648   -63995127.742 9  66515168.433 9
  20965602.962    20965605.973   -40553682.871 9  40667695.320 9
  22549509.752    22549512.237   -76600701.881 8  93561167.618 9
  21103911.378    21103914.168   -14330831.148 9 -12396733.542 8
 90  3  3  7 58 14.0800000  0  4G 3G12G19G13
  21809309.047    21809311.876   -64013147.964 9  66501126.714 8
  20971084.782    20971087.418   -40524885.174 9  40690135.064 9
  22546770.499    22546773.192   -76615095.888 9  93549951.510 9
  21106860.645    21106863.609   -14315330.747 9 -12384655.319 8
 90  3  3  7 58 29.0800000  0  4G 3G12G19G13
  21805887.253    21805889.382   -64031129.630 9  66487115.037 9
  20976589.482    20976593.081   -40495955.240 9  40712677.860 8
  22544056.983    22544059.859   -76629355.890 9  93538839.818 9
  21109814.332    21109815.837   -14299807.791 9 -12372559.500 8
 90  3  3  7 58 44.0800000  0  4G 3G12G19G13
  21802472.987    21802475.743   -64049072.949 9  66473133.246 8
  20982119.526    20982122.837   -40466893.417 9  40735323.423 8
  22541368.590    22541371.615   -76643481.909 9  93527832.532 9
  21112773.372    21112775.184   -14284262.436 9 -12360446.239 8
 90  3  3  7 58 59.0800000  0  4G 3G12G19G13
  21799065.647    21799068.112   -64066977.942 8  66459181.317 9
  20987674.596    20987678.205   -40437700.018 8  40758071.520 8
  22538706.202    22538708.989   -76657473.888 8  93516929.693 9
  21115734.671    21115737.215   -14268694.808 9 -12348315.617 9
 90  3  3  7 59 14.0800000  0  4G 3G12G19G13
  21795665.917    21795668.149   -64084844.639 8  66445259.223 9
  20993255.567    20993258.507   -40408375.332 9  40780921.914 9
  22536068.642    22536072.227   -76671331.836 9  93506131.286 9
  21118701.514    21118703.550   -14253105.064 9 -12336167.763 9
 90  3  3  7 59 29.0800000  0  4G 3G12G19G13
  21792273.665    21792275.895   -64102673.170 9  66431366.862 9
  20998861.534    20998863.558   -40378919.729 9  40803874.321 9
  22533457.318    22533460.881   -76685055.287 9  93495437.696 9
  21121672.493    21121674.559   -14237493.335 9 -12324002.772 8
 90  3  3  7 59 44.0800000  0  4G 3G12G19G13
  21788886.939    21788890.655   -64120463.609 8  66417504.187 9
  21004489.713    21004494.481   -40349333.562 9  40826928.470 8
  22530871.383    22530875.823   -76698644.192 8  93484848.936 9
  21124648.716    21124649.748   -14221859.763 9 -12311820.771 9
 90  3  3  7 59 59.0800000  0  4G 3G12G19G13
  21785510.366    21785511.269   -64138216.087 9  66403671.101 9
  21010145.105    21010147.842   -40319617.205 9  40850084.045 8
  22528310.251    22528314.212   -76712098.802 9  93474364.830 9
  21127626.088    21127628.355   -14206204.454 9 -12299621.817 8
 90  3  3  8  0 14.0800000  0  4G 3G12G19G13
  21782138.616    21782140.882   -64155930.608 9  66389867.587 8
  21015825.053    21015827.503   -40289770.822 9  40873340.969 8
  22525776.506    22525779.911   -76725418.928 9  93463985.516 9
  21130609.846    21130612.160   -14190527.422 9 -12287405.945 8
 90  3  3  8  0 29.0800000  0  4G 3G12G19G13
  21778775.036    21778777.403   -64173607.365 9  66376093.489 9
  21021529.625    21021533.177   -40259794.729 9  40896698.947 8
  22523267.207    22523270.201   -76738604.651 9  93453710.928 9
  21133596.117    21133599.752   -14174828.750 9 -12275173.214 8
 90  3  3  8  0 44.0800000  0  4G 3G12G19G13
  21775417.950    21775419.808   -64191246.331 9  66362348.854 9
  21027258.508    21027260.745   -40229689.131 9  40920157.843 9
  22520784.296    22520786.690   -76751655.882 9  93443541.141 9
  21136588.074    21136591.318   -14159108.450 9 -12262923.632 8
 90  3  3  8  0 59.0800000  0  4G 3G12G19G13
  21772067.968    21772071.314   -64208847.632 8  66348633.559 9
  21033011.275    21033014.959   -40199454.375 9  40943717.379 8
  22518325.352    22518328.681   -76764572.480 9  93433476.262 9
  21139583.767    21139585.472   -14143366.751 9 -12250657.378 8
 90  3  3  8  1 14.0800000  0  4G 3G12G19G13
  21768726.041    21768728.523   -64226411.398 9  66334947.517 9
  21038789.637    21038793.633   -40169090.867 9  40967377.243 8
  22515892.433    22515896.895   -76777354.486 9  93423516.257 9
  21142584.010    21142585.828   -14127603.690 9 -12238374.475 7
 90  3  3  8  1 29.0800000  0  4G 3G12G19G13
  21765391.572    21765393.264   -64243937.568 9  66321290.768 9
  21044591.830    21044596.210   -40138598.893 9  40991137.221 8
  22513486.852    22513489.370   -76790001.553 9  93413661.402 9
  21145587.497    21145589.586   -14111819.513 8 -12226075.117 8
 90  3  3  8  1 44.0800000  0  4G 3G12G19G13
  21762062.093    21762065.604   -64261426.484 8  66307663.056 9
  21050418.550    21050421.713   -40107978.719 9  41014997.086 8
  22511106.119    22511108.230   -76802513.890 9  93403911.538 9
  21148595.816    21148597.899   -14096014.091 9 -12213759.215 8
 90  3  3  8  1 59.0800000  0  4G 3G12G19G13
  21758741.866    21758744.268   -64278878.019 9  66294064.462 9
  21056270.319    21056273.000   -40077230.678 9  41038956.587 8
  22508750.487    22508752.504   -76814891.365 9  93394266.754 9
  21151606.919    21151610.397   -14080187.448 9 -12201426.759 8
 90  3  3  8  2 14.0800000  0  4G 3G12G19G13
  21755429.253    21755430.427   -64296292.521 9  66280494.733 9
  21062145.444    21062148.410   -40046355.127 9  41063015.446 8
  22506421.476    22506422.959   -76827133.716 9  93384727.256 9
  21154622.206    21154625.041   -14064339.819 9 -12189077.961 8
 90  3  3  8  2 29.0800000  0  4G 3G12G19G13
  21752121.676    21752124.260   -64313669.823 8  66266953.994 9
  21068045.909    21068048.260   -40015352.329 9  41087173.449 9
  22504117.548    22504119.265   -76839241.058 8  93375292.962 9
  21157641.665    21157645.216   -14048471.329 9 -12176712.909 8
 90  3  3  8  2 44.0800000  0  4G 3G12G19G13
  21748822.474    21748824.900   -64331009.998 9  66253442.175 9
  21073969.042    21073971.550   -39984222.607 9  41111430.366 8
  22501839.159    22501842.345   -76851213.614 8  93365963.695 9
  21160665.776    21160668.354   -14032581.992 9 -12164331.607 8
 90  3  3  8  2 59.0800000  0  4G 3G12G19G13
  21745529.766    21745532.187   -64348313.166 9  66239959.205 9
  21079916.327    21079920.020   -39952966.297 9  41135785.932 8
  22499585.864    22499588.815   -76863050.967 9  93356739.786 9
  21163692.832    21163695.036   -14016671.941 9 -12151934.164 8
 90  3  3  8  3 14.0800000  0  4G 3G12G19G13
  21742242.944    21742245.856   -64365579.460 9  66226504.947 9
  21085888.913    21085891.535   -39921583.713 9  41160239.880 8
  22497358.810    22497362.554   -76874753.095 8  93347621.243 9
  21166724.562    21166727.982   -14000741.158 9 -12139520.550 7
 90  3  3  8  3 29.0800000  0  4G 3G12G19G13
  21738964.013    21738966.832   -64382808.931 8  66213079.396 9
  21091885.391    21091887.859   -39890075.111 9  41184792.020 8
  22495157.075    22495160.529   -76886320.057 9  93338608.026 9
  21169760.170    21169762.929   -13984789.913 9 -12127091.012 7
 90  3  3  8  3 44.0800000  0  4G 3G12G19G13
  21735693.416    21735694.978   -64400001.718 9  66199682.425 9
  21097904.378    21097907.475   -39858440.856 9  41209442.070 8
  22492982.424    22492985.814   -76897751.950 9  93329700.047 9
  21172798.935    21172803.055   -13968818.438 9 -12114645.715 8
 90  3  3  8  3 59.0800000  0  4G 3G12G19G13
  21732428.705    21732430.068   -64417157.847 8  66186314.028 9
  21103947.738    21103951.676   -39826681.428 9  41234189.663 9
  22490832.668    22490835.666   -76909048.736 9  93320897.365 9
  21175841.673    21175844.760   -13952826.922 9 -12102184.793 8
 90  3  3  8  4 14.0800000  0  4G 3G12G19G13
  21729171.445    21729172.895   -64434277.569 9  66172973.996 9
  21110015.176    21110018.685   -39794797.050 9  41259034.620 9
  22488709.224    22488711.626   -76920210.240 8  93312200.093 8
  21178888.691    21178893.447   -13936815.085 9 -12089708.040 8
 90  3  3  8  4 29.0800000  0  4G 3G12G19G13
  21725920.046    21725922.404   -64451360.751 9  66159662.429 9
  21116106.658    21116109.167   -39762787.992 9  41283976.741 9
  22486611.072    22486613.285   -76931236.446 9  93303608.245 9
  21181939.857    21181943.000   -13920783.065 9 -12077215.556 8
 90  3  3  8  4 44.0800000  0  4G 3G12G19G13
  21722675.785    21722678.331   -64468407.713 9  66146379.089 9
  21122222.046    21122225.285   -39730654.581 9  41309015.745 8
  22484537.862    22484541.273   -76942127.158 9  93295121.966 9
  21184994.182    21184996.907   -13904730.914 9 -12064707.377 8
 90  3  3  8  4 59.0800000  0  4G 3G12G19G13
  21719439.799    21719441.719   -64485418.473 9  66133123.952 9
  21128359.716    21128363.126   -39698397.199 9  41334151.342 8
  22482492.909    22482494.364   -76952882.515 9  93286741.167 9
  21188052.654    21188055.521   -13888658.857 9 -12052183.704 9
 90  3  3  8  5 14.0800000  0  4G 3G12G19G13
  21716207.966    21716210.181   -64502392.912 9  66119897.147 9
  21134521.738    21134525.577   -39666016.159 9  41359383.302 8
  22480470.820    22480473.922   -76963502.769 9  93278465.649 9
  21191115.950    21191117.545   -13872566.993 9 -12039644.586 8
 90  3  3  8  5 29.0800000  0  4G 3G12G19G13
  21712985.765    21712987.171   -64519331.281 9  66106698.416 9
  21140707.398    21140711.297   -39633511.728 9  41384711.420 8
  22478477.189    22478478.996   -76973987.527 9  93270295.706 9
  21194181.876    21194183.758   -13856455.303 9 -12027090.028 8
 90  3  3  8  5 44.0800000  0  4G 3G12G19G13
  21709769.129    21709770.611   -64536233.606 8  66093527.784 8
  21146916.138    21146918.937   -39600884.245 9  41410135.422 8
  22476505.468    22476508.841   -76984336.620 9  93262231.473 9
  21197250.469    21197253.706   -13840323.810 9 -12014520.032 8
 90  3  3  8  5 59.0800000  0  4G 3G12G19G13
  21706559.851    21706562.922   -64553099.877 9  66080385.249 8
  21153147.780    21153151.712   -39568134.178 9  41435654.951 8
  22474562.844    22474564.214   -76994550.235 9  93254272.809 9
  21200324.167    21200327.579   -13824172.668 9 -12001934.737 8
 90  3  3  8  6 14.0800000  0  4G 3G12G19G13
  21703357.211    21703359.405   -64569930.446 9  66067270.519 8
  21159403.216    21159405.964   -39535261.770 9  41461269.791 8
  22472645.913    22472647.362   -77004628.396 8  93246419.683 9
  21203401.560    21203403.826   -13808002.026 9 -11989334.233 7
 90  3  3  8  6 29.0800000  0  4G 3G12G19G13
  21700161.493    21700163.666   -64586725.248 9  66054183.667 9
  21165681.867    21165685.543   -39502267.438 9  41486979.641 9
  22470753.437    22470754.526   -77014571.005 9  93238672.213 9
  21206482.844    21206485.752   -13791812.054 9 -11976718.671 8
 90  3  3  8  6 44.0800000  0  4G 3G12G19G13
  21696972.582    21696974.010   -64603484.282 9  66041124.693 9
  21171984.249    21171988.218   -39469151.470 9  41512784.277 8
  22468886.727    22468889.310   -77024378.059 9  93231030.335 9
  21209566.418    21209569.857   -13775602.799 9 -11964088.093 8
 90  3  3  8  6 59.0800000  0  4G 3G12G19G13
  21693790.483    21693791.819   -64620207.852 9  66028093.351 9
  21178308.670    21178311.958   -39435914.070 9  41538683.535 8
  22467045.921    22467048.752   -77034049.772 9  93223493.933 9
  21212655.371    21212657.266   -13759374.317 9 -11951442.510 8
 90  3  3  8  7 14.0800000  0  4G 3G12G19G13
  21690613.442    21690616.214   -64636895.755 9  66015089.797 9
  21184656.081    21184659.990   -39402555.582 9  41564677.157 8
  22465232.084    22465234.040   -77043585.702 9  93216063.333 9
  21215747.559    21215748.893   -13743126.767 9 -11938782.078 7
 90  3  3  8  7 29.0800000  0  4G 3G12G19G13
  21687445.101    21687447.001   -64653548.346 8  66002113.757 9
  21191027.506    21191030.849   -39369076.429 9  41590764.796 8
  22463442.924    22463445.481   -77052986.128 9  93208738.323 9
  21218842.177    21218845.646   -13726860.123 9 -11926106.798 9
 90  3  3  8  7 44.0800000  0  4G 3G12G19G13
  21684282.140    21684284.730   -64670165.560 9  65989165.288 9
  21197421.982    21197426.317   -39335477.016 9  41616946.142 9
  22461680.663    22461682.506   -77062250.956 9  93201518.977 9
  21221941.838    21221943.789   -13710574.267 9 -11913416.516 8
 90  3  3  8  7 59.0800000  0  4G 3G12G19G13
  21681128.377    21681129.807   -64686747.406 9  65976244.377 9
  21203838.395    21203841.376   -39301757.585 9  41643221.012 8
  22459942.190    22459944.974   -77071380.135 9  93194405.321 9
  21225043.781    21225046.236   -13694269.411 9 -11900711.421 8
 90  3  3  8  8 14.0800000  0  4G 3G12G19G13
  21677979.159    21677980.520   -64703293.971 9  65963350.961 8
  21210278.023    21210281.542   -39267918.467 9  41669589.137 8
  22458230.844    22458234.147   -77080373.632 9  93187397.405 9
  21228150.795    21228153.271   -13677945.720 9 -11887991.675 8
 90  3  3  8  8 29.0800000  0  4G 3G12G19G13
  21674837.246    21674838.324   -64719805.545 9  65950484.797 9
  21216738.945    21216742.864   -39233960.118 9  41696050.181 9
  22456545.488    22456548.058   -77089231.381 9  93180495.255 9
  21231260.812    21231263.206   -13661603.311 9 -11875257.331 7
 90  3  3  8  8 44.0800000  0  4G 3G12G19G13
  21671701.723    21671703.854   -64736282.068 9  65937645.958 9
  21223224.267    21223228.263   -39199882.852 9  41722603.889 9
  22454885.586    22454888.404   -77097953.339 9  93173698.920 9
  21234373.519    21234376.539   -13645242.305 9 -11862508.491 8
 90  3  3  8  8 59.0800000  0  4G 3G12G19G13
  21668572.252    21668574.556   -64752723.612 8  65924834.368 8
  21229731.030    21229734.644   -39165687.024 8  41749249.991 8
  22453251.821    22453254.458   -77106539.680 9  93167008.256 9
  21237490.144    21237493.656   -13628862.620 9 -11849745.105 8
 90  3  3  8  9 14.0800000  0  4G 3G12G19G13
  21665450.303    21665452.384   -64769130.249 9  65912049.982 9
  21236260.573    21236264.751   -39131372.860 9  41775988.271 8
  22451643.127    22451646.583   -77114990.492 9  93160423.187 9
  21240610.723    21240613.589   -13612464.364 8 -11836967.244 8
 90  3  3  8  9 29.0800000  0  4G 3G12G19G13
  21662333.587    21662337.062   -64785502.147 9  65899292.653 9
  21242813.937    21242815.677   -39096940.752 9  41802818.485 7
  22450061.213    22450063.631   -77123305.506 9  93153943.961 9
  21243735.079    21243737.730   -13596047.440 9 -11824174.836 8
 90  3  3  8  9 44.0800000  0  4G 3G12G19G13
  21659225.680    21659227.383   -64801839.158 9  65886562.529 9
  21249387.664    21249390.674   -39062391.052 9  41829740.320 8
  22448504.694    22448508.082   -77131484.817 9  93147570.465 9
  21246863.067    21246864.658   -13579612.214 9 -11811368.178 8
 90  3  3  8  9 59.0800000  0  4G 3G12G19G13
  21656123.814    21656125.585   -64818141.532 9  65873859.371 8
  21255983.974    21255987.558   -39027724.067 9  41856753.555 9
  22446974.538    22446976.664   -77139528.217 9  93141302.877 9
  21249993.233    21249996.309   -13563158.676 9 -11798547.232 8
 90  3  3  8 10 14.0800000  0  4G 3G12G19G13
  21653028.454    21653030.343   -64834409.543 9  65861183.003 8
  21262603.143    21262606.793   -38992940.260 9  41883857.799 8
  22445468.557    22445472.465   -77147435.918 9  93135141.017 9
  21253128.005    21253130.554   -13546686.874 9 -11785712.075 9
 90  3  3  8 10 29.0800000  0  4G 3G12G19G13
  21649939.194    21649941.337   -64850642.919 9  65848533.617 9
  21269245.082    21269248.150   -38958040.002 9  41911052.789 8
  22443990.943    22443993.753   -77155207.936 8  93129084.896 9
  21256266.354    21256269.206   -13530196.738 9 -11772862.615 9
 90  3  3  8 10 44.0800000  0  4G 3G12G19G13
  21646855.583    21646859.744   -64866841.873 9  65835911.065 8
  21275908.622    21275912.380   -38923023.555 9  41938338.331 8
  22442538.352    22442540.287   -77162844.250 9  93123134.510 9
  21259408.220    21259410.929   -13513688.460 9 -11759999.029 7
 90  3  3  8 10 59.0800000  0  4G 3G12G19G13
  21643781.051    21643783.220   -64883006.559 9  65823315.215 9
  21282594.380    21282596.467   -38887891.269 9  41965714.121 8
  22441110.267    22441112.197   -77170344.763 9  93117289.954 8
  21262553.380    21262555.904   -13497162.189 9 -11747121.411 8
 90  3  3  8 11 14.0800000  0  4G 3G12G19G13
  21640711.088    21640713.248   -64899136.992 8  65810746.054 9
  21289301.866    21289305.230   -38852643.500 9  41993179.908 8
  22439708.872    22439710.996   -77177709.570 8  93111551.140 9
  21265700.976    21265703.415   -13480617.977 9 -11734229.826 8
 90  3  3  8 11 29.0800000  0  4G 3G12G19G13
  21637648.267    21637650.470   -64915233.162 9  65798203.584 9
  21296031.497    21296034.217   -38817280.527 9  42020735.469 9
  22438333.668    22438334.954   -77184938.837 9  93105917.939 9
  21268852.917    21268854.915   -13464055.911 9 -11721324.320 9
